[[{"header":{"parameterUnit":"m.s-1","parameterCategory":1,"la1":30.6,"la2":29.2853,"lo1":-89.7004,"lo2":-87.6739,"dy":0.0162,"dx":0.0183,"nx":112,"ny":82,"refTime":"2024-08-25T06:00:00:Z","depth":0,"parameterNumber":2,"parameterNumberName":"U-component_of_WINDS"},"data":[0.0,0.0,0.0,0.0,0.0,0.0,0.0,0.0,0.0,0.0,0.0,0.0,0.0,0.0,0.0,0.0,0.0,0.0,0.0,0.0,0.0,0.0,0.0,0.0,0.0,0.0,0.0,0.0,0.0,0.0,0.0,0.0,0.0,0.0,0.0,0.0,0.0,0.0,0.0,0.0,0.0,0.0,0.0,0.0,0.0,0.0,0.0,0.0,0.0,0.0,0.0,0.0,0.0,0.0,0.0,0.0,0.0,0.0,0.0,0.0,0.0,0.0,0.0,0.0,0.0,0.0,0.0,0.0,0.0,0.0,0.0,0.0,0.0,0.0,0.0,0.0,0.0,0.0,0.0,0.0,0.0,0.0,0.0,0.0,0.0,0.0,0.0,0.0,0.0,0.0,0.4091,0.4076,0.4525,0.4834,0.4834,0.4834,0.451,0.3748,0.0,0.0,0.0,0.0,0.0,0.0,0.0,0.0,0.0,0.0,0.0,0.0,0.0,0.0,0.0,0.0,0.0,0.0,0.0,0.0,0.0,0.0,0.0,0.0,0.0,0.0,0.0,0.0,0.0,0.0,0.0,0.0,0.0,0.0,0.0,0.0,0.0,0.0,0.0,0.0,0.0,0.0,0.0,0.0,0.0,0.0,0.0,0.0,0.0,0.0,0.0,0.0,0.0,0.0,0.0,0.0,0.0,0.0,0.0,0.0,0.0,0.0,0.0,0.0,0.0,0.0,0.0,0.0,0.0,0.0,0.0,0.0,0.0,0.0,0.0,0.0,0.0,0.0,0.0,0.0,0.0,0.0,0.0,0.0,0.0,0.0,0.0,0.0,0.0,0.0,0.0,0.0,0.0,0.0,0.0,0.0,0.0,0.0,0.0,0.0,0.0,0.0,0.0,0.0,0.4289,0.4778,0.4922,0.4974,0.4974,0.4974,0.461,0.3756,0.0,0.0,0.0,0.0,0.0,0.0,0.0,0.0,0.0,0.0,0.0,0.0,0.0,0.0,0.0,0.0,0.0,0.0,0.0,0.0,0.0,0.0,0.0,0.0,0.0,0.0,0.0,0.0,0.0,0.0,0.0,0.0,0.0,0.0,0.0,0.0,0.0,0.0,0.0,0.0,0.0,0.0,0.0,0.0,0.0,0.0,0.0,0.0,0.0,0.0,0.0,0.0,0.0,0.0,0.0,0.0,0.0,0.0,0.0,0.0,0.0,0.0,0.0,0.0,0.0,0.0,0.0,0.0,0.0,0.0,0.0,0.0,0.0,0.0,0.0,0.0,0.0,0.0,0.0,0.0,0.0,0.0,0.0,0.0,0.0,0.0,0.0,0.0,0.0,0.0,0.0,0.0,0.0,0.0,0.0,0.0,0.0,0.0,0.0,0.0,0.0,0.0,0.0,0.3782,0.4191,0.4728,0.4849,0.486,0.479,0.4849,0.4555,0.3748,0.3635,0.0,0.0,0.0,0.0,0.0,0.0,0.0,0.0,0.0,0.0,0.0,0.0,0.0,0.0,0.0,0.0,0.0,0.0,0.0,0.0,0.0,0.0,0.0,0.0,0.0,0.0,0.0,0.0,0.0,0.0,0.0,0.0,0.0,0.0,0.0,0.0,0.0,0.0,0.0,0.0,0.0,0.0,0.0,0.0,0.0,0.0,0.0,0.0,0.0,0.0,0.0,0.0,0.0,0.0,0.0,0.0,0.0,0.0,0.0,0.0,0.0,0.0,0.0,0.0,0.0,0.0,0.0,0.0,0.0,0.0,0.0,0.0,0.0,0.0,0.0,0.0,0.0,0.0,0.0,0.0,0.0,0.0,0.0,0.0,0.0,0.0,0.0,0.0,0.0,0.0,0.0,0.0,0.0,0.0,0.0,0.0,0.0,0.0,0.0,0.0,0.0,0.0,0.4067,0.4134,0.4554,0.4688,0.4709,0.4607,0.4624,0.4359,0.3718,0.3493,0.0,0.0,0.0,0.0,0.0,0.0,0.0,0.0,0.0,0.0,0.0,0.0,0.0,0.0,0.0,0.0,0.0,0.0,0.0,0.0,0.0,0.0,0.0,0.0,0.0,0.0,0.0,0.0,0.0,0.0,0.0,0.0,0.0,0.0,0.0,0.0,0.0,0.0,0.0,0.0,0.0,0.0,0.0,0.0,0.0,0.0,0.0,0.0,0.0,0.0,0.0,0.0,0.0,0.0,0.0,0.0,0.0,0.0,0.0,0.0,0.0,0.0,0.0,0.0,0.0,0.0,0.0,0.0,0.0,0.0,0.0,0.0,0.0,0.0,0.0,0.0,0.0,0.0,0.0,0.0,0.0,0.0,0.0,0.0,0.0,0.0,0.0,0.0,0.0,0.0,0.0,0.0,0.0,0.0,0.0,0.0,0.0,0.0,0.0,0.0,0.0,0.0,0.3958,0.4283,0.457,0.4607,0.4607,0.4607,0.4319,0.3993,0.3629,0.3075,0.0,0.0,0.0,0.0,0.0,0.0,0.0,0.0,0.0,0.0,0.0,0.0,0.0,0.0,0.0,0.0,0.0,0.0,0.0,0.0,0.0,0.0,0.0,0.0,0.0,0.0,0.0,0.0,0.0,0.0,0.0,0.0,0.0,0.0,0.0,0.0,0.0,0.0,0.0,0.0,0.0,0.0,0.0,0.0,0.0,0.0,0.0,0.0,0.0,0.0,0.0,0.0,0.0,0.0,0.0,0.0,0.0,0.0,0.0,0.0,0.0,0.0,0.0,0.0,0.0,0.0,0.0,0.0,0.0,0.0,0.0,0.0,0.0,0.0,0.0,0.0,0.0,0.0,0.0,0.0,0.0,0.0,0.0,0.0,0.0,0.0,0.0,0.0,0.0,0.0,0.0,0.0,0.0,0.0,0.0,0.0,0.0,0.0,0.0,0.0,0.0,0.0,0.3156,0.3307,0.3578,0.3942,0.4132,0.4049,0.4274,0.4164,0.3572,0.0,0.0,0.0,0.0,0.0,0.0,0.0,0.0,0.0,0.0,0.0,0.0,0.0,0.0,0.0,0.0,0.0,0.0,0.0,0.0,0.0,0.0,0.0,0.0,0.0,0.0,0.0,0.0,0.0,0.0,0.0,0.0,0.0,0.0,0.0,0.0,0.0,0.0,0.0,0.0,0.0,0.0,0.0,0.0,0.0,0.0,0.0,0.0,0.0,0.0,0.0,0.0,0.0,0.0,0.0,0.0,0.0,0.0,0.0,0.0,0.0,0.0,0.0,0.0,0.0,0.0,0.0,0.0,0.0,0.0,0.0,0.0,0.0,0.0,0.0,0.0,0.0,0.0,0.0,0.0,0.0,0.0,0.0,0.0,0.0,0.0,0.0,0.0,0.0,0.0,0.0,0.0,0.0,0.0,0.0,0.0,0.0,0.0,0.0,0.0,0.0,0.0,0.2688,0.2707,0.2771,0.2948,0.3337,0.3547,0.3454,0.3807,0.379,0.3245,0.0,0.0,0.0,0.0,0.0,0.0,0.0,0.0,0.0,0.0,0.0,0.0,0.0,0.0,0.0,0.0,0.0,0.0,0.0,0.0,0.0,0.0,0.0,0.0,0.0,0.0,0.0,0.0,0.0,0.0,0.0,0.0,0.0,0.0,0.0,0.0,0.0,0.0,0.0,0.0,0.0,0.0,0.0,0.0,0.0,0.0,0.0,0.0,0.0,0.0,0.0,0.0,0.0,0.0,0.0,0.0,0.0,0.0,0.0,0.0,0.0,0.0,0.0,0.0,0.0,0.0,0.0,0.0,0.0,0.0,0.0,0.0,0.0,0.0,0.0,0.0,0.0,0.0,0.0,0.0,0.0,0.0,0.0,0.0,0.0,0.0,0.0,0.0,0.0,0.0,0.0,0.0,0.0,0.0,0.0,0.0,0.0,0.0,0.0,0.0,0.0,0.0,0.2552,0.2759,0.2887,0.2887,0.2887,0.2887,0.2887,0.2838,0.274,0.0,0.0,0.0,0.0,0.0,0.0,0.0,0.0,0.0,0.0,0.0,0.0,0.0,0.0,0.0,0.0,0.0,0.0,0.0,0.0,0.0,0.0,0.0,0.0,0.0,0.0,0.0,0.0,0.0,0.0,0.0,0.0,0.0,0.0,0.0,0.0,0.0,0.0,0.0,0.0,0.0,0.0,0.0,0.0,0.0,0.0,0.0,0.0,0.0,0.0,0.0,0.0,0.0,0.0,0.0,0.0,0.0,0.0,0.0,0.0,0.0,0.0,0.0,0.0,0.0,0.0,0.0,0.0,0.0,0.0,0.0,0.0,0.0,0.0,0.0,0.0,0.0,0.0,0.0,0.0,0.0,0.0,0.0,0.0,0.0,0.0,0.0,0.0,0.0,0.0,0.0,0.0,0.0,0.0,0.0,0.0,0.0,0.0,0.0,0.0,0.0,0.0,0.0,0.1744,0.1803,0.1845,0.1845,0.2133,0.2333,0.2333,0.2618,0.2724,0.2541,0.0,0.0,0.0,0.0,0.0,0.0,0.0,0.0,0.0,0.0,0.0,0.0,0.0,0.0,0.0,0.0,0.0,0.0,0.0,0.0,0.0,0.0,0.0,0.0,0.0,0.0,0.0,0.0,0.0,0.0,0.0,0.0,0.0,0.0,0.0,0.0,0.0,0.0,0.0,0.0,0.0,0.0,0.0,0.0,0.0,0.0,0.0,0.0,0.0,0.0,0.0,0.0,0.0,0.0,0.0,0.0,0.0,0.0,0.0,0.0,0.0,0.0,0.0,0.0,0.0,0.0,0.0,0.0,0.0,0.0,0.0,0.0,0.0,0.0,0.0,0.0,0.0,0.0,0.0,0.0,0.0,0.0,0.0,0.0,0.0,0.0,0.0,0.0,0.0,0.0,0.0,0.0,0.0,0.0,0.0,0.0,0.0,0.0,0.0,0.0,0.0,0.0,0.1395,0.1404,0.14,0.14,0.1655,0.1823,0.1823,0.2201,0.2347,0.211,0.0,0.0,0.0,0.0,0.0,0.0,0.0,0.0,0.0,0.0,0.0,0.0,0.0,0.0,0.0,0.0,0.0,0.0,0.0,0.0,0.0,0.0,0.0,0.0,0.0,0.0,0.0,0.0,0.0,0.0,0.0,0.0,0.0,0.0,0.0,0.0,0.0,0.0,0.0,0.0,0.0,0.0,0.0,0.0,0.0,0.0,0.0,0.0,0.0,0.0,0.0,0.0,0.0,0.0,0.0,0.0,0.0,0.0,0.0,0.0,0.0,0.0,0.0,0.0,0.0,0.0,0.0,0.0,0.0,0.0,0.0,0.0,0.0,0.0,0.0,0.0,0.0,0.0,0.0,0.0,0.0,0.0,0.0,0.0,0.0,0.0,0.0,0.0,0.0,0.0,0.0,0.0,0.0,0.0,0.0,0.0,0.0,0.0,0.0,0.0,0.0,0.0,0.1356,0.1383,0.14,0.14,0.14,0.14,0.14,0.1669,0.175,0.1518,0.0,0.0,0.0,0.0,0.0,0.0,0.0,0.0,0.0,0.0,0.0,0.0,0.0,0.0,0.0,0.0,0.0,0.0,0.0,0.0,0.0,0.0,0.0,0.0,0.0,0.0,0.0,0.0,0.0,0.0,0.0,0.0,0.0,0.0,0.0,0.0,0.0,0.0,0.0,0.0,0.0,0.0,0.0,0.0,0.0,0.0,0.0,0.0,0.0,0.0,0.0,0.0,0.0,0.0,0.0,0.0,0.0,0.0,0.0,0.0,0.364,0.3615,0.0,0.0,0.0,0.0,0.0,0.0,0.0,0.0,0.0,0.0,0.0,0.0,0.0,0.0,0.0,0.0,0.0,0.0,0.0,0.0,0.0,0.0,0.0,0.0,0.0,0.0,0.0,0.0,0.0,0.0,0.0,0.0,0.0,0.0,0.0,0.0,0.0,0.0,0.0,0.0,0.1159,0.1305,0.14,0.14,0.14,0.14,0.14,0.142,0.1476,0.1576,0.1449,0.0,0.0,0.0,0.0,0.0,0.0,0.0,0.0,0.0,0.0,0.0,0.0,0.0,0.0,0.0,0.0,0.0,0.0,0.0,0.0,0.0,0.0,0.0,0.0,0.0,0.0,0.0,0.0,0.0,0.0,0.0,0.0,0.0,0.0,0.0,0.0,0.0,0.0,0.0,0.0,0.0,0.0,0.0,0.0,0.0,0.0,0.0,0.0,0.0,0.0,0.0,0.0,0.0,0.0,0.0,0.0,0.0,0.0,0.0,0.3177,0.3492,0.0,0.0,0.0,0.0,0.0,0.0,0.0,0.0,0.0,0.0,0.0,0.0,0.0,0.0,0.0,0.0,0.0,0.0,0.0,0.0,0.0,0.0,0.0,0.0,0.0,0.0,0.0,0.0,0.0,0.0,0.0,0.0,0.0,0.0,0.0,0.0,0.0,0.0,0.0,0.0,0.1046,0.117,0.1254,0.1254,0.1254,0.1254,0.1254,0.1228,0.1234,0.1302,0.1275,0.0,0.0,0.0,0.0,0.0,0.0,0.0,0.0,0.0,0.0,0.0,0.0,0.0,0.0,0.0,0.0,0.0,0.0,0.0,0.0,0.0,0.0,0.0,0.0,0.0,0.0,0.0,0.0,0.0,0.0,0.0,0.0,0.0,0.0,0.0,0.0,0.0,0.0,0.0,0.0,0.0,0.0,0.0,0.0,0.0,0.0,0.0,0.0,0.0,0.0,0.0,0.0,0.0,0.1438,0.1428,0.1345,0.12,0.1161,0.128,0.2444,0.3055,0.3203,0.2949,0.0,0.0,0.0,0.0,0.0,0.0,0.0,0.0,0.0,0.0,0.0,0.0,0.0,0.0,0.0,0.0,0.0,0.0,0.0,0.0,0.0,0.0,0.1889,0.1684,0.1925,0.206,0.1505,0.0,0.0,0.0,0.0,0.0,0.0,0.0,0.0,0.0,0.0,0.0,0.0734,0.0799,0.0873,0.0974,0.0974,0.1007,0.1097,0.1097,0.1071,0.1024,0.1161,0.117,0.0,0.0,0.0,0.0,0.0,0.0,0.0,0.0,0.0,0.0,0.0,0.0,0.0,0.0,0.0,0.0,0.0,0.0,0.0,0.0,0.0,0.0,0.0,0.0,0.0,0.0,0.0,0.0,0.0,0.0,0.0,0.0,0.2717,0.3213,0.0,0.0,0.0,0.0,0.0,0.0,0.0,0.0,0.0,0.0,0.0,0.0,0.0,0.1143,0.1002,0.1058,0.1027,0.0899,0.1186,0.1255,0.1137,0.1238,0.1274,0.1298,0.1479,0.0,0.2112,0.2186,0.0,0.0,0.0,0.0,0.0,0.0,0.0,0.0,0.0,0.0,0.0,0.0,0.0,0.0,0.0,0.0,0.0,0.0,0.0,0.0,0.0,0.0,0.0074,-0.0183,-0.0198,-0.0174,-0.0266,0.0536,0.1099,0.0497,0.0453,0.0443,0.0,0.0,0.0,0.0,0.0,0.0,-0.0269,-0.0243,-0.0022,0.0447,0.0492,0.066,0.1063,0.1097,0.1095,0.1088,0.1057,0.1007,0.0919,0.1035,0.0,0.0,0.0,0.0,0.0,0.0,0.0,0.0,0.0,0.0,0.0,0.0,0.0,0.0,0.0,0.0,0.0,0.0,0.0,0.0,0.0,0.0,0.0,0.0,0.0,0.0,0.0,0.0,0.0,0.2827,0.3224,0.3241,0.3286,0.3245,0.0,0.0,0.0,0.0,0.0,0.0,0.0,0.0,0.0,0.1008,0.0661,0.0471,0.046,0.0415,0.0227,-0.0099,0.0237,0.0227,-0.0076,-0.0015,0.0,0.0015,0.0293,0.0504,0.0702,0.1216,0.1508,0.161,0.0,0.0,0.0,0.0,0.1149,0.1149,0.1149,0.1033,0.0864,0.0764,0.0,0.0,0.0,0.0,0.0,0.0,0.0,-0.0023,-0.0323,-0.038,-0.0402,-0.0519,-0.0514,-0.0615,-0.107,-0.0687,-0.0285,-0.0344,-0.0312,-0.0286,-0.034,-0.034,0.0,0.0,0.0,-0.0583,-0.0662,-0.0707,-0.0647,-0.0407,-0.0352,-0.0243,-0.0046,0.0045,0.0089,0.0089,0.0308,0.0438,0.0449,0.0726,0.0848,0.0,0.0,0.0,0.0,0.0,0.0,0.0,0.0,0.0,0.0,0.0,0.0,0.0,0.0,0.0,0.0,0.0,0.0,0.0,0.0,0.0,0.0,0.0,0.0,0.0,0.0,0.0,0.0,0.2956,0.3136,0.3077,0.2962,0.2857,0.0,0.0,0.0,0.0,0.0,0.0,0.0824,0.0739,0.0675,0.0616,0.0082,-0.0241,-0.0312,-0.0518,-0.0882,-0.1403,-0.0967,-0.0939,-0.1278,-0.1105,-0.1027,-0.1011,-0.0663,-0.0487,-0.0419,0.0411,0.0741,0.0728,0.0568,0.0524,0.0563,0.0423,0.0378,0.0382,0.0394,0.0317,0.0204,0.0104,-0.0013,-0.0147,-0.0386,0.0,0.0,0.0,0.0,-0.0896,-0.1082,-0.1029,-0.0954,-0.1048,-0.1029,-0.1146,-0.1748,-0.181,-0.16,-0.1147,-0.1046,-0.1007,-0.0947,-0.0967,0.0,-0.0962,-0.1089,-0.1189,-0.1206,-0.1301,-0.131,-0.1197,-0.113,-0.1062,-0.093,-0.0815,-0.075,-0.075,-0.0394,-0.0154,-0.0107,0.0164,0.0346,0.0412,0.0,0.0,0.0,0.0,0.0,0.0,0.0,0.0,0.0,0.0,0.0,0.0,0.0,0.0,0.0,0.0,0.0,0.0,0.0,0.0,0.0,0.0,0.0,0.0,0.0,0.0,0.0,0.0,0.0,0.264,0.1995,0.0,0.0,0.0,0.0,0.1045,0.119,0.1008,0.0375,0.0386,0.016,-0.0409,-0.0649,-0.1058,-0.169,-0.1893,-0.2357,-0.3075,-0.2354,-0.2017,-0.2021,-0.1389,-0.1088,-0.1088,-0.1071,-0.1023,-0.0898,-0.003,0.0438,0.0579,0.0323,0.0333,0.0488,0.036,0.0306,0.0308,0.0379,0.0105,-0.0265,-0.0272,-0.0571,-0.1007,-0.1333,-0.1216,0.0,0.0,-0.1362,-0.1426,-0.2139,-0.2212,-0.2192,-0.2514,-0.2589,-0.2591,-0.2635,-0.2645,-0.2459,-0.1858,-0.1703,-0.1628,-0.1561,0.0,-0.1491,-0.2119,-0.2062,-0.203,-0.2293,-0.2323,-0.2164,-0.1709,-0.1656,-0.148,-0.103,-0.0935,-0.089,-0.089,-0.0744,-0.0659,-0.0658,-0.0706,-0.0695,-0.0621,-0.0254,0.0,0.0,0.0,0.0,0.0,0.0,0.0,0.0,0.0,0.0,0.0,0.0,0.0,0.0,0.0,0.0,0.0,0.0,0.0,0.0,0.0,0.0,0.0,0.0,0.0,0.0,0.0,0.0,0.1987,0.1637,0.0,0.145,0.0983,0.0432,-0.017,-0.0436,-0.0872,-0.1594,-0.1693,-0.1817,-0.2037,-0.2233,-0.2458,-0.27,-0.2765,-0.2942,-0.3201,-0.2936,-0.2804,-0.2798,-0.2699,-0.2649,-0.2649,-0.2731,-0.2764,-0.2719,-0.2404,-0.1551,-0.0439,-0.054,-0.0523,-0.0479,-0.0514,-0.0667,-0.085,-0.0829,-0.1101,-0.1458,-0.1459,-0.1565,-0.1734,-0.1843,-0.1924,-0.2059,-0.2523,-0.2772,-0.3055,-0.3662,-0.3779,-0.3742,-0.3736,-0.3732,-0.3698,-0.3566,-0.3538,-0.34,-0.2918,-0.2573,-0.2293,-0.2146,-0.213,-0.2179,-0.2287,-0.2345,-0.2419,-0.2514,-0.2571,-0.2526,-0.2362,-0.2301,-0.2204,-0.205,-0.1887,-0.1807,-0.1807,-0.1397,-0.1153,-0.1153,-0.0882,-0.075,-0.0768,-0.0624,-0.0438,0.0,0.0,0.0,0.0,0.0,0.0,0.0,0.0,0.0,0.0,0.0,0.0,0.0,0.0,0.0,0.0,0.0,0.0,0.0,0.0,0.0,0.0,0.0,0.0,0.0,0.1856,0.1598,0.1545,0.1112,0.0858,0.092,0.0195,-0.0513,-0.1098,-0.1655,-0.2199,-0.2742,-0.2851,-0.2923,-0.2992,-0.3173,-0.3384,-0.3635,-0.3754,-0.3925,-0.4184,-0.401,-0.3939,-0.3939,-0.3822,-0.377,-0.377,-0.3868,-0.39,-0.39,-0.39,-0.32,-0.2102,-0.1965,-0.1903,-0.1887,-0.1714,-0.1777,-0.1965,-0.1965,-0.2047,-0.2209,-0.268,-0.2728,-0.2633,-0.2916,-0.3137,-0.3344,-0.3699,-0.3958,-0.4179,-0.4538,-0.4611,-0.4566,-0.4427,-0.4405,-0.4365,-0.4234,-0.4201,-0.41,-0.3772,-0.3285,-0.2845,-0.2556,-0.2573,-0.2587,-0.245,-0.255,-0.2628,-0.2628,-0.2668,-0.2705,-0.2705,-0.2663,-0.2628,-0.2628,-0.2444,-0.2339,-0.2339,-0.1916,-0.167,-0.167,-0.1366,-0.1227,-0.1266,-0.112,-0.0834,-0.0436,0.0,0.0,0.0,0.0,0.0,0.0,0.0,0.0,0.0,0.0,0.0,0.0,0.0,0.0,0.0,0.0,0.0,0.0,0.0,0.0,0.0,0.0,0.0,0.1958,0.1163,0.0718,0.1286,0.0368,-0.0133,0.0295,-0.0848,-0.1634,-0.168,-0.2342,-0.2829,-0.2975,-0.2991,-0.3088,-0.3291,-0.3432,-0.3829,-0.4544,-0.4873,-0.5404,-0.6097,-0.5653,-0.5431,-0.5413,-0.4706,-0.438,-0.438,-0.438,-0.438,-0.438,-0.438,-0.438,-0.4342,-0.39,-0.372,-0.3654,-0.3136,-0.2952,-0.295,-0.2963,-0.2668,-0.2505,-0.387,-0.397,-0.3704,-0.455,-0.4799,-0.4799,-0.4815,-0.4775,-0.4728,-0.4744,-0.4706,-0.4647,-0.4644,-0.4644,-0.4656,-0.4653,-0.4653,-0.4596,-0.4408,-0.3894,-0.3337,-0.283,-0.2747,-0.2747,-0.2747,-0.2747,0.0,-0.2747,-0.2733,-0.2733,-0.2719,-0.2719,-0.2705,-0.2705,-0.2523,-0.2405,-0.2405,-0.2275,-0.2201,-0.2201,-0.2201,-0.2201,-0.2201,-0.1737,-0.1308,-0.0921,0.0,0.0,0.0,0.0,0.0,0.0,0.0,0.0,0.0,0.0,0.0,0.0,0.0,0.0,0.0,0.0,0.0,0.0,0.0,0.0,0.0,0.1032,0.062,0.0904,0.0764,0.0525,0.02,-0.0104,-0.0518,-0.1065,-0.1547,-0.2256,-0.333,-0.3784,-0.4249,-0.4828,-0.5093,-0.5238,-0.5308,-0.5485,-0.5664,-0.588,-0.5976,-0.6126,-0.6309,-0.6194,-0.6122,-0.6122,-0.6068,-0.6033,-0.6051,-0.619,-0.6262,-0.6262,-0.6262,-0.6262,-0.6108,-0.4685,-0.4129,-0.4111,-0.397,-0.401,-0.4139,-0.4241,-0.4198,-0.4151,-0.4533,-0.4566,-0.4483,-0.4732,-0.4799,-0.4882,-0.5266,-0.5371,-0.5442,-0.5837,-0.5917,-0.5885,-0.579,-0.5759,-0.5786,-0.5885,-0.5902,-0.5871,-0.5773,-0.5617,-0.51,-0.3859,-0.3647,-0.3647,-0.3647,-0.3647,-0.3647,-0.3647,-0.3477,-0.3311,-0.3218,-0.2984,-0.2846,-0.2846,-0.2576,-0.2442,-0.2545,-0.2324,-0.2201,-0.2201,-0.2201,-0.2201,-0.2201,-0.1737,-0.1449,0.0,0.0,0.0,0.0,0.0,0.0,0.0,0.0,0.0,0.0,0.0,0.0,0.0,0.0,0.0,0.0,0.0,0.0,0.0,0.0,0.0,0.0,0.0516,0.0027,0.0067,0.0141,-0.0044,-0.0689,-0.0879,-0.1272,-0.204,-0.2653,-0.3349,-0.4207,-0.4746,-0.527,-0.5786,-0.5997,-0.6122,-0.6146,-0.6307,-0.6364,-0.628,-0.6418,-0.6488,-0.6488,-0.6591,-0.6648,-0.6648,-0.6777,-0.6857,-0.6906,-0.7034,-0.7129,-0.7212,-0.7212,-0.7212,-0.7086,0.0,0.0,0.0,0.0,-0.5021,-0.4985,-0.5287,-0.5244,-0.5127,-0.5569,-0.5569,-0.5432,-0.5655,-0.5664,-0.5666,-0.5972,-0.6107,-0.6214,-0.6531,-0.6728,-0.6846,-0.6765,-0.675,-0.6767,-0.684,-0.6859,-0.6821,-0.6708,-0.6675,0.0,-0.5381,-0.4819,-0.4475,-0.4387,-0.438,-0.438,-0.438,-0.4236,-0.4015,-0.3685,-0.3477,-0.3258,-0.3009,-0.2781,0.0,0.0,0.0,-0.2448,-0.2326,-0.2274,0.0,0.0,0.0,0.0,0.0,-0.1646,0.0,0.0,-0.115,-0.109,0.0,0.0,0.0,0.0,0.0,0.0,0.0,0.0,0.0,0.0,0.0,0.0,0.0,0.0,0.0,0.0,-0.0121,-0.0499,-0.0634,-0.0673,-0.087,-0.1387,-0.1777,-0.2249,-0.2827,-0.3881,-0.4573,-0.4642,-0.5414,-0.5946,-0.6133,-0.6151,0.0,0.0,0.0,-0.6418,-0.6259,-0.6562,-0.6711,-0.6711,-0.6941,-0.7049,-0.7049,-0.7049,-0.7121,-0.7238,-0.7238,-0.7342,-0.7503,-0.7503,-0.7491,-0.7446,-0.7163,-0.7049,-0.6991,-0.65,-0.6007,-0.5664,-0.6126,0.0,0.0,-0.6684,-0.6716,-0.6444,-0.6916,-0.6969,-0.6863,-0.6863,-0.6928,-0.6993,-0.6993,-0.725,-0.7505,-0.7505,-0.7505,-0.7505,-0.7554,-0.7559,-0.7522,-0.7372,-0.7349,-0.7281,-0.7089,-0.6111,-0.5305,-0.5116,-0.5063,-0.5048,-0.5048,-0.5021,-0.4783,-0.424,-0.4143,0.0,-0.3378,-0.3248,-0.3182,-0.3129,-0.2982,-0.2792,-0.2554,-0.2426,-0.2364,-0.2366,-0.2368,-0.2398,-0.2455,-0.2455,-0.2524,-0.2627,-0.1634,-0.1506,0.0,0.0,0.0,0.0,0.0,0.0,0.0,0.0,0.0,0.0,0.0,0.0,0.0,0.0,0.0,0.0233,-0.0305,-0.0928,-0.1545,-0.172,-0.177,-0.1735,-0.2304,-0.304,-0.3905,-0.445,-0.4985,-0.5579,-0.6036,-0.6305,-0.6341,-0.6452,-0.6591,-0.6763,-0.6949,-0.7109,-0.7236,-0.7287,-0.7326,-0.7326,-0.7378,0.0,-0.7401,-0.7401,-0.7418,-0.7435,-0.7435,-0.7471,-0.7503,-0.7503,-0.7403,-0.7262,-0.7373,-0.7401,-0.7362,-0.7109,-0.695,-0.6857,-0.6839,-0.6774,-0.672,-0.6934,-0.7148,-0.7348,-0.7455,-0.7677,0.0,-0.7905,-0.7778,-0.7619,-0.7619,-0.7555,-0.7505,-0.7505,-0.7505,-0.7575,-0.7852,-0.7901,-0.7972,-0.8211,-0.8254,-0.8191,-0.7979,-0.7042,-0.6316,-0.6279,-0.6087,-0.595,-0.595,-0.576,-0.5537,-0.5314,-0.505,-0.4845,-0.4725,-0.4554,-0.4295,-0.3915,-0.3261,-0.2878,-0.2819,-0.2798,-0.2785,-0.278,-0.278,-0.2791,-0.2798,-0.2798,-0.2838,-0.2913,-0.2489,-0.2453,0.0,0.0,0.0,0.0,0.0,0.0,0.0,0.0,0.0,0.0,0.0,0.1218,0.0609,0.0,0.0055,-0.0253,-0.0947,-0.1573,-0.1956,-0.2749,-0.3212,-0.2978,-0.3429,-0.4084,-0.4918,-0.5267,-0.5644,-0.6109,-0.6275,-0.6428,-0.6641,-0.6718,-0.6852,-0.7049,-0.715,-0.7224,-0.7253,-0.7253,-0.7253,-0.7253,-0.7253,-0.735,-0.7553,-0.7553,-0.7697,-0.7952,-0.7952,-0.8005,-0.8093,-0.8093,-0.8036,-0.7961,-0.8053,-0.7789,-0.7354,-0.7354,-0.7467,-0.7647,-0.7569,-0.7683,-0.7844,-0.7844,-0.7992,-0.8144,-0.8144,-0.8216,-0.8299,-0.8299,-0.8271,-0.8221,-0.8091,-0.8129,-0.8173,-0.8029,-0.8003,-0.8052,-0.822,-0.8252,-0.8301,-0.8468,-0.8501,-0.8474,-0.8371,-0.7818,-0.7358,-0.7217,-0.7086,-0.696,-0.6815,-0.668,-0.6424,-0.5955,-0.5751,-0.5533,-0.5232,-0.5102,-0.4944,-0.4717,-0.401,-0.3565,-0.3498,-0.315,-0.2945,-0.2948,-0.2951,-0.2964,-0.3004,-0.3073,-0.3153,-0.3244,-0.3188,-0.3161,0.0,0.0,0.0,0.0,0.0,0.0,0.0,0.1271,0.0976,0.077,0.0808,0.0698,0.0113,-0.0186,-0.0499,-0.0971,-0.1768,-0.2384,-0.2565,-0.3706,-0.4499,-0.4461,-0.4729,-0.5132,-0.5716,-0.6038,-0.6277,-0.6423,-0.643,-0.6577,-0.6898,-0.6924,-0.7032,-0.7317,-0.7317,-0.7314,-0.7325,-0.7325,-0.7325,-0.7325,-0.7325,-0.751,-0.7821,-0.7821,-0.8052,-0.8458,-0.8458,-0.8552,-0.8703,-0.8703,-0.868,-0.8647,-0.8685,-0.8186,-0.7449,-0.7666,-0.7944,-0.8217,-0.8217,-0.8422,-0.8703,-0.8703,-0.8761,-0.8818,-0.8818,-0.8759,-0.8698,-0.8698,-0.8783,-0.8821,-0.8608,-0.8754,-0.8889,-0.8635,-0.8581,-0.8571,-0.8506,-0.8501,-0.8501,-0.8501,-0.8501,-0.8501,-0.8501,-0.8366,-0.8171,-0.7918,-0.7828,-0.7716,-0.7499,-0.7473,-0.7212,-0.6514,-0.6435,-0.6224,-0.5691,-0.5541,-0.5469,-0.5469,-0.485,-0.4445,-0.4336,-0.3656,-0.3302,-0.3313,-0.3207,-0.3194,-0.3263,-0.3365,-0.3468,-0.3576,-0.3717,-0.3706,0.2137,0.148,0.1098,0.1364,0.1212,0.1109,0.0,0.138,0.1038,0.0549,0.0454,0.0226,-0.0549,-0.119,-0.1681,-0.1917,-0.2594,-0.3372,-0.4202,-0.4469,-0.4869,-0.5612,-0.5893,-0.603,-0.606,-0.6401,-0.6615,-0.6577,-0.6791,-0.6942,-0.698,-0.6985,-0.7216,-0.7725,-0.7729,-0.7989,-0.85,-0.8519,-0.8519,-0.8519,-0.8519,-0.8538,-0.8576,-0.8576,-0.8609,-0.867,-0.867,-0.868,-0.8703,-0.8703,-0.8595,-0.8453,-0.8633,-0.8524,-0.8296,-0.8496,-0.8589,-0.8627,-0.8627,-0.8665,-0.8703,-0.8703,-0.8937,-0.9227,-0.9227,-0.9472,-0.9728,-0.9728,-0.9625,-0.9493,-0.9471,-0.9312,-0.9109,-0.8894,-0.8857,-0.8786,-0.856,-0.8501,-0.8501,-0.8501,-0.8501,-0.8501,-0.8501,-0.8474,-0.8393,-0.8192,-0.795,-0.779,-0.7763,-0.7763,-0.7628,-0.7307,-0.7267,-0.7168,-0.6925,-0.6412,-0.61,-0.61,-0.552,-0.5181,-0.5167,-0.4634,-0.4359,-0.4418,-0.3958,-0.3744,-0.3804,-0.3833,-0.3838,-0.3859,-0.3992,-0.3984,0.1661,0.1358,0.1151,0.1182,0.09,0.0643,0.0762,0.0484,0.0114,-0.0225,-0.0306,-0.0558,-0.1405,-0.1786,-0.2183,-0.2819,-0.354,-0.418,-0.4646,-0.5183,-0.5666,-0.6033,-0.6325,-0.6434,-0.6293,-0.6424,-0.6608,-0.6815,-0.7048,-0.7258,-0.7458,-0.7689,-0.7979,-0.8304,-0.8327,-0.8444,-0.8703,-0.8703,-0.8703,-0.8703,-0.8703,-0.8818,-0.9051,-0.9051,-0.9184,-0.9406,-0.9406,-0.9406,-0.9406,-0.9406,-0.9355,-0.9278,-0.937,-0.935,-0.9227,-0.8841,-0.8837,-0.9051,-0.9051,-0.9203,-0.9406,-0.9406,-0.9506,-0.9657,-0.9657,-0.9771,-0.9903,-0.9903,-0.9833,-0.9744,-0.9633,-0.952,-0.938,-0.9137,-0.9078,-0.9018,-0.8781,-0.8733,-0.8695,-0.8527,-0.8501,-0.8501,-0.8501,-0.8501,-0.8463,-0.8393,-0.828,-0.8161,-0.8052,-0.8036,-0.7929,-0.7662,-0.7641,-0.7598,-0.751,-0.7271,-0.7137,-0.7137,-0.6573,-0.6227,-0.6227,-0.5678,-0.5378,-0.5418,-0.5196,-0.5094,-0.5116,-0.5201,-0.503,-0.4653,-0.4752,-0.4562,0.1151,0.1034,0.0814,0.0441,0.0255,0.0058,-0.0281,-0.0465,-0.0639,-0.0825,-0.1022,-0.1368,-0.2061,-0.2522,-0.3026,-0.3739,-0.4472,-0.5007,-0.5163,-0.5778,-0.6214,-0.6247,-0.6467,-0.6598,-0.6543,-0.6508,-0.6654,-0.7052,-0.7277,-0.7544,-0.7955,-0.8287,-0.8608,-0.8851,-0.8856,-0.8913,-0.9027,-0.9027,-0.9027,-0.9027,-0.911,-0.9263,-0.9473,-0.9473,-0.962,-0.9903,-0.9903,-0.9903,-0.9903,-0.9903,-0.9903,-0.9903,-0.9903,-0.9903,-0.9827,-0.9255,-0.9222,-0.9473,-0.9473,-0.9657,-0.9903,-0.9903,-0.9903,-0.9903,-0.9903,-0.9903,-0.9903,-0.9903,-0.9903,-0.9865,-0.9717,-0.9693,-0.9615,-0.9367,-0.9308,-0.9245,-0.8965,-0.8895,-0.8825,-0.8544,-0.8501,-0.8501,-0.8501,-0.8501,-0.8501,-0.8501,-0.8501,-0.8452,-0.8306,-0.8235,-0.8132,-0.7929,-0.7838,-0.7801,-0.7801,-0.7801,-0.7801,-0.7801,-0.7394,-0.7151,-0.7151,-0.6563,-0.6259,-0.6295,-0.6143,-0.6072,-0.6111,-0.6203,-0.6014,-0.5529,-0.5589,-0.5385,0.053,0.0103,-0.0531,-0.1327,-0.0984,-0.0693,-0.1553,-0.1245,-0.0822,-0.0968,-0.1563,-0.2125,-0.2345,-0.3566,-0.4569,-0.4732,-0.5385,-0.5938,-0.6132,-0.6178,-0.6247,-0.6383,-0.6408,-0.6544,-0.6856,-0.6772,-0.686,-0.7258,-0.7486,-0.7821,-0.8355,-0.8585,-0.887,-0.9265,-0.9284,-0.9473,-0.9865,-0.9865,-0.9865,-0.9865,-1.0131,-1.012,-0.9884,-0.9884,-0.9879,-0.9903,-0.9903,-0.9903,-0.9903,-0.9903,-0.9903,-0.9903,-0.9903,-0.9903,-0.9903,-0.9865,-0.9865,-0.9884,-0.9884,-0.9879,-0.9903,-0.9903,-0.9903,-0.9903,-0.9903,-0.9903,-0.9903,-0.9903,-0.9903,-0.9898,-0.9892,-0.9892,-0.9833,-0.9639,-0.9585,-0.9455,-0.9003,-0.8895,-0.8825,-0.8544,-0.8501,-0.8501,-0.8501,-0.8501,-0.8501,-0.8501,-0.8501,-0.8495,-0.849,-0.8328,-0.8192,-0.8186,-0.795,-0.7801,-0.7801,-0.7801,-0.7801,-0.7801,-0.7786,-0.7771,-0.7771,-0.7195,-0.6932,-0.7061,-0.6485,-0.6253,-0.6379,-0.6388,-0.6388,-0.6359,-0.6363,-0.6497,-0.0968,-0.1468,-0.1931,-0.1936,-0.2106,-0.2243,-0.2045,-0.2202,-0.2402,-0.2454,-0.2655,-0.2994,-0.3556,-0.4066,-0.4646,-0.5401,-0.5846,-0.6152,-0.6317,-0.6568,-0.6735,-0.673,-0.6852,-0.708,-0.746,-0.7099,-0.7115,-0.7783,-0.8135,-0.8533,-0.8965,-0.9314,-0.9558,-0.9695,-0.9695,-0.985,-1.0169,-1.0169,-1.0225,-1.0376,-1.0462,-1.071,-1.1088,-1.1088,-1.1167,-1.1278,-1.0954,-1.0649,-1.0341,-1.0222,-1.0169,-1.0186,-1.0317,-1.0356,-1.0354,-1.0204,-1.0169,-1.0143,-0.9957,-0.9903,-0.9903,-0.9903,-0.9903,-0.9903,-0.9903,-0.9903,-0.9903,-0.9903,-0.9903,-0.9903,-0.9903,-0.9903,-0.9881,-0.9825,-0.9803,-0.9723,-0.9423,-0.9358,-0.924,-0.884,-0.8765,-0.8716,-0.8527,-0.8501,-0.8501,-0.8501,-0.8501,-0.8501,-0.8501,-0.8441,-0.8409,-0.8409,-0.8323,-0.8259,-0.8259,-0.8259,-0.8259,-0.8259,-0.8259,-0.8259,-0.8259,-0.8064,-0.799,-0.802,-0.7823,-0.7745,-0.7803,-0.7803,-0.757,-0.7129,-0.7273,-0.7203,-0.2059,-0.247,-0.2842,-0.2857,-0.3073,-0.3244,-0.3037,-0.3158,-0.3299,-0.3304,-0.3452,-0.375,-0.4275,-0.4582,-0.5032,-0.5868,-0.6153,-0.637,-0.6689,-0.7012,-0.7254,-0.7349,-0.7481,-0.7713,-0.8081,-0.7768,-0.7778,-0.8379,-0.8658,-0.9023,-0.949,-0.9752,-0.9941,-1.0032,-1.0032,-1.015,-1.0392,-1.0417,-1.055,-1.0859,-1.0858,-1.1142,-1.1682,-1.1534,-1.1548,-1.1722,-1.1358,-1.1072,-1.0835,-1.0708,-1.0615,-1.0572,-1.0699,-1.0678,-1.0576,-1.0451,-1.0403,-1.0353,-1.0027,-0.9903,-0.9903,-0.9903,-0.9903,-0.9903,-0.9903,-0.9903,-0.9903,-0.9903,-0.9903,-0.9903,-0.9903,-0.9903,-0.9916,-0.9992,-1.0011,-0.997,-0.9845,-0.9814,-0.9693,-0.9295,-0.9213,-0.9135,-0.8876,-0.8744,-0.8673,-0.8673,-0.8673,-0.8641,-0.8511,-0.8501,-0.8501,-0.8501,-0.8501,-0.8501,-0.8501,-0.8501,-0.8501,-0.8501,-0.8501,-0.8501,-0.8501,-0.8501,-0.8501,-0.8501,-0.8501,-0.8501,-0.8501,-0.8501,-0.8326,-0.8004,-0.8206,-0.8238,-0.2753,-0.2989,-0.3385,-0.4054,-0.3922,-0.3787,-0.445,-0.4078,-0.3608,-0.3591,-0.3988,-0.4372,-0.448,-0.5093,-0.5715,-0.6122,-0.633,-0.6647,-0.7235,-0.7508,-0.7798,-0.8178,-0.8236,-0.8369,-0.871,-0.8745,-0.8842,-0.9053,-0.9058,-0.9297,-0.9889,-0.993,-1.0048,-1.0304,-1.0309,-1.0423,-1.0628,-1.0665,-1.0906,-1.1333,-1.133,-1.1484,-1.1744,-1.131,-1.1202,-1.1399,-1.1185,-1.118,-1.1341,-1.1321,-1.12,-1.1044,-1.1055,-1.0899,-1.067,-1.0659,-1.0654,-1.0581,-1.0125,-0.9952,-0.9941,-0.9916,-0.9916,-0.9916,-0.9916,-0.9916,-0.9916,-0.9922,-0.9941,-0.9941,-0.9941,-0.9941,-0.9973,-1.0161,-1.0218,-1.0213,-1.0222,-1.0225,-1.0138,-0.9868,-0.9811,-0.9725,-0.9468,-0.9211,-0.904,-0.904,-0.9029,-0.8905,-0.8565,-0.8533,-0.8533,-0.8511,-0.8511,-0.8517,-0.8501,-0.8501,-0.8501,-0.8501,-0.8501,-0.8501,-0.8501,-0.8501,-0.8501,-0.8501,-0.8501,-0.8506,-0.8517,-0.8533,-0.8668,-0.8933,-0.9141,-0.9488,-0.3759,-0.4298,-0.4766,-0.4543,-0.4896,-0.516,-0.4706,-0.4846,-0.4999,-0.4741,-0.4798,-0.4819,-0.4547,-0.4904,-0.5395,-0.5896,-0.6463,-0.7036,-0.7596,-0.8096,-0.8453,-0.8553,-0.8706,-0.8951,-0.9323,-0.9377,-0.9529,-0.9944,-0.9781,-0.9825,-1.0186,-1.0344,-1.0442,-1.0526,-1.0526,-1.072,-1.1119,-1.1474,-1.1708,-1.1813,-1.1814,-1.2132,-1.2666,-1.2536,-1.2631,-1.2835,-1.243,-1.2093,-1.1805,-1.1661,-1.1578,-1.1534,-1.1691,-1.1701,-1.1609,-1.146,-1.1415,-1.1343,-1.0827,-1.0512,-1.0312,-1.0161,-1.0124,-1.0124,-1.0124,-1.0124,-1.0143,-1.0293,-1.0349,-1.0349,-1.0349,-1.0349,-1.0368,-1.0406,-1.0425,-1.0421,-1.042,-1.0421,-1.0353,-1.0143,-0.9931,-0.9782,-0.9714,-0.9651,-0.9588,-0.9588,-0.9422,-0.9195,-0.8916,-0.8877,-0.8829,-0.8738,-0.8722,-0.8662,-0.8517,-0.8501,-0.8501,-0.8501,-0.8501,-0.8501,-0.8501,-0.8501,-0.8501,-0.8501,-0.8501,-0.8603,-0.8792,-0.8953,-0.9136,-0.9367,-0.9756,-1.0087,-0.4668,-0.5099,-0.5429,-0.5219,-0.5604,-0.5854,-0.5184,-0.5329,-0.5477,-0.5057,-0.4964,-0.4856,-0.4477,-0.4882,-0.5413,-0.5828,-0.6538,-0.7314,-0.8086,-0.8564,-0.8924,-0.92,-0.933,-0.9482,-0.971,-0.9844,-1.0027,-1.0277,-1.0164,-1.0172,-1.0413,-1.0542,-1.0681,-1.0906,-1.0912,-1.113,-1.1609,-1.1985,-1.2182,-1.2182,-1.2268,-1.2497,-1.2875,-1.279,-1.2875,-1.306,-1.2722,-1.2466,-1.2299,-1.2194,-1.2088,-1.2016,-1.2124,-1.2102,-1.1983,-1.1878,-1.1836,-1.1763,-1.1349,-1.1101,-1.0863,-1.0459,-1.0331,-1.0331,-1.0331,-1.0331,-1.0368,-1.0481,-1.0494,-1.0494,-1.0494,-1.0494,-1.0513,-1.0607,-1.0625,-1.0663,-1.0738,-1.0756,-1.0734,-1.0618,-1.0383,-1.019,-1.019,-1.0096,-1.002,-1.002,-0.9891,-0.9745,-0.9582,-0.9235,-0.8968,-0.8894,-0.8894,-0.8845,-0.8738,-0.8716,-0.8716,-0.8716,-0.8716,-0.8716,-0.8716,-0.8716,-0.8716,-0.8716,-0.8837,-0.8975,-0.9125,-0.9361,-0.9581,-0.9811,-1.0162,-1.0447,-0.5369,-0.5533,-0.5683,-0.5888,-0.6067,-0.6088,-0.5693,-0.5568,-0.5375,-0.4844,-0.4715,-0.4609,-0.4329,-0.4886,-0.5508,-0.5918,-0.6631,-0.7514,-0.861,-0.8949,-0.9285,-0.9833,-0.9903,-0.9914,-0.9946,-1.0169,-1.032,-1.0379,-1.0385,-1.0471,-1.065,-1.0713,-1.0944,-1.1382,-1.1423,-1.164,-1.2059,-1.2305,-1.2448,-1.2448,-1.2619,-1.2705,-1.2705,-1.2635,-1.2635,-1.2705,-1.2635,-1.2662,-1.2705,-1.2705,-1.2598,-1.2448,-1.2448,-1.2305,-1.208,-1.208,-1.2062,-1.2014,-1.1769,-1.1627,-1.1437,-1.0761,-1.0537,-1.0537,-1.0537,-1.0537,-1.055,-1.0575,-1.0588,-1.0588,-1.0588,-1.0588,-1.0625,-1.0794,-1.0831,-1.0887,-1.1055,-1.1093,-1.1093,-1.1093,-1.0912,-1.0755,-1.0755,-1.0568,-1.0418,-1.0418,-1.0388,-1.0346,-1.0346,-0.9633,-0.9117,-0.91,-0.9056,-0.9033,-0.9001,-0.9001,-0.9001,-0.9001,-0.9001,-0.9001,-0.9001,-0.9035,-0.9052,-0.9052,-0.9314,-0.9473,-0.9508,-0.9771,-1.003,-1.0271,-1.0495,-1.0662,-0.5477,-0.5698,-0.5888,-0.6099,-0.6173,-0.6099,-0.5694,-0.5391,-0.5032,-0.4502,-0.4252,-0.4142,-0.4138,-0.4475,-0.5118,-0.6217,-0.6931,-0.7767,-0.8938,-0.9332,-0.959,-0.9876,-0.9903,-0.9984,-1.0207,-1.0266,-1.0455,-1.0858,-1.0885,-1.088,-1.0918,-1.1307,-1.1609,-1.1868,-1.2085,-1.2252,-1.232,-1.2534,-1.2641,-1.2641,-1.2683,-1.2705,-1.2726,-1.3415,-1.3351,-1.2747,-1.3415,-1.333,-1.2705,-1.2705,-1.2683,-1.2641,-1.2641,-1.2619,-1.2577,-1.2577,-1.2436,-1.2244,-1.2202,-1.203,-1.171,-1.099,-1.0756,-1.0756,-1.0756,-1.0756,-1.0775,-1.0943,-1.0999,-1.0999,-1.0999,-1.0999,-1.0999,-1.1037,-1.1055,-1.1055,-1.1093,-1.1093,-1.1093,-1.1093,-1.1057,-1.1026,-1.1026,-1.099,-1.0954,-1.0954,-1.0773,-1.0635,-1.0635,-1.0108,-0.9702,-0.9592,-0.9376,-0.9177,-0.9017,-0.9001,-0.9001,-0.9001,-0.9001,-0.9001,-0.9001,-0.9217,-0.9342,-0.9342,-0.9599,-0.9834,-1.0057,-1.0265,-1.0489,-1.0692,-1.0896,-1.1013,-0.582,-0.5984,-0.6099,-0.6268,-0.623,-0.6026,-0.5551,-0.5184,-0.4759,-0.4115,-0.3997,-0.3959,-0.3814,-0.4436,-0.5219,-0.6011,-0.6754,-0.761,-0.8677,-0.9072,-0.9358,-0.9701,-0.9965,-1.0164,-1.0283,-1.0828,-1.1372,-1.1848,-1.1889,-1.1738,-1.1389,-1.1819,-1.2118,-1.2203,-1.2433,-1.2555,-1.2555,-1.2641,-1.2705,-1.2705,-1.3167,-1.3372,-1.3415,-1.4321,-1.451,-1.409,-1.402,-1.3747,-1.333,-1.289,-1.2705,-1.2705,-1.2705,-1.2705,-1.2705,-1.2705,-1.2626,-1.2493,-1.234,-1.2213,-1.2018,-1.1529,-1.1289,-1.1134,-1.101,-1.0962,-1.0981,-1.1074,-1.1093,-1.1093,-1.1093,-1.1093,-1.1093,-1.1093,-1.1093,-1.1093,-1.1093,-1.1093,-1.1093,-1.1093,-1.1093,-1.1093,-1.1093,-1.1093,-1.1093,-1.1093,-1.0984,-1.0906,-1.0906,-1.0568,-1.0245,-1.0021,-0.9771,-0.9578,-0.9479,-0.9346,-0.9269,-0.9269,-0.9269,-0.9328,-0.9463,-0.9597,-0.9726,-0.9872,-1.0137,-1.0331,-1.0455,-1.07,-1.0861,-1.0962,-1.1055,-1.1093,-0.6039,-0.617,-0.6231,-0.6367,-0.6221,-0.5927,-0.541,-0.4981,-0.4519,-0.389,-0.3835,-0.3845,-0.3698,-0.4446,-0.5268,-0.584,-0.6498,-0.7305,-0.835,-0.8733,-0.9073,-0.9542,-1.0003,-1.0407,-1.0706,-1.1407,-1.2123,-1.2808,-1.2726,-1.2412,-1.1887,-1.2198,-1.2427,-1.247,-1.2619,-1.279,-1.2975,-1.2975,-1.3082,-1.3294,-1.3964,-1.4294,-1.4336,-1.5262,-1.547,-1.5075,-1.4531,-1.4084,-1.3669,-1.2975,-1.2705,-1.2705,-1.2705,-1.2705,-1.2705,-1.2705,-1.2668,-1.2602,-1.2451,-1.2361,-1.2262,-1.2051,-1.181,-1.1557,-1.1334,-1.1225,-1.1183,-1.1183,-1.1135,-1.1093,-1.1093,-1.1093,-1.1093,-1.1093,-1.1093,-1.1093,-1.1093,-1.1093,-1.1093,-1.1093,-1.1093,-1.1093,-1.1093,-1.1093,-1.1093,-1.1093,-1.1093,-1.1093,-1.1093,-1.0912,-1.0707,-1.0485,-1.0178,-0.9991,-0.9991,-0.9799,-0.9662,-0.9662,-0.9662,-0.9758,-0.9979,-1.0039,-1.0166,-1.037,-1.0653,-1.0785,-1.0785,-1.099,-1.1093,-1.1093,-1.1093,-1.1093,-0.5867,-0.6064,-0.6231,-0.6367,-0.6164,-0.5815,-0.54,-0.4804,-0.4276,-0.4018,-0.3743,-0.3685,-0.4139,-0.4317,-0.4819,-0.6133,-0.6417,-0.6939,-0.8307,-0.8733,-0.9073,-0.9542,-1.0003,-1.0777,-1.1996,-1.1656,-1.1902,-1.3246,-1.2766,-1.2406,-1.2347,-1.2384,-1.2491,-1.2662,-1.2683,-1.3082,-1.3873,-1.388,-1.4315,-1.5144,-1.5228,-1.5269,-1.5311,-1.6185,-1.5683,-1.4168,-1.4949,-1.4342,-1.2811,-1.2726,-1.2705,-1.2705,-1.2705,-1.2705,-1.2705,-1.2705,-1.2554,-1.2379,-1.2596,-1.2491,-1.2312,-1.2262,-1.2081,-1.1858,-1.1834,-1.1665,-1.1453,-1.1453,-1.1291,-1.1093,-1.1093,-1.1093,-1.1093,-1.1093,-1.1093,-1.1093,-1.1093,-1.1093,-1.1093,-1.1093,-1.1093,-1.1093,-1.1093,-1.1093,-1.1093,-1.1093,-1.1093,-1.1093,-1.1093,-1.1075,-1.1044,-1.1026,-1.0574,-1.0256,-1.0256,-1.0238,-1.0226,-1.0226,-1.0226,-1.0232,-1.0256,-1.0502,-1.0641,-1.0665,-1.0924,-1.1057,-1.1057,-1.1099,-1.1093,-1.1093,-1.1093,-1.1093,-0.5997,-0.6197,-0.6334,-0.6383,-0.6152,-0.5795,-0.5391,-0.4845,-0.4335,-0.4063,-0.3893,-0.3871,-0.408,-0.4317,-0.4754,-0.5604,-0.5874,-0.6309,-0.7278,-0.7759,-0.8227,-0.8867,-0.9737,-1.0827,-1.2173,-1.2317,-1.2632,-1.3351,-1.3901,-1.3964,-1.3394,-1.3351,-1.3394,-1.3478,-1.4027,-1.4489,-1.4845,-1.4845,-1.4761,-1.4552,-1.5123,-1.5103,-1.4594,-1.5511,-1.5532,-1.4824,-1.4636,-1.4153,-1.3436,-1.2912,-1.2705,-1.2705,-1.2705,-1.2705,-1.2705,-1.2705,-1.2638,-1.2566,-1.2668,-1.2638,-1.2548,-1.2548,-1.2481,-1.231,-1.1996,-1.1719,-1.1525,-1.1701,-1.143,-1.1129,-1.1304,-1.1219,-1.1093,-1.1093,-1.1093,-1.1093,-1.1093,-1.1093,-1.1093,-1.1093,-1.1093,-1.1093,-1.1093,-1.1093,-1.1093,-1.1093,-1.1093,-1.1093,-1.1093,-1.1093,-1.1093,-1.1093,-1.0761,-1.0544,-1.0544,-1.0382,-1.0292,-1.0292,-1.0292,-1.0364,-1.0521,-1.0647,-1.0779,-1.0936,-1.1038,-1.1093,-1.1093,-1.1093,-1.1093,-1.1093,-1.1093,-1.1093,-0.5935,-0.6139,-0.6246,-0.6246,-0.603,-0.5728,-0.5407,-0.4893,-0.4435,-0.4218,-0.4078,-0.4018,-0.4078,-0.4362,-0.4761,-0.5217,-0.5572,-0.603,-0.6727,-0.7224,-0.7739,-0.8339,-0.9562,-1.0845,-1.206,-1.2858,-1.3379,-1.3555,-1.4454,-1.4824,-1.442,-1.4399,-1.4399,-1.4399,-1.5054,-1.5394,-1.5394,-1.5394,-1.5075,-1.4426,-1.5075,-1.5054,-1.4441,-1.5103,-1.5248,-1.4949,-1.43,-1.3859,-1.3563,-1.2954,-1.2705,-1.2705,-1.2705,-1.2705,-1.2705,-1.2705,-1.2705,-1.2705,-1.2705,-1.2705,-1.2705,-1.2705,-1.2705,-1.2638,-1.2243,-1.1948,-1.178,-1.1966,-1.1629,-1.1261,-1.1441,-1.1304,-1.1093,-1.1093,-1.1093,-1.1093,-1.1093,-1.1093,-1.1093,-1.1093,-1.1093,-1.1093,-1.1093,-1.1093,-1.1093,-1.1093,-1.1093,-1.1093,-1.1093,-1.1093,-1.1093,-1.1093,-1.0924,-1.0815,-1.0815,-1.0653,-1.0544,-1.0544,-1.0544,-1.0623,-1.0809,-1.0815,-1.0906,-1.1105,-1.1093,-1.1093,-1.1093,-1.1093,-1.1093,-1.1093,-1.1093,-1.1135,-0.5553,-0.575,-0.5911,-0.5911,-0.575,-0.5561,-0.5435,-0.4929,-0.4521,-0.4587,-0.4276,-0.4058,-0.4264,-0.4464,-0.4761,-0.5217,-0.5696,-0.6255,-0.6996,-0.7494,-0.7896,-0.817,-0.9563,-1.0867,-1.1815,-1.3173,-1.3999,-1.3999,-1.3999,-1.4426,-1.5332,-1.5394,-1.5394,-1.5394,-1.5394,-1.5394,-1.5394,-1.5394,-1.5394,-1.5394,-1.5394,-1.5394,-1.5394,-1.5394,-1.4887,-1.402,-1.3999,-1.3499,-1.2705,-1.2705,-1.2705,-1.2705,-1.2705,-1.2705,-1.2705,-1.2705,-1.2705,-1.2705,-1.2705,-1.2705,-1.2705,-1.2705,-1.2705,-1.2705,-1.2699,-1.2491,-1.2286,-1.2312,-1.1912,-1.1508,-1.1495,-1.1304,-1.1093,-1.1093,-1.1093,-1.1093,-1.1093,-1.1093,-1.1093,-1.1093,-1.1093,-1.1093,-1.1093,-1.1093,-1.1093,-1.1093,-1.1093,-1.1093,-1.1093,-1.1093,-1.1093,-1.1093,-1.1105,-1.1105,-1.1105,-1.1087,-1.1087,-1.1087,-1.1087,-1.1087,-1.1105,-1.1105,-1.1105,-1.1093,-1.1093,-1.1093,-1.1093,-1.1093,-1.1093,-1.1093,-1.1093,-1.1243,-0.4998,-0.5194,-0.5348,-0.5358,-0.5335,-0.5272,-0.5038,-0.4877,-0.4695,-0.4446,-0.4295,-0.4223,-0.4288,-0.4353,-0.4656,-0.5453,-0.5696,-0.6035,-0.6733,-0.7383,-0.8242,-0.9425,-1.181,-1.3131,-1.2508,-1.3973,-1.4699,-1.4041,-1.5143,-1.5972,-1.6268,-1.6288,-1.6028,-1.5415,-1.5394,-1.5394,-1.5394,-1.5394,-1.5082,-1.4441,-1.4441,-1.4132,-1.3569,-1.4174,-1.4273,-1.3999,-1.3999,-1.3831,-1.3542,-1.2954,-1.2705,-1.2705,-1.2705,-1.2705,-1.2705,-1.2705,-1.2705,-1.2705,-1.2705,-1.2705,-1.2705,-1.2705,-1.2705,-1.2705,-1.2705,-1.2503,-1.2256,-1.2075,-1.2039,-1.2002,-1.1822,-1.1561,-1.1382,-1.1382,-1.1231,-1.1093,-1.1093,-1.1093,-1.1093,-1.1093,-1.1093,-1.1093,-1.1093,-1.1093,-1.1093,-1.1093,-1.1093,-1.1093,-1.1093,-1.1093,-1.1093,-1.1093,-1.1093,-1.1093,-1.1093,-1.1093,-1.1093,-1.1093,-1.1093,-1.1093,-1.1093,-1.1093,-1.1093,-1.1093,-1.1093,-1.1093,-1.1093,-1.1093,-1.1189,-1.1382,-1.1563,-1.1792,-0.452,-0.4698,-0.4812,-0.4856,-0.4901,-0.4924,-0.4856,-0.4794,-0.468,-0.4458,-0.4353,-0.4296,-0.4296,-0.4449,-0.4761,-0.5344,-0.5734,-0.6132,-0.6634,-0.7404,-0.8565,-1.0325,-1.2535,-1.376,-1.3345,-1.4255,-1.4901,-1.5019,-1.6054,-1.6698,-1.6698,-1.6391,-1.5794,-1.4908,-1.5228,-1.5394,-1.5394,-1.5394,-1.5116,-1.4531,-1.4531,-1.4237,-1.3738,-1.4279,-1.4531,-1.4531,-1.4531,-1.4531,0.0,-1.3943,-1.3506,-1.3188,-1.3188,-1.2997,-1.2705,-1.2705,-1.2705,-1.2705,-1.2705,-1.2705,-1.2705,-1.2705,-1.2705,-1.2705,-1.2705,-1.259,-1.2427,-1.2243,-1.2243,-1.2256,-1.2093,-1.1858,-1.1659,-1.1659,-1.1526,-1.1394,-1.1394,-1.1394,-1.1394,-1.1394,-1.1322,-1.1249,-1.1249,-1.1165,-1.1093,-1.1093,-1.1093,-1.1093,-1.1093,-1.1093,-1.1093,-1.1093,-1.1093,-1.1093,-1.1093,-1.1093,-1.1093,-1.1093,-1.1093,-1.1093,-1.1093,-1.1093,-1.1093,-1.1093,-1.1093,-1.1147,-1.1249,-1.1352,-1.149,-1.1665,-1.193,-1.2135,0.0,-0.425,-0.4291,-0.4412,-0.4463,-0.4553,-0.4801,-0.4675,0.0,-0.4565,-0.4429,-0.4307,-0.4345,-0.4706,-0.5028,-0.5106,-0.5908,-0.658,-0.6778,-0.7762,-0.9165,-1.1084,-1.2187,-1.3223,-1.4284,-1.42,-1.481,-1.6568,-1.6698,-1.6698,-1.6698,-1.5822,-1.4908,-1.402,-1.4782,-1.5207,-1.5207,-1.5269,-1.529,-1.529,-1.5373,-1.5394,-1.5394,-1.5456,-1.5498,-1.5498,-1.5498,-1.5456,-1.5394,-1.5332,-1.4761,-1.3922,-1.3922,-1.3415,-1.2705,-1.2705,-1.2705,-1.2705,-1.2705,-1.2705,-1.2705,-1.2705,-1.2705,-1.2705,-1.2705,-1.2705,-1.2705,-1.2705,-1.253,-1.2322,-1.2322,-1.2129,-1.193,-1.193,-1.1912,-1.19,-1.19,-1.19,-1.19,-1.19,-1.1707,-1.1519,-1.1519,-1.1322,-1.1153,-1.1153,-1.1153,-1.1153,-1.1153,-1.1153,-1.1147,-1.1123,-1.1123,-1.1117,-1.1093,-1.1093,-1.1093,-1.1093,-1.1093,-1.1093,-1.1093,-1.1093,-1.1105,-1.1123,-1.1141,-1.1279,-1.1519,-1.1804,-1.193,-1.1936,-1.2195,-1.2322,-0.3573,0.0,-0.3854,-0.3881,-0.4117,-0.4366,0.0,-0.4515,-0.4536,-0.4404,-0.4334,-0.441,-0.4763,-0.4925,-0.528,-0.6163,-0.7001,-0.7597,-0.7745,-1.0204,-1.2356,-1.328,-1.4189,-1.4855,-1.5126,-1.5099,-1.5532,-1.6617,-1.6698,-1.6698,-1.6698,-1.5185,-1.4231,-1.3999,-1.3563,-1.333,-1.333,-1.4006,-1.4336,-1.4342,-1.5054,-1.5394,-1.5415,-1.6083,-1.6391,-1.6391,-1.6391,-1.6028,-1.5332,-1.4636,-1.3816,-1.3018,-1.3018,-1.2869,-1.2705,-1.2705,-1.2705,-1.2705,-1.2705,-1.2705,-1.2705,-1.2705,-1.2705,-1.2705,-1.2705,-1.2705,-1.2705,-1.2705,-1.2656,-1.2614,-1.2614,-1.2415,-1.2201,-1.2201,-1.2051,-1.19,-1.19,-1.19,-1.19,-1.19,-1.1852,-1.181,-1.181,-1.1755,-1.1713,-1.1713,-1.1713,-1.1713,-1.1713,-1.1713,-1.1635,-1.1436,-1.1412,-1.1322,-1.1111,-1.1093,-1.1093,-1.1093,-1.1093,-1.1093,-1.1093,-1.1093,-1.1195,-1.1406,-1.1611,-1.1743,-1.181,-1.2075,-1.2201,-1.2207,-1.2487,-1.2614,-0.3301,-0.3641,-0.3967,-0.412,-0.4316,-0.4507,-0.4594,-0.4537,-0.4434,0.0,0.0,-0.4553,-0.4931,-0.5176,-0.5599,-0.6426,-0.7164,-0.8034,-0.9217,-1.2093,-1.412,-1.4217,-1.5274,-1.6008,-1.6008,-1.6008,-1.6185,-1.6657,-1.6698,-1.6342,-1.5517,-1.4942,-1.4258,-1.3436,-1.3753,-1.3943,-1.3943,-1.4405,-1.5047,-1.5848,-1.6358,-1.6591,-1.6612,-1.7082,-1.7074,-1.6698,-1.6698,-1.6214,-1.5352,-1.4845,-1.4111,-1.3288,-1.3288,-1.306,-1.2705,-1.2705,-1.2705,-1.2705,-1.2705,-1.2705,-1.2705,-1.2705,-1.2705,-1.2705,-1.2705,-1.2705,-1.2705,-1.2705,-1.2705,-1.2705,-1.2705,-1.2602,-1.2472,-1.2472,-1.2364,-1.2262,-1.2262,-1.2262,-1.2262,-1.2262,-1.2165,-1.2081,-1.2081,-1.1978,-1.19,-1.19,-1.19,-1.19,-1.19,-1.19,-1.1846,-1.1707,-1.167,-1.1629,-1.1478,-1.1466,-1.1358,-1.1129,-1.1093,-1.1153,-1.1279,-1.1285,-1.1412,-1.1683,-1.1948,-1.2081,-1.2081,-1.2346,-1.2472,-1.2493,-1.2638,-1.2705,-0.332,-0.3852,-0.4427,-0.4598,-0.4723,-0.4825,-0.4974,0.0,0.0,0.0,0.0,0.0,-0.516,-0.5561,-0.6054,-0.6661,-0.742,-0.8754,-1.1064,-1.3552,-1.5078,-1.4898,-1.5941,-1.676,-1.6882,-1.678,-1.676,-1.6882,-1.6657,-1.5889,-1.4496,-1.4908,-1.4552,-1.3167,-1.4468,-1.5324,-1.5602,-1.5602,-1.6337,-1.7809,-1.7931,-1.8,-1.8,-1.8,-1.7509,-1.6698,-1.6698,-1.6124,-1.5186,-1.5186,-1.4636,-1.3795,-1.3795,-1.3351,-1.2705,-1.2705,-1.2705,-1.2705,-1.2705,-1.2705,-1.2705,-1.2705,-1.2705,-1.2705,-1.2705,-1.2705,-1.2705,-1.2705,-1.2705,-1.2705,-1.2705,-1.2705,-1.2705,-1.2705,-1.2705,-1.2705,-1.2705,-1.2705,-1.2705,-1.2705,-1.2524,-1.2352,-1.2352,-1.2171,-1.2021,-1.2021,-1.2021,-1.2021,-1.2021,-1.2021,-1.2009,-1.1966,-1.196,-1.1942,-1.1906,-1.19,-1.1707,-1.1243,-1.1213,-1.1322,-1.1543,-1.1611,-1.1737,-1.196,-1.2219,-1.2352,-1.2352,-1.2596,-1.2705,-1.2705,-1.2705,-1.2705,-0.385,-0.4625,-0.5075,-0.45,-0.4783,-0.5171,-0.5026,0.0,0.0,0.0,0.0,0.0,-0.6106,-0.6383,-0.6936,-0.8146,-0.9751,-1.1498,-1.3351,-1.4624,-1.5782,-1.6879,-1.6822,-1.6992,-1.772,-1.7135,-1.7013,-1.7749,-1.6427,-1.5801,-1.626,-1.4977,-1.4447,-1.4977,-1.4489,-1.4956,-1.6494,-1.6494,-1.6637,-1.6903,-1.7639,-1.8,-1.8,-1.8,-1.7509,-1.6698,-1.6698,-1.5745,-1.421,-1.421,-1.3711,-1.289,-1.289,-1.2826,-1.2705,-1.2705,-1.2705,-1.2705,-1.2705,-1.2705,-1.2705,-1.2705,-1.2705,-1.2705,-1.2705,-1.2705,-1.2705,-1.2705,-1.2705,-1.2705,-1.2705,-1.2705,-1.2705,-1.2705,-1.2705,-1.2705,-1.2705,-1.2705,-1.2705,-1.2705,-1.2674,-1.2644,-1.2644,-1.2608,-1.2584,-1.2584,-1.2584,-1.2584,-1.2584,-1.2584,-1.2499,-1.2256,-1.2231,-1.2141,-1.1924,-1.19,-1.1864,-1.178,-1.178,-1.1798,-1.184,-1.2057,-1.2189,-1.2231,-1.2491,-1.2644,-1.2644,-1.2687,-1.2705,-1.2705,-1.2705,-1.2705,-0.3595,-0.446,-0.5133,-0.4894,-0.5365,-0.5868,-0.5771,-0.5631,0.0,0.0,0.0,0.0,-0.6331,-0.6686,-0.7479,-0.9219,-1.1209,-1.2985,-1.4293,-1.5671,-1.6766,-1.7424,-1.7433,-1.7558,-1.7951,-1.7216,-1.6665,-1.6591,-1.585,-1.5345,-1.5247,-1.5372,-1.5434,-1.5394,-1.5897,-1.6103,-1.6008,-1.6453,-1.6952,-1.7408,-1.7809,-1.774,-1.7306,-1.7306,-1.6555,-1.5247,-1.5247,-1.4496,-1.3288,-1.3288,-1.306,-1.2705,-1.2705,-1.2705,-1.2705,-1.2705,-1.2705,-1.2705,-1.2705,-1.2705,-1.2705,-1.2705,-1.2705,-1.2705,-1.2705,-1.2705,-1.2705,-1.2705,-1.2705,-1.2705,-1.2705,-1.2705,-1.2705,-1.2705,-1.2705,-1.2705,-1.2705,-1.2705,-1.2705,-1.2705,-1.2705,-1.2705,-1.2705,-1.2705,-1.2705,-1.2705,-1.2705,-1.2705,-1.2705,-1.2705,-1.2656,-1.2536,-1.2524,-1.2475,-1.2334,-1.2322,-1.2207,-1.1918,-1.2039,-1.2111,-1.2111,-1.2364,-1.2524,-1.2524,-1.2644,-1.2705,-1.2705,-1.2705,-1.2705,-1.2705,-1.2705,-1.2705,-0.3494,-0.4308,-0.5073,-0.5389,-0.5895,-0.6336,-0.6449,-0.6246,-0.6063,-0.6165,-0.637,-0.6616,-0.6921,-0.7686,-0.8781,-1.0403,-1.2526,-1.4143,-1.4637,-1.6329,-1.7461,-1.7322,-1.7712,-1.8,-1.8,-1.7216,-1.6522,-1.6036,-1.5622,-1.5262,-1.4956,-1.6054,-1.6501,-1.6015,-1.7102,-1.7143,-1.6015,-1.6275,-1.6727,-1.7396,-1.7396,-1.7041,-1.6391,-1.6391,-1.5517,-1.3999,-1.3999,-1.3499,-1.2705,-1.2705,-1.2705,-1.2705,-1.2705,-1.2705,-1.2705,-1.2705,-1.2705,-1.2705,-1.2705,-1.2705,-1.2705,-1.2705,-1.2705,-1.2705,-1.2705,-1.2705,-1.2705,-1.2705,-1.2705,-1.2705,-1.2705,-1.2705,-1.2705,-1.2705,-1.2705,-1.2705,-1.2705,-1.2705,-1.2705,-1.2705,-1.2705,-1.2705,-1.2705,-1.2705,-1.2705,-1.2705,-1.2705,-1.2705,-1.2705,-1.2705,-1.2705,-1.2705,-1.2705,-1.2705,-1.2705,-1.2705,-1.2509,-1.2111,-1.2274,-1.2382,-1.2382,-1.2596,-1.2705,-1.2705,-1.2705,-1.2705,-1.2705,-1.2705,-1.2705,-1.2705,-1.2705,-1.2705,-0.4104,-0.4656,-0.5154,-0.5787,-0.5985,-0.6141,-0.6586,-0.684,-0.7125,-0.7558,-0.7863,-0.8182,-0.863,-1.0318,-1.1741,-1.2016,-1.4067,-1.5349,-1.4543,-1.6209,-1.731,-1.683,-1.7492,-1.8,-1.8,-1.7216,-1.7013,-1.7769,-1.6304,-1.6077,-1.7619,-1.7074,-1.7033,-1.7789,-1.7155,-1.7115,-1.7809,-1.6263,-1.5539,-1.5581,-1.5581,-1.556,-1.5498,-1.5498,-1.4949,-1.3999,-1.3999,-1.3499,-1.2705,-1.2705,-1.2705,-1.2705,-1.2705,-1.2705,-1.2705,-1.2705,-1.2705,-1.2705,-1.2705,-1.2705,-1.2705,-1.2705,-1.2705,-1.2705,-1.2705,-1.2705,-1.2705,-1.2705,-1.2705,-1.2705,-1.2705,-1.2705,-1.2705,-1.2705,-1.2705,-1.2705,-1.2705,-1.2705,-1.2705,-1.2705,-1.2705,-1.2705,-1.2705,-1.2705,-1.2705,-1.2705,-1.2705,-1.2705,-1.2705,-1.2705,-1.2705,-1.2705,-1.2705,-1.2705,-1.2705,-1.2705,-1.2687,-1.265,-1.2662,-1.2674,-1.2674,-1.2693,-1.2705,-1.2705,-1.2705,-1.2705,-1.2705,-1.2705,-1.2705,-1.2705,-1.2705,-1.2705,-0.3867,-0.4418,-0.4921,-0.5642,-0.6035,0.0,0.0,-0.7252,-0.7638,-0.7976,-0.8225,-0.861,-0.9326,-1.0604,-1.1872,-1.2796,-1.4517,-1.5799,-1.5937,-1.7041,-1.7737,-1.7541,-1.7809,-1.8,-1.8,-1.6714,-1.6028,-1.6365,-1.5767,-1.5684,-1.6345,-1.7102,-1.7659,-1.7991,-1.7679,-1.7143,-1.6386,-1.5726,-1.4824,-1.3732,-1.4866,-1.5095,-1.4531,-1.4531,-1.4048,-1.3188,-1.3188,-1.2997,-1.2705,-1.2705,-1.2705,-1.2705,-1.2705,-1.2705,-1.2705,-1.2705,-1.2705,-1.2705,-1.2705,-1.2705,-1.2705,-1.2705,-1.2705,-1.2705,-1.2705,-1.2705,-1.2705,-1.2705,-1.2705,-1.2705,-1.2705,-1.2705,-1.2705,-1.2705,-1.2705,-1.2705,-1.2705,-1.2705,-1.2705,-1.2705,-1.2705,-1.2705,-1.2705,-1.2705,-1.2705,-1.2705,-1.2705,-1.2705,-1.2705,-1.2705,-1.2705,-1.2705,-1.2705,-1.2705,-1.2705,-1.2705,-1.2705,-1.2705,-1.2705,-1.2705,-1.2705,-1.2705,-1.2705,-1.2705,-1.2705,-1.2705,-1.2705,-1.2705,-1.2705,-1.2705,-1.2705,-1.2705,-0.3935,-0.4519,-0.5087,-0.5658,0.0,0.0,-0.7217,-0.7632,-0.8037,-0.8436,-0.8968,-0.958,-1.0331,-1.1419,-1.2593,-1.3779,-1.4916,-1.5868,-1.6408,-1.7119,-1.7598,-1.7598,-1.7829,-1.789,-1.7619,-1.6263,-1.5519,-1.578,-1.556,-1.5643,-1.618,-1.7082,-1.7598,-1.7598,-1.7314,-1.6612,-1.5415,-1.5116,-1.4342,-1.3124,-1.409,-1.4216,-1.3584,-1.3584,-1.3266,-1.2705,-1.2705,-1.2705,-1.2705,-1.2705,-1.2705,-1.2705,-1.2705,-1.2705,-1.2705,-1.2705,-1.2705,-1.2705,-1.2705,-1.2705,-1.2705,-1.2705,-1.2705,-1.2705,-1.2705,-1.2705,-1.2705,-1.2705,-1.2705,-1.2705,-1.2705,-1.2705,-1.2705,-1.2705,-1.2705,-1.2705,-1.2705,-1.2705,-1.2705,-1.2705,-1.2705,-1.2705,-1.2705,-1.2705,-1.2705,-1.2705,-1.2705,-1.2705,-1.2705,-1.2705,-1.2705,-1.2705,-1.2705,-1.2705,-1.2705,-1.2705,-1.2705,-1.2705,-1.2705,-1.2705,-1.2705,-1.2705,-1.2705,-1.2705,-1.2705,-1.2705,-1.2705,-1.2705,-1.2705,-1.2705,-1.2705,-1.2705,-0.4488,-0.5131,-0.5739,-0.5954,-0.6563,-0.7228,-0.7698,-0.802,-0.8403,-0.9066,-1.028,-1.1358,-1.1822,-1.3159,-1.4413,-1.5087,-1.544,-1.56,-1.56,-1.6234,-1.6719,-1.6719,-1.7468,-1.7659,-1.678,-1.5925,-1.576,-1.6617,-1.5904,-1.616,-1.789,-1.7176,-1.6698,-1.6698,-1.5842,-1.5394,-1.5394,-1.4461,-1.3999,-1.3978,-1.3103,-1.2705,-1.2705,-1.2705,-1.2705,-1.2705,-1.2705,-1.2705,-1.2705,-1.2705,-1.2705,-1.2705,-1.2705,-1.2705,-1.2705,-1.2705,-1.2705,-1.2705,-1.2705,-1.2705,-1.2705,-1.2705,-1.2705,-1.2705,-1.2705,-1.2705,-1.2705,-1.2705,-1.2705,-1.2705,-1.2705,-1.2705,-1.2705,-1.2705,-1.2705,-1.2705,-1.2705,-1.2705,-1.2705,-1.2705,-1.2705,-1.2705,-1.2705,-1.2705,-1.2705,-1.2705,-1.2705,-1.2705,-1.2705,-1.2705,-1.2705,-1.2705,-1.2705,-1.2705,-1.2705,-1.2705,-1.2705,-1.2705,-1.2705,-1.2705,-1.2705,-1.2705,-1.2705,-1.2705,-1.2705,-1.2705,-1.2705,-1.2705,-1.2705,-1.2705,-1.2705,-1.2705,-0.4475,-0.4997,-0.5556,-0.6137,-0.6939,-0.7715,-0.8178,-0.8501,-0.8918,-0.9743,-1.0779,-1.1731,-1.2298,-1.3551,-1.4651,-1.5112,-1.5746,-1.6248,-1.6489,-1.6952,-1.7346,-1.7585,-1.785,-1.7659,-1.678,-1.6473,-1.6173,-1.5801,-1.6103,-1.6535,-1.7054,-1.6841,-1.6698,-1.6698,-1.5842,-1.5075,-1.4426,-1.4147,-1.369,-1.3082,-1.2826,-1.2705,-1.2705,-1.2705,-1.2705,-1.2705,-1.2705,-1.2705,-1.2705,-1.2705,-1.2705,-1.2705,-1.2705,-1.2705,-1.2705,-1.2705,-1.2705,-1.2705,-1.2705,-1.2705,-1.2705,-1.2705,-1.2705,-1.2705,-1.2705,-1.2705,-1.2705,-1.2705,-1.2705,-1.2705,-1.2705,-1.2705,-1.2705,-1.2705,-1.2705,-1.2705,-1.2705,-1.2705,-1.2705,-1.2705,-1.2705,-1.2705,-1.2705,-1.2705,-1.2705,-1.2705,-1.2705,-1.2705,-1.2705,-1.2705,-1.2705,-1.2705,-1.2705,-1.2705,-1.2705,-1.2705,-1.2705,-1.2705,-1.2705,-1.2705,-1.2705,-1.2705,-1.2705,-1.2705,-1.2705,-1.2705,-1.2705,-1.2705,-1.2705,-1.2705,-1.2705,-1.2705,-0.4883,-0.5513,-0.6137,-0.6668,-0.7442,-0.8247,-0.8908,-0.9182,-0.9486,-1.0181,-1.1255,-1.2211,-1.2735,-1.3924,-1.4974,-1.5368,-1.5665,-1.6035,-1.6624,-1.6737,-1.7002,-1.7726,-1.7809,-1.752,-1.6764,-1.6698,-1.6473,-1.5966,-1.6391,-1.6841,-1.7196,-1.6563,-1.6185,-1.6185,-1.4984,-1.4069,-1.3478,-1.3478,-1.323,-1.2705,-1.2705,-1.2705,-1.2705,-1.2705,-1.2705,-1.2705,-1.2705,-1.2705,-1.2705,-1.2705,-1.2705,-1.2705,-1.2705,-1.2705,-1.2705,-1.2705,-1.2705,-1.2705,-1.2705,-1.2705,-1.2705,-1.2705,-1.2705,-1.2705,-1.2705,-1.2705,-1.2705,-1.2705,-1.2705,-1.2705,-1.2705,-1.2705,-1.2705,-1.2705,-1.2705,-1.2705,-1.2705,-1.2705,-1.2705,-1.2705,-1.2705,-1.2705,-1.2705,-1.2705,-1.2705,-1.2705,-1.2705,-1.2705,-1.2705,-1.2705,-1.2705,-1.2705,-1.2705,-1.2705,-1.2705,-1.2705,-1.2705,-1.2705,-1.2705,-1.2705,-1.2705,-1.2705,-1.2705,-1.2705,-1.2705,-1.2705,-1.2705,-1.2705,-1.2705,-1.2705,-1.2705,-1.2705,-0.5469,-0.6332,-0.709,-0.7339,-0.8006,-0.8826,-0.9735,-0.9975,-1.0104,-1.0542,-1.1714,-1.2788,-1.3234,-1.4372,-1.5369,-1.5745,-1.5384,-1.5376,-1.6272,-1.5992,-1.6111,-1.7294,-1.7462,-1.7229,-1.6652,-1.6664,-1.6684,-1.6603,-1.6664,-1.7033,-1.7779,-1.6257,-1.5323,-1.5262,-1.3612,-1.2705,-1.2705,-1.2705,-1.2705,-1.2705,-1.2705,-1.2705,-1.2705,-1.2705,-1.2705,-1.2705,-1.2705,-1.2705,-1.2705,-1.2705,-1.2705,-1.2705,-1.2705,-1.2705,-1.2705,-1.2705,-1.2705,-1.2705,-1.2705,-1.2705,-1.2705,-1.2705,-1.2705,-1.2705,-1.2705,-1.2705,-1.2705,-1.2705,-1.2705,-1.2705,-1.2705,-1.2705,-1.2705,-1.2705,-1.2705,-1.2705,-1.2705,-1.2705,-1.2705,-1.2705,-1.2705,-1.2705,-1.2705,-1.2705,-1.2705,-1.2705,-1.2705,-1.2705,-1.2705,-1.2705,-1.2705,-1.2705,-1.2705,-1.2705,-1.2705,-1.2705,-1.2705,-1.2705,-1.2705,-1.2705,-1.2705,-1.2705,-1.2705,-1.2705,-1.2705,-1.2705,-1.2705,-1.2705,-1.2705,-1.2705,-1.2705,-1.2705,-0.5244,-0.5954,-0.6692,-0.7258,-0.8348,-0.9474,-1.0202,-1.0494,-1.0804,-1.1527,-1.2421,-1.3313,-1.4137,-1.505,-1.5703,-1.5788,-1.5705,-1.5804,-1.6329,-1.6303,-1.6434,-1.6976,-1.7038,-1.6711,-1.5919,-1.6467,-1.6564,-1.588,-1.6459,-1.6766,-1.6513,-1.5511,-1.4727,-1.4308,-1.3252,-1.2705,-1.2705,-1.2705,-1.2705,-1.2705,-1.2705,-1.2705,-1.2705,-1.2705,-1.2705,-1.2705,-1.2705,-1.2705,-1.2705,-1.2705,-1.2705,-1.2705,-1.2705,-1.2705,-1.2705,-1.2705,-1.2705,-1.2705,-1.2705,-1.2705,-1.2705,-1.2705,-1.2705,-1.2705,-1.2705,-1.2705,-1.2705,-1.2705,-1.2705,-1.2705,-1.2705,-1.2705,-1.2705,-1.2705,-1.2705,-1.2705,-1.2705,-1.2705,-1.2705,-1.2705,-1.2705,-1.2705,-1.2705,-1.2705,-1.2705,-1.2705,-1.2705,-1.2705,-1.2705,-1.2705,-1.2705,-1.2705,-1.2705,-1.2705,-1.2705,-1.2705,-1.2705,-1.2705,-1.2705,-1.2705,-1.2705,-1.2705,-1.2705,-1.2705,-1.2705,-1.2705,-1.2705,-1.2705,-1.2705,-1.2705,-1.2705,-1.2705,-0.5302,-0.6008,-0.677,-0.7696,-0.8712,-0.9655,-1.0219,-1.06,-1.1055,-1.1966,-1.2787,-1.36,-1.444,-1.5258,-1.5805,-1.5805,-1.5805,-1.5865,-1.608,-1.6106,-1.6243,-1.662,-1.6626,-1.6499,-1.6258,-1.6626,-1.6701,-1.6256,-1.6645,-1.6606,-1.5939,-1.5208,-1.4511,-1.3876,-1.3098,-1.2705,-1.2705,-1.2705,-1.2705,-1.2705,-1.2705,-1.2705,-1.2705,-1.2705,-1.2705,-1.2705,-1.2705,-1.2705,-1.2705,-1.2705,-1.2705,-1.2705,-1.2705,-1.2705,-1.2705,-1.2705,-1.2705,-1.2705,-1.2705,-1.2705,-1.2705,-1.2705,-1.2705,-1.2705,-1.2705,-1.2705,-1.2705,-1.2705,-1.2705,-1.2705,-1.2705,-1.2705,-1.2705,-1.2705,-1.2705,-1.2705,-1.2705,-1.2705,-1.2705,-1.2705,-1.2705,-1.2705,-1.2705,-1.2705,-1.2705,-1.2705,-1.2705,-1.2705,-1.2705,-1.2705,-1.2705,-1.2705,-1.2705,-1.2705,-1.2705,-1.2705,-1.2705,-1.2705,-1.2705,-1.2705,-1.2705,-1.2705,-1.2705,-1.2705,-1.2705,-1.2705,-1.2705,-1.2705,-1.2705,-1.2705,-1.2705,-1.2705,-0.5236,-0.604,-0.6945,-0.8194,-0.8964,-0.9568,-1.0079,-1.0509,-1.1113,-1.2266,-1.3043,-1.3698,-1.4304,-1.5169,-1.5744,-1.5611,-1.5708,-1.5805,-1.5805,-1.5805,-1.5917,-1.6261,-1.6133,-1.6197,-1.6658,-1.6582,-1.6563,-1.6711,-1.6703,-1.6326,-1.5432,-1.4908,-1.4258,-1.3425,-1.2848,-1.2572,-1.2572,-1.2614,-1.2638,-1.2638,-1.2681,-1.2705,-1.2705,-1.2705,-1.2705,-1.2705,-1.2705,-1.2705,-1.2705,-1.2705,-1.2705,-1.2705,-1.2705,-1.2705,-1.2705,-1.2705,-1.2705,-1.2705,-1.2705,-1.2705,-1.2705,-1.2705,-1.2705,-1.2705,-1.2705,-1.2705,-1.2705,-1.2705,-1.2705,-1.2705,-1.2705,-1.2705,-1.2705,-1.2705,-1.2705,-1.2705,-1.2705,-1.2705,-1.2705,-1.2705,-1.2705,-1.2705,-1.2705,-1.2705,-1.2705,-1.2705,-1.2705,-1.2705,-1.2705,-1.2705,-1.2705,-1.2705,-1.2705,-1.2705,-1.2705,-1.2705,-1.2705,-1.2705,-1.2705,-1.2705,-1.2705,-1.2705,-1.2705,-1.2705,-1.2705,-1.2705,-1.2705,-1.2705,-1.2705,-1.2705,-1.2705,-1.2705,-0.4391,-0.5442,-0.6778,-0.8151,-0.8836,-0.9341,-1.0035,-1.0466,-1.1215,-1.2987,-1.3426,-1.3535,-1.3618,-1.483,-1.5576,-1.4867,-1.5355,-1.5805,-1.5805,-1.5805,-1.5822,-1.5874,-1.5252,-1.5118,-1.5871,-1.5327,-1.5193,-1.5889,-1.5951,-1.5421,-1.4208,-1.4052,-1.3444,-1.2183,-1.2045,-1.2009,-1.2009,-1.2231,-1.2346,-1.2367,-1.2596,-1.2705,-1.2705,-1.2705,-1.2705,-1.2705,-1.2705,-1.2705,-1.2705,-1.2705,-1.2705,-1.2705,-1.2705,-1.2705,-1.2705,-1.2705,-1.2705,-1.2705,-1.2705,-1.2705,-1.2705,-1.2705,-1.2705,-1.2705,-1.2705,-1.2705,-1.2705,-1.2705,-1.2705,-1.2705,-1.2705,-1.2705,-1.2705,-1.2705,-1.2705,-1.2705,-1.2705,-1.2705,-1.2705,-1.2705,-1.2705,-1.2705,-1.2705,-1.2705,-1.2705,-1.2705,-1.2705,-1.2705,-1.2705,-1.2705,-1.2705,-1.2705,-1.2705,-1.2705,-1.2705,-1.2705,-1.2705,-1.2705,-1.2705,-1.2705,-1.2705,-1.2705,-1.2705,-1.2705,-1.2705,-1.2705,-1.2705,-1.2705,-1.2705,-1.2705,-1.2705,-1.2705,-0.4835,-0.5814,-0.6845,-0.7989,-0.8691,-0.9246,-0.9805,-1.0319,-1.0929,-1.1765,-1.2415,-1.3098,-1.3962,-1.4671,-1.501,-1.4663,-1.5275,-1.5805,-1.5805,-1.5805,-1.5805,-1.5805,-1.5089,-1.4921,-1.5726,-1.5072,-1.4939,-1.5744,-1.539,-1.4707,-1.3734,-1.3386,-1.2754,-1.1716,-1.1822,-1.19,-1.19,-1.2015,-1.2147,-1.2292,-1.2433,-1.256,-1.2705,-1.2705,-1.2705,-1.2705,-1.2705,-1.2705,-1.2705,-1.2705,-1.2705,-1.2705,-1.2705,-1.2705,-1.2705,-1.2705,-1.2705,-1.2705,-1.2705,-1.2705,-1.2705,-1.2705,-1.2705,-1.2705,-1.2705,-1.2705,-1.2705,-1.2705,-1.2705,-1.2705,-1.2705,-1.2705,-1.2705,-1.2705,-1.2705,-1.2705,-1.2705,-1.2705,-1.2705,-1.2705,-1.2705,-1.2705,-1.2705,-1.2705,-1.2705,-1.2705,-1.2705,-1.2705,-1.2705,-1.2705,-1.2705,-1.2705,-1.2705,-1.2705,-1.2705,-1.2705,-1.2705,-1.2705,-1.2705,-1.2705,-1.2705,-1.2705,-1.2705,-1.2705,-1.2705,-1.2705,-1.2705,-1.2705,-1.2705,-1.2705,-1.2705,-1.2705,-0.5039,-0.5782,-0.6424,-0.7486,-0.8231,-0.8859,-0.9424,-0.9992,-1.0495,-1.0835,-1.1386,-1.2215,-1.3555,-1.4091,-1.4322,-1.4322,-1.4982,-1.5576,-1.5761,-1.5611,-1.5505,-1.5505,-1.4796,-1.4635,-1.5426,-1.4956,-1.4939,-1.5744,-1.5054,-1.4286,-1.3535,-1.2935,-1.2234,-1.1425,-1.1593,-1.1695,-1.1695,-1.1767,-1.1966,-1.2292,-1.2292,-1.2451,-1.2705,-1.2705,-1.2705,-1.2705,-1.2705,-1.2705,-1.2705,-1.2705,-1.2705,-1.2705,-1.2705,-1.2705,-1.2705,-1.2705,-1.2705,-1.2705,-1.2705,-1.2705,-1.2705,-1.2705,-1.2705,-1.2705,-1.2705,-1.2705,-1.2705,-1.2705,-1.2705,-1.2705,-1.2705,-1.2705,-1.2705,-1.2705,-1.2705,-1.2705,-1.2705,-1.2705,-1.2705,-1.2705,-1.2705,-1.2705,-1.2705,-1.2705,-1.2705,-1.2705,-1.2705,-1.2705,-1.2705,-1.2705,-1.2705,-1.2705,-1.2705,-1.2705,-1.2705,-1.2705,-1.2705,-1.2705,-1.2705,-1.2705,-1.2705,-1.2705,-1.2705,-1.2705,-1.2705,-1.2705,-1.2705,-1.2705,-1.2705,-1.2705,-1.2705,-1.2705,-0.4328,-0.4682,-0.5036,-0.6432,-0.7234,-0.7928,-0.8901,-0.9359,-0.9921,-1.1197,-1.0899,-1.0658,-1.1501,-1.271,-1.3564,-1.3564,-1.4178,-1.4939,-1.5691,-1.5143,-1.4663,-1.4663,-1.4016,-1.3854,-1.4583,-1.4619,-1.4939,-1.5744,-1.5054,-1.4286,-1.3535,-1.2753,-1.1955,-1.1154,-1.1129,-1.1135,-1.1135,-1.14,-1.1786,-1.2292,-1.2292,-1.2451,-1.2705,-1.2705,-1.2705,-1.2705,-1.2705,-1.2705,-1.2705,-1.2705,-1.2705,-1.2705,-1.2705,-1.2705,-1.2705,-1.2705,-1.2705,-1.2705,-1.2705,-1.2705,-1.2705,-1.2705,-1.2705,-1.2705,-1.2705,-1.2705,-1.2705,-1.2705,-1.2705,-1.2705,-1.2705,-1.2705,-1.2705,-1.2705,-1.2705,-1.2705,-1.2705,-1.2705,-1.2705,-1.2705,-1.2705,-1.2705,-1.2705,-1.2705,-1.2705,-1.2705,-1.2705,-1.2705,-1.2705,-1.2705,-1.2705,-1.2705,-1.2705,-1.2705,-1.2705,-1.2705,-1.2705,-1.2705,-1.2705,-1.2705,-1.2705,-1.2705,-1.2705,-1.2705,-1.2705,-1.2705,-1.2705,-1.2705,-1.2705,-1.2705,-1.2705,-1.2705,-0.3985,-0.4498,-0.511,-0.6184,-0.6892,-0.7545,-0.834,-0.9029,-0.9629,-1.0128,-1.0261,-1.0396,-1.0684,-1.1691,-1.2467,-1.2467,-1.3675,-1.4699,-1.4992,-1.477,-1.4601,-1.4601,-1.3491,-1.3219,-1.4476,-1.4171,-1.4214,-1.4974,-1.4322,-1.3546,-1.2769,-1.1966,-1.1409,-1.1111,-1.1093,-1.1093,-1.1093,-1.1195,-1.143,-1.1792,-1.1792,-1.2015,-1.243,-1.243,-1.2542,-1.2705,-1.2705,-1.2705,-1.2705,-1.2705,-1.2705,-1.2705,-1.2705,-1.2705,-1.2705,-1.2705,-1.2705,-1.2705,-1.2705,-1.2705,-1.2705,-1.2705,-1.2705,-1.2705,-1.2705,-1.2705,-1.2705,-1.2705,-1.2705,-1.2705,-1.2705,-1.2705,-1.2705,-1.2705,-1.2705,-1.2705,-1.2705,-1.2705,-1.2705,-1.2705,-1.2705,-1.2705,-1.2705,-1.2705,-1.2705,-1.2705,-1.2705,-1.2705,-1.2705,-1.2705,-1.2705,-1.2705,-1.2705,-1.2705,-1.2705,-1.2705,-1.2705,-1.2705,-1.2705,-1.2705,-1.2705,-1.2705,-1.2705,-1.2705,-1.2705,-1.2705,-1.2705,-1.2705,-1.2705,-1.2705,-1.2705,-1.2705,-0.3618,-0.4139,-0.4842,-0.5742,-0.6259,-0.6828,-0.7866,-0.8503,-0.896,-0.9306,-0.9648,-0.9925,-1.0015,-1.0698,-1.1342,-1.1714,-1.2759,-1.3694,-1.4047,-1.3866,-1.3726,-1.3821,-1.2915,-1.2703,-1.3727,-1.3618,-1.3691,-1.4189,-1.3528,-1.2868,-1.2342,-1.1539,-1.1093,-1.1093,-1.1093,-1.1093,-1.1093,-1.1093,-1.1231,-1.1495,-1.1495,-1.1737,-1.2165,-1.2165,-1.2304,-1.2572,-1.2572,-1.262,-1.2705,-1.2705,-1.2705,-1.2705,-1.2705,-1.2705,-1.2705,-1.2705,-1.2705,-1.2705,-1.2705,-1.2705,-1.2705,-1.2705,-1.2705,-1.2705,-1.2705,-1.2705,-1.2705,-1.2705,-1.2705,-1.2705,-1.2705,-1.2705,-1.2705,-1.2705,-1.2705,-1.2705,-1.2705,-1.2705,-1.2705,-1.2705,-1.2705,-1.2705,-1.2705,-1.2705,-1.2705,-1.2705,-1.2705,-1.2705,-1.2705,-1.2705,-1.2705,-1.2705,-1.2705,-1.2705,-1.2705,-1.2705,-1.2705,-1.2705,-1.2705,-1.2705,-1.2705,-1.2705,-1.2705,-1.2705,-1.2705,-1.2705,-1.2705,-1.2705,-1.2705,-1.2705,-1.2705,-1.2705,0.0,0.0,0.0,-0.5044,-0.528,-0.5747,-0.7454,-0.7703,-0.7855,-0.8857,-0.9059,-0.9149,-0.9422,-0.9703,-1.0229,-1.1255,-1.1475,-1.1864,-1.2911,-1.2382,-1.1982,-1.2258,-1.2273,-1.2273,-1.2305,-1.3007,-1.3455,-1.3455,-1.2739,-1.228,-1.2268,-1.1521,-1.1093,-1.1093,-1.1093,-1.1093,-1.1093,-1.1093,-1.1225,-1.1496,-1.1496,-1.1635,-1.1888,-1.1888,-1.2033,-1.228,-1.2312,-1.2457,-1.2693,-1.2699,-1.2705,-1.2705,-1.2705,-1.2705,-1.2705,-1.2705,-1.2705,-1.2705,-1.2705,-1.2705,-1.2705,-1.2705,-1.2705,-1.2705,-1.2705,-1.2705,-1.2705,-1.2705,-1.2705,-1.2705,-1.2705,-1.2705,-1.2705,-1.2705,-1.2705,-1.2705,-1.2705,-1.2705,-1.2705,-1.2705,-1.2705,-1.2705,-1.2705,-1.2705,-1.2705,-1.2705,-1.2705,-1.2705,-1.2705,-1.2705,-1.2705,-1.2705,-1.2705,-1.2717,-1.2747,-1.2723,-1.2705,-1.2717,-1.2711,-1.2705,-1.2705,-1.2705,-1.2705,-1.2705,-1.2705,-1.2705,-1.2705,-1.2705,-1.2705,-1.2705,-1.2705,-1.2705,-0.3522,0.0,0.0,0.0,0.0,0.0,-0.6395,-0.6742,-0.7128,-0.8045,-0.8239,-0.8377,-0.8833,-0.9143,-0.942,-0.9708,-1.0741,-1.1601,-1.1895,-1.1754,-1.172,-1.1986,-1.1498,-1.1447,-1.2223,-1.25,-1.2629,-1.2629,-1.2427,-1.2058,-1.1465,-1.1223,-1.1093,-1.1093,-1.1093,-1.1093,-1.1093,-1.1093,-1.1129,-1.1207,-1.1207,-1.1352,-1.1617,-1.1617,-1.1761,-1.2021,-1.2213,-1.2334,-1.2439,-1.2626,-1.2705,-1.2705,-1.2705,-1.2705,-1.2705,-1.2705,-1.2705,-1.2705,-1.2705,-1.2705,-1.2705,-1.2705,-1.2705,-1.2705,-1.2705,-1.2705,-1.2705,-1.2705,-1.2705,-1.2705,-1.2705,-1.2705,-1.2705,-1.2705,-1.2705,-1.2705,-1.2705,-1.2705,-1.2705,-1.2705,-1.2705,-1.2705,-1.2705,-1.2705,-1.2705,-1.2705,-1.2705,-1.2705,-1.2705,-1.2705,-1.2705,-1.2705,-1.2705,-1.3019,-1.3791,-1.3151,-1.2792,-1.3041,-1.2828,-1.2705,-1.2705,-1.2705,-1.2705,-1.2705,-1.2705,-1.2705,-1.2705,-1.2705,-1.2705,-1.2705,-1.2705,-1.2705,0.0,0.0,0.0,-0.4727,0.0,0.0,-0.6188,-0.6372,-0.6649,-0.7686,-0.7901,-0.8057,-0.8593,-0.883,-0.8933,-0.8933,-0.9819,-1.0587,-1.0792,-1.0831,-1.0934,-1.1195,-1.0821,-1.082,-1.1564,-1.1626,-1.1677,-1.1793,-1.1799,-1.1595,-1.113,-1.1093,-1.1093,-1.1093,-1.1093,-1.1093,-1.1093,-1.1093,-1.1093,-1.1093,-1.1093,-1.1177,-1.134,-1.134,-1.1484,-1.1755,-1.2015,-1.2189,-1.231,-1.2596,-1.2705,-1.2705,-1.2705,-1.2705,-1.2705,-1.2705,-1.2705,-1.2705,-1.2705,-1.2705,-1.2705,-1.2705,-1.2705,-1.2705,-1.2705,-1.2705,-1.2705,-1.2705,-1.2705,-1.2705,-1.2705,-1.2705,-1.2705,-1.2705,-1.2705,-1.2705,-1.2705,-1.2705,-1.2705,-1.2705,-1.2705,-1.2705,-1.2705,-1.2705,-1.2705,-1.2705,-1.2705,-1.2705,-1.2705,-1.2705,-1.2705,-1.2705,-1.2705,-1.3133,-1.4208,-1.3725,-1.3266,-1.3015,-1.2912,-1.2825,-1.2711,-1.2705,-1.2705,-1.2705,-1.2705,-1.2705,-1.2705,-1.2705,-1.2705,-1.2705,-1.2705,-1.294,-0.4571,-0.4774,0.0,-0.5265,-0.5158,0.0,-0.643,-0.6319,-0.6333,-0.753,-0.7735,-0.7861,-0.8427,-0.8554,-0.8578,-0.8578,-0.8842,-0.9233,-0.9745,-0.9841,-0.9961,-1.022,-1.025,-1.0352,-1.0635,-1.0659,-1.0755,-1.099,-1.1032,-1.1063,-1.1093,-1.1093,-1.1093,-1.1093,-1.1093,-1.1093,-1.1093,-1.1093,-1.1093,-1.1093,-1.1093,-1.1093,-1.1093,-1.1093,-1.1225,-1.1459,-1.1743,-1.2009,-1.2268,-1.2548,-1.2681,-1.2705,-1.2705,-1.2705,-1.2705,-1.2705,-1.2705,-1.2705,-1.2705,-1.2705,-1.2705,-1.2705,-1.2705,-1.2705,-1.2705,-1.2705,-1.2705,-1.2705,-1.2705,-1.2705,-1.2705,-1.2705,-1.2705,-1.2705,-1.2705,-1.2705,-1.2705,-1.2705,-1.2705,-1.2705,-1.2705,-1.2705,-1.2705,-1.2705,-1.2705,-1.2705,-1.2807,-1.288,-1.288,-1.2777,-1.2705,-1.2705,-1.2813,-1.3266,-1.4214,-1.4298,-1.3888,-1.294,-1.3021,-1.2985,-1.2717,-1.2741,-1.2747,-1.2705,-1.2705,-1.2705,-1.2705,-1.2705,-1.2705,-1.2705,-1.2825,-1.3393,-0.5496,-0.5615,-0.5723,-0.5379,-0.555,0.0,-0.5898,-0.5962,-0.6195,-0.6875,-0.6667,-0.6606,-0.7346,-0.7673,-0.7813,-0.7813,-0.8359,-0.889,-0.9209,-0.945,-0.9674,-0.9949,-0.9979,-1.0081,-1.0346,-1.0388,-1.0394,-1.0442,-1.0659,-1.087,-1.1081,-1.1093,-1.1093,-1.1093,-1.1093,-1.1093,-1.1093,-1.1093,-1.1093,-1.1093,-1.1093,-1.1093,-1.1093,-1.1093,-1.1123,-1.1189,-1.1466,-1.1737,-1.2002,-1.2262,-1.2518,-1.2705,-1.2705,-1.2705,-1.2705,-1.2705,-1.2705,-1.2705,-1.2705,-1.2705,-1.2705,-1.2705,-1.2705,-1.2705,-1.2705,-1.2705,-1.2705,-1.2705,-1.2705,-1.2705,-1.2705,-1.2705,-1.2705,-1.2705,-1.2705,-1.2705,-1.2705,-1.2705,-1.2705,-1.2705,-1.2705,-1.2705,-1.2705,-1.2705,-1.2705,-1.2705,-1.3435,-1.3984,-1.3984,-1.3236,-1.2705,-1.2705,-1.3471,-1.4069,-1.428,-1.4298,-1.4208,-1.3996,-1.3485,-1.3045,-1.2717,-1.2967,-1.2985,-1.2711,-1.2705,-1.2705,-1.2705,-1.2705,-1.2705,-1.2723,-1.3586,-1.4099,-0.6138,-0.6202,-0.6296,-0.6055,-0.6122,0.0,0.0,-0.6168,-0.6244,-0.6913,-0.6707,-0.6605,-0.7273,-0.7504,-0.7595,-0.7595,-0.8106,-0.8497,-0.8497,-0.8845,-0.9146,-0.9293,-0.9426,-0.9606,-0.9877,-1.0027,-1.0154,-1.0286,-1.0412,-1.0623,-1.0882,-1.09,-1.096,-1.1105,-1.1093,-1.1093,-1.1093,-1.1093,-1.1093,-1.1093,-1.1093,-1.1093,-1.1093,-1.1093,-1.1093,-1.1111,-1.1388,-1.1587,-1.1725,-1.199,-1.2256,-1.2503,-1.265,-1.2705,-1.2705,-1.2705,-1.2705,-1.2705,-1.2705,-1.2705,-1.2705,-1.2705,-1.2705,-1.2705,-1.2705,-1.2705,-1.2705,-1.2705,-1.2705,-1.2705,-1.2705,-1.2705,-1.2705,-1.2705,-1.2705,-1.2705,-1.2705,-1.2705,-1.2705,-1.2705,-1.2705,-1.2705,-1.2705,-1.2705,-1.2705,-1.2705,-1.3616,-1.4298,-1.4298,-1.3827,-1.3495,-1.3495,-1.3978,-1.4298,-1.4298,-1.4298,-1.4298,-1.4298,-1.3943,-1.3424,-1.2735,-1.3117,-1.3147,-1.2711,-1.2705,-1.2964,-1.3495,-1.3495,-1.3495,-1.3507,-1.4045,-1.4298,-0.6656,-0.6684,-0.6809,-0.6718,-0.673,-0.6762,0.0,0.0,0.0,-0.7073,-0.6949,-0.6893,-0.7381,-0.7455,-0.7443,-0.7443,-0.7853,-0.8054,-0.7729,-0.8151,-0.8518,-0.8605,-0.886,-0.9113,-0.932,-0.9488,-0.9775,-1.019,-1.0124,-1.0226,-1.0605,-1.0677,-1.0797,-1.1014,-1.1069,-1.1093,-1.1093,-1.1093,-1.1093,-1.1093,-1.1093,-1.1093,-1.1093,-1.1093,-1.1093,-1.1105,-1.1334,-1.1441,-1.1526,-1.1737,-1.2009,-1.231,-1.2548,-1.2656,-1.2705,-1.2705,-1.2705,-1.2705,-1.2705,-1.2705,-1.2705,-1.2705,-1.2705,-1.2705,-1.2705,-1.2705,-1.2705,-1.2705,-1.2705,-1.2705,-1.2705,-1.2705,-1.2705,-1.2705,-1.2705,-1.2705,-1.2705,-1.2705,-1.2705,-1.2705,-1.2705,-1.2705,-1.2705,-1.2705,-1.2705,-1.2705,-1.3616,-1.4298,-1.4298,-1.4298,-1.4298,-1.4298,-1.4298,-1.4298,-1.4298,-1.4298,-1.4298,-1.4298,-1.4298,-1.3912,-1.3043,-1.3429,-1.3459,-1.3019,-1.3012,-1.3435,-1.4298,-1.4298,-1.4298,-1.4298,-1.4298,-1.4298,-0.7079,-0.7173,-0.7226,-0.6803,-0.7179,-0.7466,-0.6794,0.0,-0.7091,-0.6826,0.0,-0.662,-0.693,0.0,0.0,-0.6896,-0.7328,-0.7497,-0.7,-0.7388,-0.7885,-0.8293,-0.8581,-0.8749,-0.8794,-0.8599,-0.8888,-0.9877,-0.9504,-0.9558,-1.0315,-1.0574,-1.0713,-1.0743,-1.0972,-1.1093,-1.1093,-1.1093,-1.1093,-1.1093,-1.1093,-1.1093,-1.1093,-1.1093,-1.1093,-1.1093,-1.1123,-1.1285,-1.1495,-1.1525,-1.1846,-1.2298,-1.2322,-1.2499,-1.2705,-1.2705,-1.2705,-1.2705,-1.2705,-1.2705,-1.2705,-1.2705,-1.2705,-1.2705,-1.2705,-1.2705,-1.2705,-1.2705,-1.2705,-1.2705,-1.2705,-1.2705,-1.2705,-1.2705,-1.2705,-1.2705,-1.2705,-1.2705,-1.2705,-1.2705,-1.2705,-1.2705,-1.2705,-1.2705,-1.2705,-1.2705,-1.3616,-1.4298,-1.4298,-1.4298,-1.4298,-1.4298,-1.4298,-1.4298,-1.4298,-1.4298,-1.4298,-1.4298,-1.4298,-1.4244,-1.4123,-1.4177,-1.4177,-1.4117,-1.4117,-1.4177,-1.4298,-1.4298,-1.4298,-1.4298,-1.4298,-1.4298,-0.7294,-0.7328,-0.7392,-0.7342,-0.7449,-0.748,-0.7136,-0.7058,-0.706,-0.705,0.0,0.0,0.0,0.0,0.0,0.0,-0.7218,-0.7182,-0.6642,-0.6891,-0.7267,-0.7617,-0.7896,-0.8166,-0.8437,-0.8371,-0.8551,-0.9161,-0.8845,-0.8978,-0.9799,-1.0088,-1.037,-1.0695,-1.0954,-1.1093,-1.1093,-1.1093,-1.1093,-1.1093,-1.1093,-1.1093,-1.1093,-1.1093,-1.1093,-1.1093,-1.1093,-1.1159,-1.1267,-1.1267,-1.1587,-1.2063,-1.2063,-1.2337,-1.2705,-1.2705,-1.2705,-1.2705,-1.2705,-1.2705,-1.2705,-1.2705,-1.2705,-1.2705,-1.2705,-1.2705,-1.2705,-1.2705,-1.2705,-1.2705,-1.2705,-1.2705,-1.2705,-1.2705,-1.2705,-1.2705,-1.2705,-1.2705,-1.2705,-1.2705,-1.3206,-1.3628,-1.3628,-1.3628,-1.3628,-1.3628,-1.4008,-1.4298,-1.4298,-1.4298,-1.4298,-1.4298,-1.4298,-1.4298,-1.4298,-1.4298,-1.4298,-1.4298,-1.4298,-1.4298,-1.4298,-1.4298,-1.4298,-1.4298,-1.4298,-1.4298,-1.4298,-1.4298,-1.4298,-1.4298,-1.4298,-1.4298,-0.7535,-0.7562,-0.7635,-0.7678,-0.7594,-0.7467,-0.7353,-0.7168,-0.7075,-0.7222,-0.7182,0.0,0.0,0.0,-0.72,-0.7128,0.0,-0.7018,-0.6478,-0.6569,-0.6757,-0.6963,-0.7285,-0.7655,-0.8068,-0.797,-0.8084,-0.8551,-0.8289,-0.8481,-0.9338,-0.9654,-1.0039,-1.0581,-1.0846,-1.102,-1.1093,-1.1093,-1.1093,-1.1093,-1.1093,-1.1093,-1.1093,-1.1093,-1.1093,-1.1093,-1.1093,-1.1093,-1.1093,-1.1093,-1.1412,-1.19,-1.19,-1.2219,-1.2705,-1.2705,-1.2705,-1.2705,-1.2705,-1.2705,-1.2705,-1.2705,-1.2705,-1.2705,-1.2705,-1.2705,-1.2705,-1.2705,-1.2705,-1.2705,-1.2705,-1.2705,-1.2705,-1.2705,-1.2705,-1.2705,-1.2705,-1.2705,-1.2705,-1.2705,-1.3568,-1.4298,-1.4298,-1.4298,-1.4298,-1.4298,-1.4298,-1.4298,-1.4298,-1.4298,-1.4298,-1.4298,-1.4298,-1.4298,-1.4298,-1.4298,-1.4298,-1.4298,-1.4298,-1.4298,-1.4298,-1.4298,-1.4298,-1.4298,-1.4298,-1.4298,-1.4298,-1.4298,-1.4298,-1.4298,-1.4298,-1.4298,-0.7864,-0.7982,-0.8052,-0.7546,-0.7594,-0.7666,-0.7217,-0.7254,-0.7337,-0.7147,-0.7409,-0.76,-0.7344,-0.7304,-0.721,0.0,-0.7068,0.0,0.0,-0.6412,-0.6418,-0.6424,-0.6896,-0.7322,-0.7595,-0.7158,-0.7255,-0.8239,-0.7883,-0.8054,-0.9053,-0.9362,-0.9752,-1.0292,-1.0581,-1.0834,-1.1105,-1.1093,-1.1093,-1.1093,-1.1093,-1.1093,-1.1093,-1.1093,-1.1093,-1.1093,-1.1093,-1.1093,-1.1093,-1.1093,-1.1412,-1.19,-1.19,-1.2219,-1.2705,-1.2705,-1.2705,-1.2705,-1.2705,-1.2705,-1.2705,-1.2705,-1.2705,-1.2705,-1.2705,-1.2705,-1.2705,-1.2705,-1.2705,-1.2705,-1.2705,-1.2705,-1.2705,-1.2705,-1.2705,-1.2705,-1.2705,-1.2705,-1.2705,-1.2705,-1.3568,-1.4298,-1.4298,-1.4298,-1.4298,-1.4298,-1.4298,-1.4298,-1.4298,-1.4298,-1.4298,-1.4298,-1.4298,-1.4298,-1.4298,-1.4298,-1.4298,-1.4298,-1.4298,-1.4298,-1.4298,-1.4298,-1.4298,-1.4298,-1.4298,-1.4298,-1.4298,-1.4298,-1.4298,-1.4298,-1.4298,-1.4298,-0.8084,-0.8132,-0.8154,-0.7982,-0.787,-0.7715,-0.7369,-0.7349,-0.7339,-0.7133,-0.7417,-0.7614,-0.7348,-0.7229,0.0,0.0,0.0,-0.648,0.0,-0.5638,-0.5574,-0.5841,-0.6345,-0.6703,-0.6794,-0.68,-0.7018,-0.7527,-0.7425,-0.7697,-0.853,-0.8999,-0.9486,-1.0021,-1.0472,-1.0828,-1.1105,-1.1093,-1.1093,-1.1093,-1.1093,-1.1093,-1.1093,-1.1093,-1.1093,-1.1093,-1.1093,-1.1093,-1.1093,-1.1093,-1.1412,-1.19,-1.19,-1.2219,-1.2705,-1.2705,-1.2705,-1.2705,-1.2705,-1.2705,-1.2705,-1.2705,-1.2705,-1.2705,-1.2705,-1.2705,-1.2705,-1.2705,-1.2705,-1.2705,-1.2705,-1.2705,-1.2705,-1.2705,-1.2705,-1.2705,-1.2705,-1.287,-1.3081,-1.3196,-1.3809,-1.4298,-1.4298,-1.4298,-1.4298,-1.4298,-1.4298,-1.4298,-1.4298,-1.4298,-1.4298,-1.4298,-1.4298,-1.4298,-1.4298,-1.4298,-1.4298,-1.4298,-1.4298,-1.4298,-1.4298,-1.4298,-1.4298,-1.4298,-1.4298,-1.4298,-1.4298,-1.4298,-1.4298,-1.4298,-1.4298,-1.4298,-0.8776,-0.8776,-0.8754,-0.8681,-0.8537,-0.8269,-0.7768,-0.7726,-0.7694,-0.7375,-0.7463,-0.7613,-0.7647,-0.7394,-0.7167,0.0,0.0,0.0,0.0,-0.5375,-0.5345,-0.5506,-0.5961,-0.629,-0.6393,-0.6466,-0.6708,-0.7164,-0.7115,-0.7418,-0.8257,-0.8722,-0.9245,-0.9883,-1.0339,-1.0737,-1.1105,-1.1093,-1.1093,-1.1093,-1.1093,-1.1093,-1.1093,-1.1093,-1.1093,-1.1093,-1.1093,-1.1093,-1.1117,-1.1201,-1.1502,-1.1912,-1.2009,-1.2304,-1.2705,-1.2705,-1.2705,-1.2705,-1.2705,-1.2705,-1.2705,-1.2705,-1.2705,-1.2705,-1.2705,-1.2705,-1.2705,-1.2705,-1.2705,-1.2705,-1.2705,-1.2705,-1.2705,-1.2705,-1.2705,-1.2705,-1.2705,-1.2951,-1.3282,-1.3562,-1.3978,-1.4298,-1.4298,-1.4298,-1.4298,-1.4298,-1.4298,-1.4298,-1.4298,-1.4298,-1.4298,-1.4298,-1.4298,-1.4298,-1.4298,-1.4298,-1.4298,-1.4298,-1.4298,-1.4298,-1.4298,-1.4298,-1.4298,-1.4298,-1.4298,-1.4298,-1.4298,-1.4298,-1.4298,-1.4298,-1.4298,-1.4298]},{"header":{"parameterUnit":"m.s-1","parameterCategory":1,"la1":30.6,"la2":29.2853,"lo1":-89.7004,"lo2":-87.6739,"dy":0.0162,"dx":0.0183,"nx":112,"ny":82,"refTime":"2024-08-25T06:00:00:Z","depth":0,"parameterNumber":3,"parameterNumberName":"V-component_of_WINDS"},"data":[0.0,0.0,0.0,0.0,0.0,0.0,0.0,0.0,0.0,0.0,0.0,0.0,0.0,0.0,0.0,0.0,0.0,0.0,0.0,0.0,0.0,0.0,0.0,0.0,0.0,0.0,0.0,0.0,0.0,0.0,0.0,0.0,0.0,0.0,0.0,0.0,0.0,0.0,0.0,0.0,0.0,0.0,0.0,0.0,0.0,0.0,0.0,0.0,0.0,0.0,0.0,0.0,0.0,0.0,0.0,0.0,0.0,0.0,0.0,0.0,0.0,0.0,0.0,0.0,0.0,0.0,0.0,0.0,0.0,0.0,0.0,0.0,0.0,0.0,0.0,0.0,0.0,0.0,0.0,0.0,0.0,0.0,0.0,0.0,0.0,0.0,0.0,0.0,0.0,0.0,1.5403,1.6737,1.8759,1.999,1.999,1.999,1.8562,1.5209,0.0,0.0,0.0,0.0,0.0,0.0,0.0,0.0,0.0,0.0,0.0,0.0,0.0,0.0,0.0,0.0,0.0,0.0,0.0,0.0,0.0,0.0,0.0,0.0,0.0,0.0,0.0,0.0,0.0,0.0,0.0,0.0,0.0,0.0,0.0,0.0,0.0,0.0,0.0,0.0,0.0,0.0,0.0,0.0,0.0,0.0,0.0,0.0,0.0,0.0,0.0,0.0,0.0,0.0,0.0,0.0,0.0,0.0,0.0,0.0,0.0,0.0,0.0,0.0,0.0,0.0,0.0,0.0,0.0,0.0,0.0,0.0,0.0,0.0,0.0,0.0,0.0,0.0,0.0,0.0,0.0,0.0,0.0,0.0,0.0,0.0,0.0,0.0,0.0,0.0,0.0,0.0,0.0,0.0,0.0,0.0,0.0,0.0,0.0,0.0,0.0,0.0,0.0,0.0,1.6078,1.9119,1.9788,1.9996,1.9996,1.9996,1.8577,1.5207,0.0,0.0,0.0,0.0,0.0,0.0,0.0,0.0,0.0,0.0,0.0,0.0,0.0,0.0,0.0,0.0,0.0,0.0,0.0,0.0,0.0,0.0,0.0,0.0,0.0,0.0,0.0,0.0,0.0,0.0,0.0,0.0,0.0,0.0,0.0,0.0,0.0,0.0,0.0,0.0,0.0,0.0,0.0,0.0,0.0,0.0,0.0,0.0,0.0,0.0,0.0,0.0,0.0,0.0,0.0,0.0,0.0,0.0,0.0,0.0,0.0,0.0,0.0,0.0,0.0,0.0,0.0,0.0,0.0,0.0,0.0,0.0,0.0,0.0,0.0,0.0,0.0,0.0,0.0,0.0,0.0,0.0,0.0,0.0,0.0,0.0,0.0,0.0,0.0,0.0,0.0,0.0,0.0,0.0,0.0,0.0,0.0,0.0,0.0,0.0,0.0,0.0,0.0,1.4757,1.6769,1.9694,2.0007,2.0004,2.0001,2.0007,1.8571,1.5209,1.4995,0.0,0.0,0.0,0.0,0.0,0.0,0.0,0.0,0.0,0.0,0.0,0.0,0.0,0.0,0.0,0.0,0.0,0.0,0.0,0.0,0.0,0.0,0.0,0.0,0.0,0.0,0.0,0.0,0.0,0.0,0.0,0.0,0.0,0.0,0.0,0.0,0.0,0.0,0.0,0.0,0.0,0.0,0.0,0.0,0.0,0.0,0.0,0.0,0.0,0.0,0.0,0.0,0.0,0.0,0.0,0.0,0.0,0.0,0.0,0.0,0.0,0.0,0.0,0.0,0.0,0.0,0.0,0.0,0.0,0.0,0.0,0.0,0.0,0.0,0.0,0.0,0.0,0.0,0.0,0.0,0.0,0.0,0.0,0.0,0.0,0.0,0.0,0.0,0.0,0.0,0.0,0.0,0.0,0.0,0.0,0.0,0.0,0.0,0.0,0.0,0.0,0.0,1.69,1.7687,1.9775,2.0005,2.0,2.0004,1.9639,1.8156,1.5196,1.4447,0.0,0.0,0.0,0.0,0.0,0.0,0.0,0.0,0.0,0.0,0.0,0.0,0.0,0.0,0.0,0.0,0.0,0.0,0.0,0.0,0.0,0.0,0.0,0.0,0.0,0.0,0.0,0.0,0.0,0.0,0.0,0.0,0.0,0.0,0.0,0.0,0.0,0.0,0.0,0.0,0.0,0.0,0.0,0.0,0.0,0.0,0.0,0.0,0.0,0.0,0.0,0.0,0.0,0.0,0.0,0.0,0.0,0.0,0.0,0.0,0.0,0.0,0.0,0.0,0.0,0.0,0.0,0.0,0.0,0.0,0.0,0.0,0.0,0.0,0.0,0.0,0.0,0.0,0.0,0.0,0.0,0.0,0.0,0.0,0.0,0.0,0.0,0.0,0.0,0.0,0.0,0.0,0.0,0.0,0.0,0.0,0.0,0.0,0.0,0.0,0.0,0.0,1.7187,1.8976,1.9892,2.0004,2.0004,2.0004,1.8567,1.6918,1.5117,1.284,0.0,0.0,0.0,0.0,0.0,0.0,0.0,0.0,0.0,0.0,0.0,0.0,0.0,0.0,0.0,0.0,0.0,0.0,0.0,0.0,0.0,0.0,0.0,0.0,0.0,0.0,0.0,0.0,0.0,0.0,0.0,0.0,0.0,0.0,0.0,0.0,0.0,0.0,0.0,0.0,0.0,0.0,0.0,0.0,0.0,0.0,0.0,0.0,0.0,0.0,0.0,0.0,0.0,0.0,0.0,0.0,0.0,0.0,0.0,0.0,0.0,0.0,0.0,0.0,0.0,0.0,0.0,0.0,0.0,0.0,0.0,0.0,0.0,0.0,0.0,0.0,0.0,0.0,0.0,0.0,0.0,0.0,0.0,0.0,0.0,0.0,0.0,0.0,0.0,0.0,0.0,0.0,0.0,0.0,0.0,0.0,0.0,0.0,0.0,0.0,0.0,0.0,1.6875,1.8694,2.0035,2.0105,2.0087,2.0124,1.9478,1.7901,1.5171,0.0,0.0,0.0,0.0,0.0,0.0,0.0,0.0,0.0,0.0,0.0,0.0,0.0,0.0,0.0,0.0,0.0,0.0,0.0,0.0,0.0,0.0,0.0,0.0,0.0,0.0,0.0,0.0,0.0,0.0,0.0,0.0,0.0,0.0,0.0,0.0,0.0,0.0,0.0,0.0,0.0,0.0,0.0,0.0,0.0,0.0,0.0,0.0,0.0,0.0,0.0,0.0,0.0,0.0,0.0,0.0,0.0,0.0,0.0,0.0,0.0,0.0,0.0,0.0,0.0,0.0,0.0,0.0,0.0,0.0,0.0,0.0,0.0,0.0,0.0,0.0,0.0,0.0,0.0,0.0,0.0,0.0,0.0,0.0,0.0,0.0,0.0,0.0,0.0,0.0,0.0,0.0,0.0,0.0,0.0,0.0,0.0,0.0,0.0,0.0,0.0,0.0,1.4956,1.7151,1.9038,2.0176,2.0215,2.0179,2.0235,1.9415,1.7784,1.5224,0.0,0.0,0.0,0.0,0.0,0.0,0.0,0.0,0.0,0.0,0.0,0.0,0.0,0.0,0.0,0.0,0.0,0.0,0.0,0.0,0.0,0.0,0.0,0.0,0.0,0.0,0.0,0.0,0.0,0.0,0.0,0.0,0.0,0.0,0.0,0.0,0.0,0.0,0.0,0.0,0.0,0.0,0.0,0.0,0.0,0.0,0.0,0.0,0.0,0.0,0.0,0.0,0.0,0.0,0.0,0.0,0.0,0.0,0.0,0.0,0.0,0.0,0.0,0.0,0.0,0.0,0.0,0.0,0.0,0.0,0.0,0.0,0.0,0.0,0.0,0.0,0.0,0.0,0.0,0.0,0.0,0.0,0.0,0.0,0.0,0.0,0.0,0.0,0.0,0.0,0.0,0.0,0.0,0.0,0.0,0.0,0.0,0.0,0.0,0.0,0.0,0.0,1.5098,1.819,2.0303,2.0303,2.0303,2.0303,2.0303,1.7981,1.6156,0.0,0.0,0.0,0.0,0.0,0.0,0.0,0.0,0.0,0.0,0.0,0.0,0.0,0.0,0.0,0.0,0.0,0.0,0.0,0.0,0.0,0.0,0.0,0.0,0.0,0.0,0.0,0.0,0.0,0.0,0.0,0.0,0.0,0.0,0.0,0.0,0.0,0.0,0.0,0.0,0.0,0.0,0.0,0.0,0.0,0.0,0.0,0.0,0.0,0.0,0.0,0.0,0.0,0.0,0.0,0.0,0.0,0.0,0.0,0.0,0.0,0.0,0.0,0.0,0.0,0.0,0.0,0.0,0.0,0.0,0.0,0.0,0.0,0.0,0.0,0.0,0.0,0.0,0.0,0.0,0.0,0.0,0.0,0.0,0.0,0.0,0.0,0.0,0.0,0.0,0.0,0.0,0.0,0.0,0.0,0.0,0.0,0.0,0.0,0.0,0.0,0.0,0.0,1.5232,1.831,2.0444,2.0444,2.0397,2.0375,2.0375,1.9079,1.7385,1.5338,0.0,0.0,0.0,0.0,0.0,0.0,0.0,0.0,0.0,0.0,0.0,0.0,0.0,0.0,0.0,0.0,0.0,0.0,0.0,0.0,0.0,0.0,0.0,0.0,0.0,0.0,0.0,0.0,0.0,0.0,0.0,0.0,0.0,0.0,0.0,0.0,0.0,0.0,0.0,0.0,0.0,0.0,0.0,0.0,0.0,0.0,0.0,0.0,0.0,0.0,0.0,0.0,0.0,0.0,0.0,0.0,0.0,0.0,0.0,0.0,0.0,0.0,0.0,0.0,0.0,0.0,0.0,0.0,0.0,0.0,0.0,0.0,0.0,0.0,0.0,0.0,0.0,0.0,0.0,0.0,0.0,0.0,0.0,0.0,0.0,0.0,0.0,0.0,0.0,0.0,0.0,0.0,0.0,0.0,0.0,0.0,0.0,0.0,0.0,0.0,0.0,0.0,1.5268,1.8345,2.0499,2.0499,2.046,2.0446,2.0446,1.9603,1.813,1.5896,0.0,0.0,0.0,0.0,0.0,0.0,0.0,0.0,0.0,0.0,0.0,0.0,0.0,0.0,0.0,0.0,0.0,0.0,0.0,0.0,0.0,0.0,0.0,0.0,0.0,0.0,0.0,0.0,0.0,0.0,0.0,0.0,0.0,0.0,0.0,0.0,0.0,0.0,0.0,0.0,0.0,0.0,0.0,0.0,0.0,0.0,0.0,0.0,0.0,0.0,0.0,0.0,0.0,0.0,0.0,0.0,0.0,0.0,0.0,0.0,0.0,0.0,0.0,0.0,0.0,0.0,0.0,0.0,0.0,0.0,0.0,0.0,0.0,0.0,0.0,0.0,0.0,0.0,0.0,0.0,0.0,0.0,0.0,0.0,0.0,0.0,0.0,0.0,0.0,0.0,0.0,0.0,0.0,0.0,0.0,0.0,0.0,0.0,0.0,0.0,0.0,0.0,1.5213,1.8346,2.0499,2.0499,2.0499,2.0499,2.0499,1.9695,1.8492,1.6826,0.0,0.0,0.0,0.0,0.0,0.0,0.0,0.0,0.0,0.0,0.0,0.0,0.0,0.0,0.0,0.0,0.0,0.0,0.0,0.0,0.0,0.0,0.0,0.0,0.0,0.0,0.0,0.0,0.0,0.0,0.0,0.0,0.0,0.0,0.0,0.0,0.0,0.0,0.0,0.0,0.0,0.0,0.0,0.0,0.0,0.0,0.0,0.0,0.0,0.0,0.0,0.0,0.0,0.0,0.0,0.0,0.0,0.0,0.0,0.0,1.4632,1.3145,0.0,0.0,0.0,0.0,0.0,0.0,0.0,0.0,0.0,0.0,0.0,0.0,0.0,0.0,0.0,0.0,0.0,0.0,0.0,0.0,0.0,0.0,0.0,0.0,0.0,0.0,0.0,0.0,0.0,0.0,0.0,0.0,0.0,0.0,0.0,0.0,0.0,0.0,0.0,0.0,1.5366,1.8372,2.0499,2.0499,2.0499,2.0499,2.0499,1.9695,1.8751,1.7684,1.5224,0.0,0.0,0.0,0.0,0.0,0.0,0.0,0.0,0.0,0.0,0.0,0.0,0.0,0.0,0.0,0.0,0.0,0.0,0.0,0.0,0.0,0.0,0.0,0.0,0.0,0.0,0.0,0.0,0.0,0.0,0.0,0.0,0.0,0.0,0.0,0.0,0.0,0.0,0.0,0.0,0.0,0.0,0.0,0.0,0.0,0.0,0.0,0.0,0.0,0.0,0.0,0.0,0.0,0.0,0.0,0.0,0.0,0.0,0.0,1.7567,1.617,0.0,0.0,0.0,0.0,0.0,0.0,0.0,0.0,0.0,0.0,0.0,0.0,0.0,0.0,0.0,0.0,0.0,0.0,0.0,0.0,0.0,0.0,0.0,0.0,0.0,0.0,0.0,0.0,0.0,0.0,0.0,0.0,0.0,0.0,0.0,0.0,0.0,0.0,0.0,0.0,1.5962,1.8635,2.0509,2.0509,2.0509,2.0509,2.0509,2.008,1.9473,1.8626,1.6905,0.0,0.0,0.0,0.0,0.0,0.0,0.0,0.0,0.0,0.0,0.0,0.0,0.0,0.0,0.0,0.0,0.0,0.0,0.0,0.0,0.0,0.0,0.0,0.0,0.0,0.0,0.0,0.0,0.0,0.0,0.0,0.0,0.0,0.0,0.0,0.0,0.0,0.0,0.0,0.0,0.0,0.0,0.0,0.0,0.0,0.0,0.0,0.0,0.0,0.0,0.0,0.0,0.0,1.9498,2.0106,2.1423,2.0923,2.1473,2.2757,2.1247,2.0141,1.9267,1.7567,0.0,0.0,0.0,0.0,0.0,0.0,0.0,0.0,0.0,0.0,0.0,0.0,0.0,0.0,0.0,0.0,0.0,0.0,0.0,0.0,0.0,0.0,1.9616,1.889,2.0339,2.0914,1.7416,0.0,0.0,0.0,0.0,0.0,0.0,0.0,0.0,0.0,0.0,0.0,1.68,1.9007,2.0509,2.0504,2.0504,2.0503,2.0498,2.0498,2.0226,1.9543,1.8655,1.7128,0.0,0.0,0.0,0.0,0.0,0.0,0.0,0.0,0.0,0.0,0.0,0.0,0.0,0.0,0.0,0.0,0.0,0.0,0.0,0.0,0.0,0.0,0.0,0.0,0.0,0.0,0.0,0.0,0.0,0.0,0.0,0.0,1.1158,1.2887,0.0,0.0,0.0,0.0,0.0,0.0,0.0,0.0,0.0,0.0,0.0,0.0,0.0,1.9028,1.9955,2.1536,2.2398,2.258,2.4698,2.5829,2.6049,2.669,2.7138,2.7332,2.7089,0.0,2.1204,1.9467,0.0,0.0,0.0,0.0,0.0,0.0,0.0,0.0,0.0,0.0,0.0,0.0,0.0,0.0,0.0,0.0,0.0,0.0,0.0,0.0,0.0,0.0,2.2539,2.2421,2.2655,2.2753,2.2186,1.9641,1.7191,1.6262,1.5384,1.4505,0.0,0.0,0.0,0.0,0.0,0.0,1.7635,1.9354,2.0508,2.0503,2.0502,2.0497,2.05,2.0498,2.0459,2.0342,1.9561,1.8625,1.7534,1.5923,0.0,0.0,0.0,0.0,0.0,0.0,0.0,0.0,0.0,0.0,0.0,0.0,0.0,0.0,0.0,0.0,0.0,0.0,0.0,0.0,0.0,0.0,0.0,0.0,0.0,0.0,0.0,0.0,0.0,1.103,1.3206,1.4966,1.5176,1.5025,0.0,0.0,0.0,0.0,0.0,0.0,0.0,0.0,0.0,2.0757,2.163,2.2729,2.4078,2.5348,2.5995,2.6035,2.7147,2.7694,2.7695,2.8086,2.8262,2.8262,2.826,2.7163,2.5225,2.2956,2.1236,1.9896,0.0,0.0,0.0,0.0,1.9478,1.9673,2.1043,2.1264,2.0841,2.0279,0.0,0.0,0.0,0.0,0.0,0.0,0.0,2.0742,2.113,2.2497,2.3766,2.3764,2.4155,2.4504,2.4508,2.29,2.0936,1.9137,1.8474,1.7498,1.5211,1.5211,0.0,0.0,0.0,1.8409,1.9246,2.0886,2.1963,2.1969,2.1521,2.1229,2.123,2.0781,2.0508,2.0508,2.0173,1.9585,1.8706,1.7504,1.5856,0.0,0.0,0.0,0.0,0.0,0.0,0.0,0.0,0.0,0.0,0.0,0.0,0.0,0.0,0.0,0.0,0.0,0.0,0.0,0.0,0.0,0.0,0.0,0.0,0.0,0.0,0.0,0.0,1.3508,1.5287,1.691,1.7465,1.7542,0.0,0.0,0.0,0.0,0.0,0.0,2.0139,2.0827,2.2099,2.4035,2.4941,2.5995,2.7225,2.7925,2.8365,2.8559,2.8577,2.8695,2.8917,2.8924,2.8947,2.8947,2.8938,2.8824,2.8434,2.5993,2.4246,2.3016,2.2161,2.183,2.1946,2.2809,2.3122,2.3356,2.488,2.5252,2.4882,2.3808,2.3164,2.248,2.0797,0.0,0.0,0.0,0.0,2.2814,2.3041,2.3864,2.463,2.4626,2.5135,2.5599,2.5604,2.5091,2.4009,2.1884,2.1283,2.0268,1.7513,1.7532,0.0,1.7102,1.864,2.016,2.104,2.2267,2.3068,2.3074,2.2491,2.2103,2.2129,2.1332,2.0826,2.0826,2.0621,2.0214,1.955,1.8749,1.7594,1.6069,0.0,0.0,0.0,0.0,0.0,0.0,0.0,0.0,0.0,0.0,0.0,0.0,0.0,0.0,0.0,0.0,0.0,0.0,0.0,0.0,0.0,0.0,0.0,0.0,0.0,0.0,0.0,0.0,0.0,1.8859,2.0489,0.0,0.0,0.0,0.0,1.9132,2.1373,2.281,2.2907,2.5251,2.6679,2.6794,2.7649,2.8105,2.8133,2.8179,2.8555,2.9253,2.93,2.9775,3.0578,3.0652,3.0664,3.0664,3.0665,3.0237,2.94,2.7598,2.6774,2.6556,2.576,2.5447,2.5542,2.6423,2.6736,2.6873,2.779,2.7558,2.6991,2.7733,2.6849,2.5625,2.6255,2.5322,0.0,0.0,2.598,2.5605,2.6437,2.6098,2.5531,2.5521,2.5572,2.5592,2.5607,2.5567,2.5252,2.4284,2.3434,2.2578,2.1643,0.0,2.1491,2.1399,2.1542,2.1957,2.2775,2.2949,2.3004,2.3003,2.2968,2.296,2.3024,2.2246,2.174,2.174,2.0963,2.0478,2.0439,1.9597,1.8718,1.7782,1.6072,0.0,0.0,0.0,0.0,0.0,0.0,0.0,0.0,0.0,0.0,0.0,0.0,0.0,0.0,0.0,0.0,0.0,0.0,0.0,0.0,0.0,0.0,0.0,0.0,0.0,0.0,0.0,0.0,2.1373,2.2186,0.0,2.2492,2.2791,2.3316,2.4042,2.4996,2.5766,2.6299,2.7193,2.7949,2.8462,2.8781,2.9194,2.9741,2.9735,2.9875,3.0143,3.015,3.0339,3.0634,3.0663,3.0667,3.0667,3.064,3.0441,3.0131,2.9512,2.8689,2.777,2.7495,2.7378,2.7418,2.773,2.7804,2.7819,2.8132,2.8025,2.7813,2.8126,2.7827,2.7367,2.7653,2.7296,2.6913,2.7462,2.7379,2.7212,2.7472,2.7318,2.6948,2.6377,2.624,2.6107,2.5573,2.5478,2.5398,2.5124,2.4867,2.4228,2.2809,2.3046,2.3022,2.1873,2.2672,2.3509,2.3793,2.4337,2.4676,2.4672,2.4168,2.3844,2.3877,2.2558,2.1741,2.1741,2.0969,2.0495,2.0495,2.0196,1.9634,1.8754,1.7606,1.5736,0.0,0.0,0.0,0.0,0.0,0.0,0.0,0.0,0.0,0.0,0.0,0.0,0.0,0.0,0.0,0.0,0.0,0.0,0.0,0.0,0.0,0.0,0.0,0.0,0.0,1.9502,2.119,2.3191,2.3978,2.4575,2.5159,2.5507,2.6128,2.7185,2.7548,2.7941,2.8481,2.8785,2.919,2.9713,3.0028,3.0437,3.0999,3.1279,3.1396,3.1382,3.1385,3.1375,3.1375,3.1409,3.1415,3.1415,3.1364,3.134,3.134,3.134,3.0771,2.9828,2.925,2.9039,2.904,2.9071,2.9047,2.9015,2.9015,2.9049,2.9076,2.8997,2.8993,2.9002,2.8955,2.8932,2.8928,2.8826,2.8614,2.8385,2.835,2.812,2.7752,2.7181,2.7046,2.6894,2.6361,2.6248,2.6165,2.5918,2.5709,2.5211,2.4064,2.4357,2.4355,2.3191,2.4006,2.4744,2.4744,2.525,2.56,2.56,2.5074,2.4744,2.4744,2.3133,2.2142,2.2142,2.1105,2.0498,2.0498,2.0501,2.0236,1.9647,1.8482,1.6796,1.4525,0.0,0.0,0.0,0.0,0.0,0.0,0.0,0.0,0.0,0.0,0.0,0.0,0.0,0.0,0.0,0.0,0.0,0.0,0.0,0.0,0.0,0.0,0.0,1.9236,2.1512,2.3485,2.4282,2.5954,2.7031,2.7049,2.776,2.8234,2.8231,2.8948,2.9376,2.9381,3.0204,3.0665,3.0664,3.1493,3.19,3.1826,3.2607,3.2958,3.2897,3.2897,3.2894,3.2897,3.2966,3.2992,3.2992,3.2992,3.2992,3.2992,3.2992,3.2992,3.2839,3.1202,3.0575,3.0583,3.0641,3.0659,3.0639,3.0599,3.0685,3.0757,3.0557,3.0544,3.0577,3.0443,3.0405,3.0405,3.0402,2.9835,2.9229,2.9227,2.86,2.7956,2.7937,2.7937,2.7915,2.7896,2.7896,2.7648,2.6788,2.6058,2.5564,2.5586,2.5595,2.5595,2.5595,2.5595,0.0,2.5595,2.5597,2.5597,2.5598,2.5598,2.56,2.56,2.4008,2.3,2.3,2.1422,2.0507,2.0507,2.0507,2.0507,2.0507,1.8787,1.7098,1.548,0.0,0.0,0.0,0.0,0.0,0.0,0.0,0.0,0.0,0.0,0.0,0.0,0.0,0.0,0.0,0.0,0.0,0.0,0.0,0.0,0.0,2.101,2.2745,2.2091,2.3718,2.5307,2.6152,2.7246,2.7925,2.787,2.863,2.9073,2.895,3.0272,3.1098,3.1033,3.1821,3.2273,3.2261,3.245,3.2538,3.2519,3.274,3.2852,3.2837,3.2819,3.2832,3.2832,3.2842,3.2849,3.2846,3.28,3.2786,3.2786,3.2786,3.2786,3.2756,3.2437,3.2315,3.2318,3.2335,3.1937,3.131,3.0665,3.0474,3.05,3.0446,3.0441,3.0453,3.0415,3.0405,3.0392,3.0347,3.017,2.9999,2.9944,2.9749,2.9417,2.8779,2.8626,2.8441,2.7762,2.7619,2.7545,2.7307,2.708,2.6625,2.5629,2.5443,2.5443,2.5443,2.5443,2.5443,2.5443,2.5447,2.5469,2.552,2.5569,2.5604,2.5604,2.4003,2.2996,2.3004,2.1437,2.0507,2.0507,2.0507,2.0507,2.0507,1.8787,1.7675,0.0,0.0,0.0,0.0,0.0,0.0,0.0,0.0,0.0,0.0,0.0,0.0,0.0,0.0,0.0,0.0,0.0,0.0,0.0,0.0,0.0,0.0,2.308,2.4473,2.4707,2.5918,2.6973,2.7452,2.8268,2.878,2.8717,2.9765,3.0422,3.0295,3.152,3.2248,3.2199,3.2657,3.2733,3.2371,3.2638,3.2647,3.2305,3.2637,3.2802,3.2802,3.2761,3.277,3.277,3.2763,3.2966,3.3295,3.3268,3.3448,3.375,3.375,3.375,3.3697,0.0,0.0,0.0,0.0,3.2624,3.2155,3.1592,3.1441,3.148,3.1385,3.1385,3.1409,3.1369,3.1129,3.0851,3.0813,3.0528,3.0207,3.016,3.0117,2.995,2.9448,2.9311,2.9167,2.8628,2.8503,2.8411,2.8077,2.8005,0.0,2.645,2.6002,2.5707,2.5366,2.5327,2.5327,2.5327,2.5312,2.5348,2.5418,2.5447,2.5496,2.5546,2.4294,0.0,0.0,0.0,2.1384,2.1024,2.0656,0.0,0.0,0.0,0.0,0.0,1.905,0.0,0.0,1.7403,1.7505,0.0,0.0,0.0,0.0,0.0,0.0,0.0,0.0,0.0,0.0,0.0,0.0,0.0,0.0,0.0,0.0,2.4707,2.5405,2.7043,2.8039,2.8483,2.8228,2.9047,2.9602,2.9533,3.091,3.1782,3.1772,3.2462,3.2885,3.289,3.2887,0.0,0.0,0.0,3.2637,3.2011,3.2708,3.3076,3.3076,3.3009,3.2986,3.2986,3.2986,3.341,3.4144,3.4144,3.4541,3.5205,3.5205,3.5148,3.4938,3.352,3.2986,3.2978,3.2959,3.3013,3.3073,3.2852,0.0,0.0,3.2763,3.2736,3.2771,3.2714,3.2184,3.1607,3.1607,3.0933,3.0217,3.0217,3.0056,2.9893,2.9893,2.9893,2.9893,2.988,2.9899,2.9687,2.8959,2.8804,2.8539,2.7661,2.6872,2.6147,2.5428,2.5239,2.5163,2.5163,2.5168,2.5194,2.5252,2.5268,0.0,2.5441,2.467,2.4166,2.4173,2.3444,2.2641,2.1883,2.1091,2.1059,2.1825,2.1845,2.2234,2.2994,2.2994,2.3046,2.3054,1.9933,1.9689,0.0,0.0,0.0,0.0,0.0,0.0,0.0,0.0,0.0,0.0,0.0,0.0,0.0,0.0,0.0,2.5116,2.6639,2.7895,2.8884,2.9716,2.9732,2.8365,2.948,3.0356,3.0296,3.1168,3.17,3.1641,3.2372,3.2818,3.2811,3.2809,3.304,3.3524,3.3685,3.3991,3.4503,3.4652,3.4744,3.4744,3.4713,0.0,3.4728,3.4728,3.4804,3.498,3.498,3.5053,3.5205,3.5205,3.4827,3.4258,3.4594,3.4728,3.4636,3.3991,3.3785,3.3704,3.297,3.2744,3.2755,3.2711,3.2664,3.264,3.2616,3.2444,0.0,3.2228,3.1636,3.0991,3.0991,3.0444,2.9893,2.9893,2.9893,2.9895,2.9823,2.9811,2.9751,2.9544,2.9512,2.9225,2.8352,2.7108,2.6182,2.6031,2.5414,2.4965,2.4965,2.5009,2.504,2.5068,2.5102,2.5143,2.5186,2.4423,2.3974,2.4039,2.3387,2.2925,2.2756,2.2581,2.2583,2.2741,2.2741,2.2838,2.2994,2.2994,2.3324,2.3944,2.2617,2.2287,0.0,0.0,0.0,0.0,0.0,0.0,0.0,0.0,0.0,0.0,0.0,2.1039,2.2785,0.0,2.5117,2.7303,2.7992,2.8531,2.9349,2.9736,2.9631,2.8792,2.9803,3.0509,3.0406,3.116,3.1808,3.2179,3.2565,3.2973,3.3389,3.3393,3.3585,3.3984,3.4002,3.3987,3.3941,3.3941,3.3941,3.3941,3.3941,3.394,3.3895,3.3895,3.4103,3.4445,3.4445,3.4674,3.5054,3.5054,3.4807,3.4483,3.4883,3.4863,3.4598,3.4598,3.4574,3.4494,3.4052,3.3866,3.3809,3.3809,3.3774,3.3758,3.3758,3.3419,3.3056,3.3056,3.2419,3.1645,3.1214,3.074,3.0304,2.9898,2.9803,2.979,2.9765,2.9756,2.9742,2.9715,2.9706,2.9551,2.9134,2.8072,2.7166,2.6759,2.6329,2.5918,2.5491,2.5487,2.5351,2.4984,2.4971,2.5021,2.5085,2.4733,2.4506,2.4551,2.3884,2.3501,2.3491,2.3146,2.3153,2.3586,2.3605,2.382,2.4248,2.4692,2.5115,2.5498,2.5505,2.5291,0.0,0.0,0.0,0.0,0.0,0.0,0.0,1.8766,1.9644,2.1373,2.2446,2.3681,2.58,2.6191,2.6929,2.9183,2.8911,2.869,2.9498,2.9514,2.9443,2.941,3.0179,3.0667,3.0564,3.1338,3.2107,3.2755,3.2793,3.3063,3.3716,3.375,3.3808,3.3967,3.3967,3.3688,3.3126,3.3126,3.3126,3.3126,3.3126,3.3104,3.3052,3.3052,3.3378,3.3922,3.3922,3.4301,3.4908,3.4908,3.4813,3.468,3.4832,3.4511,3.4038,3.485,3.5108,3.5066,3.5066,3.4997,3.4908,3.4908,3.4894,3.4879,3.4879,3.441,3.3862,3.3862,3.3214,3.2354,3.1643,3.1299,3.0936,3.0114,2.9927,2.9889,2.9725,2.9706,2.9706,2.9706,2.9706,2.9706,2.9706,2.9115,2.8378,2.7557,2.7298,2.6965,2.6316,2.6222,2.595,2.5187,2.5106,2.5079,2.5025,2.5059,2.5055,2.5055,2.4525,2.4205,2.4204,2.3665,2.3776,2.4642,2.4675,2.511,2.5987,2.6683,2.7024,2.705,2.7878,2.7801,1.7251,1.7575,1.8111,1.966,1.9474,1.9911,0.0,2.4062,2.4079,2.5814,2.6871,2.7597,2.7944,2.7963,2.8251,2.9254,2.928,2.9456,3.0256,3.0356,3.0314,3.0186,3.0948,3.1478,3.1453,3.2182,3.2697,3.2784,3.274,3.2749,3.284,3.286,3.3149,3.3796,3.3815,3.4096,3.4656,3.4652,3.4652,3.4652,3.4652,3.4647,3.4638,3.4638,3.469,3.4775,3.4775,3.4813,3.4908,3.4908,3.4472,3.3903,3.4624,3.4429,3.3822,3.4637,3.4936,3.4927,3.4927,3.4917,3.4908,3.4908,3.4869,3.4814,3.4814,3.4667,3.4494,3.4494,3.3915,3.3241,3.3166,3.2541,3.1767,3.0954,3.0762,3.0579,2.9852,2.9706,2.9706,2.9706,2.9706,2.9706,2.9706,2.9612,2.927,2.8393,2.7669,2.7167,2.7073,2.7073,2.6766,2.5964,2.5874,2.5577,2.4813,2.485,2.4929,2.4929,2.4963,2.4976,2.4979,2.5004,2.545,2.6311,2.6384,2.685,2.7728,2.7823,2.7862,2.7898,2.8747,2.8689,2.1107,2.1246,2.1297,2.3036,2.3225,2.3585,2.5848,2.6109,2.6211,2.746,2.8006,2.8412,2.8911,2.8949,2.9157,2.9965,3.0046,3.0102,3.0409,3.0361,3.0295,3.0244,3.1002,3.1538,3.1546,3.14,3.1681,3.2676,3.2207,3.232,3.3296,3.3304,3.3637,3.4423,3.4437,3.459,3.4908,3.4908,3.4908,3.4908,3.4908,3.4879,3.484,3.484,3.4805,3.4725,3.4725,3.4725,3.4725,3.4725,3.4537,3.4254,3.4593,3.4518,3.4288,3.4732,3.4874,3.484,3.484,3.48,3.4725,3.4725,3.4718,3.4676,3.4676,3.4645,3.4607,3.4607,3.4363,3.3982,3.3526,3.3132,3.2644,3.1799,3.1593,3.1386,3.056,3.0391,3.026,2.98,2.9706,2.9706,2.9706,2.9706,2.9575,2.9209,2.8875,2.8462,2.7965,2.7909,2.7594,2.6777,2.6702,2.6551,2.6191,2.6217,2.6234,2.6234,2.6361,2.6445,2.6445,2.6568,2.681,2.716,2.7204,2.7402,2.7775,2.8236,2.8525,2.8668,2.9483,2.975,2.3174,2.3688,2.4049,2.5289,2.6014,2.6562,2.7127,2.7496,2.7903,2.8523,2.8829,2.9148,2.9714,2.9757,2.9886,3.0455,3.0494,3.0431,3.0345,3.0254,3.0207,3.02,3.0753,3.1125,3.1116,3.0784,3.1053,3.2226,3.1915,3.2275,3.3703,3.3945,3.4287,3.4851,3.487,3.4855,3.4826,3.4826,3.4826,3.4826,3.5066,3.5026,3.4747,3.4747,3.4687,3.4607,3.4607,3.4607,3.4607,3.4607,3.4607,3.4607,3.4607,3.4607,3.4629,3.4766,3.4795,3.4747,3.4747,3.4676,3.4607,3.4607,3.4607,3.4607,3.4607,3.4607,3.4607,3.4607,3.4607,3.4476,3.3888,3.3733,3.3531,3.2668,3.2461,3.2175,3.1137,3.0893,3.0649,2.9856,2.9706,2.9706,2.9706,2.9706,2.9706,2.9706,2.9706,2.9476,2.8848,2.8543,2.8186,2.7594,2.7336,2.7204,2.7204,2.7204,2.7204,2.7204,2.7297,2.7342,2.7342,2.7469,2.766,2.7892,2.7926,2.8041,2.8293,2.8872,2.9232,2.9387,2.9972,3.0445,2.2083,2.3711,2.5619,2.5591,2.6916,2.8214,2.816,2.8879,2.9539,2.9554,3.0135,3.0629,3.0653,3.0554,3.046,3.0415,3.0346,3.0283,3.0224,3.0195,3.02,3.0192,3.0227,3.0218,3.0148,3.0947,3.1428,3.1359,3.2107,3.2892,3.3666,3.4434,3.4846,3.4804,3.4798,3.4747,3.4618,3.4618,3.4618,3.4618,3.5476,3.5439,3.4612,3.4612,3.4594,3.4607,3.4607,3.4607,3.4607,3.4607,3.4607,3.4607,3.4607,3.4607,3.4607,3.4618,3.4618,3.4612,3.4612,3.4594,3.4607,3.4607,3.4607,3.4607,3.4607,3.4607,3.4607,3.4607,3.4607,3.4588,3.4569,3.4569,3.4363,3.3545,3.3357,3.2907,3.1269,3.0893,3.0649,2.9856,2.9706,2.9706,2.9706,2.9706,2.9706,2.9706,2.9706,2.9687,2.9669,2.8923,2.8393,2.8374,2.7669,2.7204,2.7204,2.7204,2.7204,2.7204,2.7209,2.7213,2.7213,2.733,2.7801,2.8654,2.873,2.9181,3.0013,3.0051,3.0051,3.0077,3.0096,3.0567,2.4649,2.5368,2.5983,2.7686,2.8555,2.9113,2.9715,3.0076,3.01,2.9527,2.9608,2.9575,2.8962,2.8816,2.8926,2.941,2.9903,3.024,3.0206,3.1151,3.1435,3.0277,3.059,3.0898,3.0849,3.0673,3.0971,3.1956,3.2252,3.2996,3.4357,3.4608,3.4684,3.4666,3.4666,3.4927,3.5465,3.5465,3.5734,3.6259,3.656,3.6447,3.5987,3.5987,3.5962,3.5907,3.5415,3.5243,3.5334,3.543,3.5465,3.5522,3.6053,3.6265,3.6184,3.5659,3.5465,3.5371,3.4795,3.4607,3.4607,3.4607,3.4607,3.4607,3.4607,3.4607,3.4607,3.4607,3.4607,3.4607,3.4607,3.4607,3.4532,3.4264,3.4189,3.3907,3.2794,3.2569,3.2156,3.0767,3.0504,3.0335,2.98,2.9706,2.9706,2.9706,2.9706,2.9706,2.9706,2.9439,2.9265,2.9265,2.9026,2.8861,2.8861,2.8861,2.8861,2.8861,2.8861,2.8861,2.8861,2.8896,2.9058,2.9354,2.9387,2.9549,2.9836,2.9836,2.9876,2.9984,3.0512,3.097,2.5797,2.6408,2.6901,2.8843,2.9548,2.9922,3.0494,3.0364,2.9975,2.9424,2.9034,2.8603,2.7976,2.7848,2.8088,2.8843,2.9661,3.0294,3.0566,3.1794,3.2221,3.1056,3.1386,3.1672,3.16,3.1156,3.1415,3.2693,3.2742,3.3311,3.4662,3.465,3.4738,3.5058,3.5058,3.5471,3.6316,3.6329,3.6717,3.7482,3.7177,3.7093,3.7193,3.6932,3.6764,3.6688,3.623,3.6073,3.6145,3.6224,3.6271,3.6345,3.6857,3.7087,3.7035,3.6522,3.613,3.5738,3.4897,3.4607,3.4607,3.4607,3.4607,3.4607,3.4607,3.4607,3.4607,3.4607,3.4607,3.4607,3.4607,3.4607,3.4583,3.4561,3.4556,3.4344,3.3505,3.3331,3.2919,3.157,3.1289,3.1027,3.0207,2.9818,2.9636,2.9636,2.9636,2.9645,2.9683,2.9706,2.9706,2.9706,2.9706,2.9706,2.9706,2.9706,2.9706,2.9706,2.9706,2.9706,2.9706,2.9706,2.9706,2.9706,2.9706,2.9706,2.9706,2.9706,2.9897,3.0268,3.076,3.1358,2.5653,2.6885,2.8334,2.9074,2.992,3.0567,3.0458,2.984,2.9251,2.9115,2.8373,2.7704,2.7509,2.7481,2.7778,2.857,2.9544,3.0455,3.1183,3.2122,3.2636,3.2422,3.2428,3.2434,3.2364,3.2355,3.2713,3.3566,3.3585,3.3884,3.4631,3.4701,3.5114,3.5935,3.5953,3.6348,3.7142,3.7192,3.757,3.8259,3.7424,3.7418,3.8115,3.743,3.7075,3.6995,3.7019,3.7,3.6951,3.6957,3.6994,3.7061,3.7099,3.7165,3.7211,3.7174,3.6626,3.5793,3.495,3.4634,3.4596,3.4583,3.4583,3.4583,3.4583,3.4583,3.4583,3.4602,3.4596,3.4596,3.4596,3.4596,3.4567,3.4512,3.4495,3.4272,3.3433,3.3248,3.303,3.2214,3.2027,3.1747,3.0907,3.0127,2.9628,2.9628,2.9591,2.9587,2.9687,2.9697,2.9697,2.9683,2.9683,2.9701,2.9706,2.9706,2.9706,2.9706,2.9706,2.9706,2.9706,2.9706,2.9706,2.9706,2.9706,2.9725,2.9762,2.9758,3.0166,3.0964,3.0923,3.1778,2.7735,2.8545,2.9065,2.995,3.0271,3.0227,2.9609,2.925,2.853,2.6632,2.6046,2.5307,2.339,2.4036,2.5111,2.586,2.8275,3.0327,3.1117,3.3006,3.3823,3.2487,3.285,3.3189,3.3127,3.3112,3.3718,3.5184,3.4682,3.469,3.5522,3.6147,3.6566,3.6785,3.6785,3.7156,3.7915,3.8503,3.8901,3.9094,3.8869,3.8771,3.8765,3.8581,3.8447,3.8359,3.7835,3.7636,3.7727,3.7772,3.7798,3.7872,3.8539,3.8801,3.8727,3.8078,3.7704,3.7318,3.5903,3.4998,3.4467,3.4512,3.4523,3.4523,3.4523,3.4523,3.4517,3.4473,3.4456,3.4456,3.4456,3.4456,3.445,3.4439,3.4433,3.4353,3.4149,3.4087,3.3863,3.3049,3.2419,3.1934,3.171,3.1504,3.136,3.136,3.0818,3.0193,2.9625,2.9555,2.9569,2.9617,2.9622,2.9659,2.9701,2.9706,2.9706,2.9706,2.9706,2.9706,2.9706,2.9706,2.9706,2.9706,2.9706,3.0002,3.0598,3.0531,3.0966,3.1814,3.235,3.28,2.8764,2.9385,2.9743,3.0276,3.0326,2.9941,2.8755,2.8152,2.7148,2.4583,2.4064,2.3408,2.1232,2.2484,2.4107,2.4873,2.7495,2.996,3.1478,3.319,3.4045,3.3384,3.3713,3.3975,3.3931,3.4258,3.4897,3.5841,3.5446,3.5546,3.6391,3.6842,3.7249,3.757,3.7589,3.7952,3.8727,3.9123,3.9308,3.9308,3.9281,3.9188,3.9045,3.9073,3.9045,3.8963,3.8581,3.8439,3.8493,3.8526,3.856,3.8623,3.9121,3.9353,3.9349,3.885,3.8413,3.7884,3.6621,3.5615,3.485,3.4545,3.4461,3.4461,3.4461,3.4461,3.445,3.4416,3.4392,3.4392,3.4392,3.4392,3.4386,3.4357,3.4351,3.434,3.4316,3.431,3.4174,3.374,3.2995,3.2441,3.2441,3.2143,3.1901,3.1901,3.1491,3.1025,3.0564,2.9915,2.9507,2.955,2.955,2.9564,2.9617,2.9603,2.9603,2.9603,2.9603,2.9603,2.9603,2.9603,2.9603,2.9603,2.9954,3.0361,3.0806,3.1164,3.177,3.2598,3.2982,3.3323,2.9238,2.9763,3.0292,3.0292,3.0157,2.9595,2.7902,2.6771,2.5354,2.2792,2.218,2.1624,2.0046,2.1703,2.3624,2.4651,2.691,2.9386,3.1926,3.2967,3.3766,3.4505,3.4607,3.4645,3.4757,3.5465,3.5991,3.6197,3.6216,3.6517,3.7217,3.7361,3.7701,3.8346,3.8334,3.8677,3.9366,3.9249,3.9183,3.9183,3.9129,3.9101,3.9101,3.9103,3.9103,3.9101,3.9103,3.9115,3.9101,3.9101,3.9135,3.9183,3.9183,3.9249,3.936,3.936,3.8772,3.7887,3.7186,3.6391,3.5529,3.4657,3.4399,3.4399,3.4399,3.4399,3.4374,3.4387,3.4363,3.4363,3.4363,3.4363,3.4351,3.4299,3.4287,3.4269,3.4215,3.4203,3.4203,3.4203,3.3646,3.3163,3.3163,3.2587,3.2122,3.2122,3.2029,3.1961,3.1961,3.061,2.9645,2.965,2.9562,2.9487,2.9497,2.9497,2.9497,2.9497,2.9497,2.9497,2.9497,2.9609,2.9665,2.9665,3.0463,3.0925,3.1037,3.1774,3.2552,3.3336,3.3287,3.3623,2.9913,3.019,3.0292,3.0231,2.9677,2.8695,2.7004,2.5431,2.361,2.1067,2.0002,1.9227,1.8148,1.9433,2.1368,2.3508,2.5925,2.8613,3.1693,3.2881,3.3721,3.4513,3.4607,3.4889,3.5597,3.5803,3.646,3.7787,3.7881,3.7943,3.8075,3.8715,3.9114,3.92,3.9072,3.9081,3.9224,3.9156,3.9122,3.9122,3.9108,3.9101,3.9094,3.8822,3.8844,3.9087,3.8822,3.8851,3.9101,3.9101,3.9108,3.9122,3.9122,3.9129,3.9142,3.9142,3.8633,3.7895,3.7765,3.7164,3.6241,3.479,3.431,3.431,3.431,3.431,3.4305,3.4251,3.4233,3.4233,3.4233,3.4233,3.4233,3.4221,3.4215,3.4215,3.4203,3.4203,3.4203,3.4203,3.4092,3.3999,3.3999,3.3887,3.3776,3.3776,3.3218,3.2791,3.2791,3.1401,3.0424,3.0479,2.9851,2.9443,2.9492,2.9497,2.9497,2.9497,2.9497,2.9497,2.9497,3.0146,3.0496,3.0496,3.1336,3.2102,3.2769,3.2868,3.333,3.4105,3.4041,3.4085,3.0027,3.0254,3.0231,3.0216,2.9546,2.8351,2.6256,2.4456,2.239,1.9412,1.8459,1.7767,1.6438,1.8258,2.0458,2.2047,2.4354,2.7096,3.0387,3.1574,3.2569,3.3832,3.4752,3.5446,3.5859,3.6555,3.7268,3.7939,3.8438,3.877,3.8915,3.9194,3.9328,3.9301,3.9209,3.9149,3.9149,3.9122,3.9101,3.9101,3.8927,3.8836,3.8822,3.8496,3.8426,3.8582,3.8586,3.8685,3.8851,3.902,3.9101,3.9101,3.9101,3.9101,3.9101,3.9101,3.8859,3.8451,3.8049,3.7659,3.7127,3.595,3.5268,3.4847,3.4394,3.4245,3.4239,3.4209,3.4203,3.4203,3.4203,3.4203,3.4203,3.4203,3.4203,3.4203,3.4203,3.4203,3.4203,3.4203,3.4203,3.4203,3.4203,3.4203,3.4203,3.4203,3.3869,3.3627,3.3627,3.2587,3.1706,3.1306,3.0525,3.0033,3.0064,2.9697,2.9455,2.9455,2.9455,2.9641,3.007,3.0437,3.0847,3.1251,3.2089,3.2704,3.3095,3.3488,3.3867,3.4245,3.4215,3.4203,2.9765,3.0077,3.0204,3.0195,2.9428,2.8033,2.5726,2.3561,2.1203,1.8202,1.7255,1.6612,1.5442,1.7349,1.9577,2.1101,2.2945,2.5477,2.918,3.0391,3.1513,3.3207,3.4883,3.5925,3.6,3.7237,3.8016,3.7935,3.8663,3.9215,3.9418,3.9283,3.919,3.9176,3.9129,3.9073,3.8991,3.8991,3.8956,3.8884,3.8628,3.8486,3.847,3.8133,3.805,3.8208,3.8418,3.8563,3.8733,3.8991,3.9101,3.9101,3.9101,3.9101,3.9101,3.9101,3.899,3.8785,3.8321,3.8042,3.7807,3.7157,3.6414,3.5634,3.4946,3.4612,3.4482,3.4482,3.4333,3.4203,3.4203,3.4203,3.4203,3.4203,3.4203,3.4203,3.4203,3.4203,3.4203,3.4203,3.4203,3.4203,3.4203,3.4203,3.4203,3.4203,3.4203,3.4203,3.4203,3.3646,3.3014,3.2388,3.144,3.0864,3.0864,3.027,2.9903,2.9903,2.9903,3.0201,3.0827,3.1013,3.1403,3.2035,3.2847,3.3256,3.3256,3.3887,3.4203,3.4203,3.4203,3.4203,2.9082,2.964,3.0204,3.0195,2.9,2.7358,2.5609,2.266,1.9797,1.7894,1.6294,1.5385,1.5896,1.6253,1.7715,2.1567,2.2379,2.42,2.903,3.0391,3.1513,3.3207,3.4883,3.602,3.6312,3.7467,3.8331,3.8673,3.8999,3.9197,3.9236,3.9204,3.917,3.9115,3.9108,3.8956,3.864,3.8658,3.8478,3.8201,3.8168,3.8152,3.8135,3.7729,3.792,3.8533,3.8257,3.8489,3.9066,3.9094,3.9101,3.9101,3.9101,3.9101,3.9101,3.9101,3.8637,3.8098,3.8767,3.8513,3.7894,3.7807,3.725,3.6563,3.6488,3.5968,3.538,3.538,3.4816,3.4203,3.4203,3.4203,3.4203,3.4203,3.4203,3.4203,3.4203,3.4203,3.4203,3.4203,3.4203,3.4203,3.4203,3.4203,3.4203,3.4203,3.4203,3.4203,3.4203,3.4147,3.4055,3.3999,3.2605,3.1682,3.1682,3.1626,3.1589,3.1589,3.1589,3.1608,3.1682,3.2382,3.281,3.2884,3.3683,3.4092,3.4092,3.416,3.4203,3.4203,3.4203,3.4203,2.8676,2.9552,3.0202,3.0192,2.8943,2.7262,2.5571,2.2552,1.9605,1.7864,1.6139,1.5037,1.5326,1.5767,1.6964,1.9585,2.0442,2.2004,2.5485,2.7115,2.8748,3.0922,3.3476,3.5413,3.6315,3.7769,3.8734,3.8844,3.865,3.8628,3.8829,3.8844,3.8829,3.88,3.8605,3.8434,3.8298,3.8298,3.833,3.841,3.821,3.8218,3.8394,3.8033,3.8024,3.8306,3.8378,3.8559,3.8814,3.9013,3.9101,3.9101,3.9101,3.9101,3.9101,3.9101,3.8897,3.8674,3.899,3.8897,3.8618,3.8618,3.8414,3.7956,3.699,3.6135,3.5603,3.608,3.5244,3.4315,3.4853,3.4593,3.4203,3.4203,3.4203,3.4203,3.4203,3.4203,3.4203,3.4203,3.4203,3.4203,3.4203,3.4203,3.4203,3.4203,3.4203,3.4203,3.4203,3.4203,3.4203,3.4203,3.3181,3.2512,3.2512,3.2072,3.1794,3.1794,3.1794,3.2017,3.25,3.2828,3.3237,3.372,3.4036,3.4203,3.4203,3.4203,3.4203,3.4203,3.4203,3.4203,2.7771,2.8806,2.9462,2.9462,2.837,2.6877,2.5168,2.2361,1.9602,1.7828,1.6093,1.4897,1.4861,1.5532,1.6637,1.8233,1.9432,2.1028,2.3509,2.5297,2.71,2.9082,3.1898,3.4201,3.5528,3.7609,3.8855,3.8815,3.8468,3.8306,3.8439,3.8447,3.8447,3.8447,3.8216,3.8101,3.8101,3.8101,3.8208,3.8457,3.8208,3.8216,3.8431,3.8218,3.816,3.8257,3.8504,3.8666,3.877,3.8998,3.9101,3.9101,3.9101,3.9101,3.9101,3.9101,3.9101,3.9101,3.9101,3.9101,3.9101,3.9101,3.9101,3.8897,3.7752,3.6841,3.6321,3.6897,3.5857,3.4723,3.5343,3.4853,3.4203,3.4203,3.4203,3.4203,3.4203,3.4203,3.4203,3.4203,3.4203,3.4203,3.4203,3.4203,3.4203,3.4203,3.4203,3.4203,3.4203,3.4203,3.4203,3.4203,3.3683,3.3349,3.3349,3.2847,3.2512,3.2512,3.2512,3.2754,3.333,3.3349,3.3627,3.4179,3.4203,3.4203,3.4203,3.4203,3.4203,3.4203,3.4203,3.4333,2.6195,2.7052,2.7736,2.7736,2.7052,2.5954,2.4202,2.1893,1.9583,1.7777,1.6062,1.4886,1.4809,1.5503,1.6637,1.8233,1.9904,2.1857,2.4347,2.6134,2.7482,2.8318,3.0386,3.2303,3.3774,3.6753,3.8594,3.8594,3.8594,3.8457,3.8127,3.8101,3.8101,3.8101,3.8101,3.8101,3.8101,3.8101,3.8101,3.8101,3.8101,3.8101,3.8101,3.8101,3.8281,3.8586,3.8594,3.8792,3.9101,3.9101,3.9101,3.9101,3.9101,3.9101,3.9101,3.9101,3.9101,3.9101,3.9101,3.9101,3.9101,3.9101,3.9101,3.9101,3.9082,3.8513,3.7882,3.7894,3.673,3.5485,3.551,3.4853,3.4203,3.4203,3.4203,3.4203,3.4203,3.4203,3.4203,3.4203,3.4203,3.4203,3.4203,3.4203,3.4203,3.4203,3.4203,3.4203,3.4203,3.4203,3.4203,3.4203,3.4179,3.4179,3.4179,3.4185,3.4185,3.4185,3.4185,3.4185,3.4179,3.4179,3.4179,3.4203,3.4203,3.4203,3.4203,3.4203,3.4203,3.4203,3.4203,3.4668,2.3578,2.4435,2.4961,2.4359,2.4004,2.3358,2.1608,2.012,1.8657,1.6926,1.5652,1.482,1.4802,1.5027,1.6139,1.8938,1.9823,2.1046,2.3528,2.58,2.7604,2.8687,3.2615,3.5834,3.7315,3.7938,3.8354,3.8579,3.8139,3.7799,3.7694,3.7685,3.7818,3.8093,3.8101,3.8101,3.8101,3.8101,3.8226,3.8431,3.8431,3.8566,3.8789,3.8551,3.8494,3.8594,3.8594,3.8655,3.8778,3.8998,3.9101,3.9101,3.9101,3.9101,3.9101,3.9101,3.9101,3.9101,3.9101,3.9101,3.9101,3.9101,3.9101,3.9101,3.9101,3.8551,3.7789,3.7231,3.712,3.7009,3.6451,3.5714,3.5095,3.5095,3.463,3.4203,3.4203,3.4203,3.4203,3.4203,3.4203,3.4203,3.4203,3.4203,3.4203,3.4203,3.4203,3.4203,3.4203,3.4203,3.4203,3.4203,3.4203,3.4203,3.4203,3.4203,3.4203,3.4203,3.4203,3.4203,3.4203,3.4203,3.4203,3.4203,3.4203,3.4203,3.4203,3.4203,3.45,3.5095,3.5652,3.6358,2.1263,2.2044,2.2339,2.179,2.1659,2.1274,1.9844,1.8833,1.7814,1.6458,1.5433,1.4799,1.4799,1.5324,1.6434,1.8522,1.9914,2.1384,2.3231,2.5611,2.7853,2.9722,3.3639,3.6621,3.775,3.8125,3.8255,3.8188,3.7764,3.7505,3.7505,3.7641,3.7895,3.8273,3.8168,3.8101,3.8101,3.8101,3.8191,3.8418,3.8418,3.8528,3.8729,3.8512,3.8418,3.8418,3.8418,3.8418,0.0,3.8635,3.8811,3.892,3.892,3.8984,3.9101,3.9101,3.9101,3.9101,3.9101,3.9101,3.9101,3.9101,3.9101,3.9101,3.9101,3.8748,3.8247,3.7752,3.7752,3.7789,3.7287,3.6563,3.595,3.595,3.5541,3.5132,3.5132,3.5132,3.5132,3.5132,3.4909,3.4686,3.4686,3.4426,3.4203,3.4203,3.4203,3.4203,3.4203,3.4203,3.4203,3.4203,3.4203,3.4203,3.4203,3.4203,3.4203,3.4203,3.4203,3.4203,3.4203,3.4203,3.4203,3.4203,3.4203,3.437,3.4686,3.5002,3.5429,3.5968,3.6786,3.7417,0.0,1.9783,1.9814,1.9748,1.9776,1.9575,1.865,1.7835,0.0,1.6185,1.535,1.4837,1.4968,1.6246,1.7393,1.7696,2.0392,2.2759,2.3637,2.5893,2.8525,3.1464,3.3829,3.5425,3.5916,3.7541,3.8269,3.7542,3.7505,3.7505,3.7505,3.7905,3.8273,3.8586,3.8322,3.8176,3.8176,3.8152,3.8143,3.8143,3.811,3.8101,3.8101,3.8076,3.8059,3.8059,3.8059,3.8076,3.8101,3.8127,3.833,3.8643,3.8643,3.8822,3.9101,3.9101,3.9101,3.9101,3.9101,3.9101,3.9101,3.9101,3.9101,3.9101,3.9101,3.9101,3.9101,3.9101,3.8562,3.7993,3.7993,3.7399,3.6786,3.6786,3.673,3.6693,3.6693,3.6693,3.6693,3.6693,3.6098,3.5584,3.5584,3.4909,3.4389,3.4389,3.4389,3.4389,3.4389,3.4389,3.437,3.4296,3.4296,3.4277,3.4203,3.4203,3.4203,3.4203,3.4203,3.4203,3.4203,3.4203,3.424,3.4296,3.4352,3.4779,3.5584,3.6395,3.6786,3.6804,3.7603,3.7993,1.5872,0.0,1.703,1.6362,1.6627,1.6805,0.0,1.6077,1.6152,1.5297,1.493,1.5193,1.6474,1.7037,1.8337,2.1538,2.3124,2.4514,2.6041,2.8916,3.1826,3.4484,3.631,3.7412,3.7557,3.7967,3.8024,3.7542,3.7505,3.7505,3.7505,3.8122,3.8509,3.8594,3.877,3.8851,3.8851,3.8612,3.847,3.8489,3.8216,3.8101,3.8093,3.7773,3.7641,3.7641,3.7641,3.7818,3.8127,3.8378,3.8681,3.8977,3.8977,3.9027,3.9101,3.9101,3.9101,3.9101,3.9101,3.9101,3.9101,3.9101,3.9101,3.9101,3.9101,3.9101,3.9101,3.9101,3.8952,3.8822,3.8822,3.8209,3.7622,3.7622,3.7157,3.6693,3.6693,3.6693,3.6693,3.6693,3.6544,3.6414,3.6414,3.6247,3.6117,3.6117,3.6117,3.6117,3.6117,3.6117,3.5875,3.5262,3.5188,3.4909,3.4259,3.4203,3.4203,3.4203,3.4203,3.4203,3.4203,3.4203,3.4519,3.5169,3.5801,3.621,3.6414,3.7231,3.7622,3.764,3.8432,3.8822,1.4332,1.5616,1.6723,1.6223,1.6394,1.6566,1.6055,1.5726,1.5369,0.0,0.0,1.5782,1.7055,1.794,1.9444,2.2458,2.385,2.5482,2.8159,3.1048,3.362,3.5522,3.699,3.7826,3.7826,3.7826,3.7729,3.7523,3.7505,3.7641,3.7988,3.8239,3.852,3.8814,3.8703,3.8635,3.8635,3.8465,3.8198,3.7851,3.7676,3.7595,3.7586,3.7375,3.7357,3.7505,3.7505,3.7739,3.8118,3.8298,3.8574,3.8865,3.8865,3.8963,3.9101,3.9101,3.9101,3.9101,3.9101,3.9101,3.9101,3.9101,3.9101,3.9101,3.9101,3.9101,3.9101,3.9101,3.9101,3.9101,3.9101,3.8785,3.8458,3.8458,3.8123,3.7807,3.7807,3.7807,3.7807,3.7807,3.751,3.725,3.725,3.6934,3.6693,3.6693,3.6693,3.6693,3.6693,3.6693,3.6525,3.6098,3.6049,3.5857,3.5392,3.5355,3.5021,3.4253,3.4203,3.4389,3.4779,3.4798,3.5188,3.6024,3.6841,3.725,3.725,3.8067,3.8458,3.8451,3.8897,3.9101,1.4067,1.5968,1.7757,1.731,1.7398,1.7511,1.7348,0.0,0.0,0.0,0.0,0.0,1.7884,1.9313,2.0939,2.2715,2.4364,2.6646,3.0143,3.2566,3.442,3.5581,3.6771,3.7478,3.7423,3.7469,3.7478,3.7423,3.7523,3.7834,3.8389,3.8273,3.841,3.8927,3.8442,3.8108,3.8017,3.8017,3.7685,3.7077,3.7019,3.7007,3.7007,3.7007,3.7177,3.7505,3.7505,3.7756,3.8185,3.8185,3.8378,3.8688,3.8688,3.8844,3.9101,3.9101,3.9101,3.9101,3.9101,3.9101,3.9101,3.9101,3.9101,3.9101,3.9101,3.9101,3.9101,3.9101,3.9101,3.9101,3.9101,3.9101,3.9101,3.9101,3.9101,3.9101,3.9101,3.9101,3.9101,3.9101,3.8544,3.8086,3.8086,3.7529,3.7064,3.7064,3.7064,3.7064,3.7064,3.7064,3.7027,3.6897,3.6878,3.6823,3.6711,3.6693,3.6098,3.4668,3.4575,3.4909,3.5659,3.5801,3.6191,3.6878,3.7677,3.8086,3.8086,3.8767,3.9101,3.9101,3.9101,3.9101,1.5264,1.7606,1.8941,1.6831,1.732,1.8145,1.7455,0.0,0.0,0.0,0.0,0.0,2.125,2.2308,2.3652,2.5836,2.7875,3.0001,3.2332,3.3383,3.4383,3.5638,3.6807,3.7394,3.7098,3.7329,3.7385,3.7106,3.7667,3.7913,3.7676,3.8204,3.8449,3.8267,3.8434,3.8212,3.7596,3.7596,3.7533,3.7414,3.7137,3.7007,3.7007,3.7007,3.7177,3.7505,3.7505,3.7894,3.8517,3.8517,3.8718,3.902,3.902,3.9041,3.9101,3.9101,3.9101,3.9101,3.9101,3.9101,3.9101,3.9101,3.9101,3.9101,3.9101,3.9101,3.9101,3.9101,3.9101,3.9101,3.9101,3.9101,3.9101,3.9101,3.9101,3.9101,3.9101,3.9101,3.9101,3.9101,3.9008,3.8915,3.8915,3.8804,3.8729,3.8729,3.8729,3.8729,3.8729,3.8729,3.8469,3.7789,3.7714,3.7436,3.6767,3.6693,3.6581,3.6321,3.6321,3.6377,3.6507,3.7176,3.7584,3.7714,3.8513,3.8915,3.8915,3.9045,3.9101,3.9101,3.9101,3.9101,1.3716,1.6255,1.8277,1.7573,1.8983,2.0464,2.0086,1.9598,0.0,0.0,0.0,0.0,2.2079,2.3318,2.4999,2.7603,3.0131,3.2039,3.2824,3.409,3.5151,3.5723,3.6651,3.7175,3.7009,3.7292,3.7541,3.7595,3.7914,3.81,3.8097,3.8047,3.8022,3.8101,3.7852,3.7765,3.7826,3.7614,3.7413,3.7225,3.7077,3.7089,3.7272,3.7272,3.7569,3.8097,3.8097,3.8389,3.8865,3.8865,3.8963,3.9101,3.9101,3.9101,3.9101,3.9101,3.9101,3.9101,3.9101,3.9101,3.9101,3.9101,3.9101,3.9101,3.9101,3.9101,3.9101,3.9101,3.9101,3.9101,3.9101,3.9101,3.9101,3.9101,3.9101,3.9101,3.9101,3.9101,3.9101,3.9101,3.9101,3.9101,3.9101,3.9101,3.9101,3.9101,3.9101,3.9101,3.9101,3.9101,3.8952,3.8581,3.8544,3.8395,3.803,3.7993,3.764,3.6748,3.712,3.7343,3.7343,3.8123,3.8544,3.8544,3.8915,3.9101,3.9101,3.9101,3.9101,3.9101,3.9101,3.9101,1.2955,1.5243,1.7584,1.8793,2.0558,2.2098,2.2492,2.1738,2.1058,2.1456,2.2169,2.2932,2.3555,2.4895,2.6678,2.9074,3.1697,3.342,3.3462,3.4818,3.5901,3.6163,3.6669,3.7007,3.7007,3.7292,3.7605,3.7836,3.8008,3.8133,3.8212,3.7764,3.7614,3.7844,3.7366,3.7347,3.7844,3.7712,3.7514,3.7252,3.7252,3.7394,3.7641,3.7641,3.7988,3.8594,3.8594,3.8792,3.9101,3.9101,3.9101,3.9101,3.9101,3.9101,3.9101,3.9101,3.9101,3.9101,3.9101,3.9101,3.9101,3.9101,3.9101,3.9101,3.9101,3.9101,3.9101,3.9101,3.9101,3.9101,3.9101,3.9101,3.9101,3.9101,3.9101,3.9101,3.9101,3.9101,3.9101,3.9101,3.9101,3.9101,3.9101,3.9101,3.9101,3.9101,3.9101,3.9101,3.9101,3.9101,3.9101,3.9101,3.9101,3.9101,3.9101,3.9101,3.8569,3.7343,3.7845,3.8179,3.8179,3.8767,3.9101,3.9101,3.9101,3.9101,3.9101,3.9101,3.9101,3.9101,3.9101,3.9101,1.5218,1.6545,1.7865,2.0223,2.0959,2.1504,2.3062,2.3904,2.4797,2.636,2.7308,2.7846,2.7793,2.8689,2.976,3.0701,3.2496,3.4172,3.5327,3.567,3.619,3.7253,3.7142,3.7007,3.7007,3.7292,3.7385,3.7097,3.7721,3.7818,3.7147,3.7357,3.7376,3.7087,3.732,3.7339,3.7077,3.7739,3.8042,3.8025,3.8025,3.8034,3.8059,3.8059,3.8257,3.8594,3.8594,3.8792,3.9101,3.9101,3.9101,3.9101,3.9101,3.9101,3.9101,3.9101,3.9101,3.9101,3.9101,3.9101,3.9101,3.9101,3.9101,3.9101,3.9101,3.9101,3.9101,3.9101,3.9101,3.9101,3.9101,3.9101,3.9101,3.9101,3.9101,3.9101,3.9101,3.9101,3.9101,3.9101,3.9101,3.9101,3.9101,3.9101,3.9101,3.9101,3.9101,3.9101,3.9101,3.9101,3.9101,3.9101,3.9101,3.9101,3.9101,3.9101,3.9045,3.8934,3.8971,3.9008,3.9008,3.9064,3.9101,3.9101,3.9101,3.9101,3.9101,3.9101,3.9101,3.9101,3.9101,3.9101,1.3886,1.5536,1.716,1.9635,2.1046,0.0,0.0,2.5289,2.6581,2.7703,2.8627,2.9125,2.8863,2.9894,3.0778,3.0702,3.2896,3.4719,3.5021,3.5929,3.6722,3.714,3.7077,3.7007,3.7007,3.7541,3.7818,3.7694,3.7948,3.7983,3.7703,3.7366,3.7127,3.6989,3.7118,3.7347,3.7685,3.7966,3.8306,3.8711,3.829,3.82,3.8418,3.8418,3.8597,3.892,3.892,3.8984,3.9101,3.9101,3.9101,3.9101,3.9101,3.9101,3.9101,3.9101,3.9101,3.9101,3.9101,3.9101,3.9101,3.9101,3.9101,3.9101,3.9101,3.9101,3.9101,3.9101,3.9101,3.9101,3.9101,3.9101,3.9101,3.9101,3.9101,3.9101,3.9101,3.9101,3.9101,3.9101,3.9101,3.9101,3.9101,3.9101,3.9101,3.9101,3.9101,3.9101,3.9101,3.9101,3.9101,3.9101,3.9101,3.9101,3.9101,3.9101,3.9101,3.9101,3.9101,3.9101,3.9101,3.9101,3.9101,3.9101,3.9101,3.9101,3.9101,3.9101,3.9101,3.9101,3.9101,3.9101,1.3866,1.5792,1.7742,1.9691,0.0,0.0,2.5116,2.6562,2.797,2.9298,2.9915,3.0155,2.9844,3.049,3.0975,3.0766,3.321,3.5073,3.4889,3.6195,3.7156,3.7156,3.7068,3.7038,3.7147,3.7739,3.8051,3.7922,3.8034,3.8,3.7774,3.7375,3.7156,3.7156,3.729,3.7586,3.8093,3.8191,3.8489,3.8942,3.8582,3.8535,3.8763,3.8763,3.8873,3.9101,3.9101,3.9101,3.9101,3.9101,3.9101,3.9101,3.9101,3.9101,3.9101,3.9101,3.9101,3.9101,3.9101,3.9101,3.9101,3.9101,3.9101,3.9101,3.9101,3.9101,3.9101,3.9101,3.9101,3.9101,3.9101,3.9101,3.9101,3.9101,3.9101,3.9101,3.9101,3.9101,3.9101,3.9101,3.9101,3.9101,3.9101,3.9101,3.9101,3.9101,3.9101,3.9101,3.9101,3.9101,3.9101,3.9101,3.9101,3.9101,3.9101,3.9101,3.9101,3.9101,3.9101,3.9101,3.9101,3.9101,3.9101,3.9101,3.9101,3.9101,3.9101,3.9101,3.9101,3.9101,3.9101,3.9101,1.5882,1.7892,1.9973,2.0806,2.2886,2.5154,2.6848,2.7853,2.9124,3.1616,3.1756,3.1366,3.1152,3.0675,3.0517,3.1105,3.3444,3.5193,3.5193,3.6515,3.7496,3.7496,3.7196,3.7127,3.7469,3.7861,3.793,3.7542,3.787,3.7783,3.7038,3.7311,3.7505,3.7505,3.7896,3.8101,3.8101,3.8423,3.8594,3.8602,3.8949,3.9101,3.9101,3.9101,3.9101,3.9101,3.9101,3.9101,3.9101,3.9101,3.9101,3.9101,3.9101,3.9101,3.9101,3.9101,3.9101,3.9101,3.9101,3.9101,3.9101,3.9101,3.9101,3.9101,3.9101,3.9101,3.9101,3.9101,3.9101,3.9101,3.9101,3.9101,3.9101,3.9101,3.9101,3.9101,3.9101,3.9101,3.9101,3.9101,3.9101,3.9101,3.9101,3.9101,3.9101,3.9101,3.9101,3.9101,3.9101,3.9101,3.9101,3.9101,3.9101,3.9101,3.9101,3.9101,3.9101,3.9101,3.9101,3.9101,3.9101,3.9101,3.9101,3.9101,3.9101,3.9101,3.9101,3.9101,3.9101,3.9101,3.9101,3.9101,1.5703,1.7463,1.9375,2.1403,2.42,2.6904,2.8579,2.9584,3.0846,3.3291,3.3484,3.2955,3.2037,3.1973,3.1872,3.1287,3.2782,3.4208,3.4764,3.569,3.652,3.7076,3.7058,3.7127,3.7469,3.7605,3.7756,3.7913,3.7765,3.7578,3.7367,3.7441,3.7505,3.7505,3.7896,3.8208,3.8457,3.854,3.8726,3.8956,3.9041,3.9101,3.9101,3.9101,3.9101,3.9101,3.9101,3.9101,3.9101,3.9101,3.9101,3.9101,3.9101,3.9101,3.9101,3.9101,3.9101,3.9101,3.9101,3.9101,3.9101,3.9101,3.9101,3.9101,3.9101,3.9101,3.9101,3.9101,3.9101,3.9101,3.9101,3.9101,3.9101,3.9101,3.9101,3.9101,3.9101,3.9101,3.9101,3.9101,3.9101,3.9101,3.9101,3.9101,3.9101,3.9101,3.9101,3.9101,3.9101,3.9101,3.9101,3.9101,3.9101,3.9101,3.9101,3.9101,3.9101,3.9101,3.9101,3.9101,3.9101,3.9101,3.9101,3.9101,3.9101,3.9101,3.9101,3.9101,3.9101,3.9101,3.9101,3.9101,1.7029,1.9225,2.1403,2.3303,2.6007,2.8702,3.0686,3.1502,3.2349,3.4098,3.3821,3.3155,3.2748,3.2409,3.2067,3.1728,3.2842,3.3855,3.4179,3.4992,3.5796,3.6445,3.6513,3.6783,3.7433,3.7505,3.7605,3.7844,3.7641,3.7441,3.7301,3.7587,3.7729,3.7729,3.8222,3.8589,3.88,3.88,3.8906,3.9101,3.9101,3.9101,3.9101,3.9101,3.9101,3.9101,3.9101,3.9101,3.9101,3.9101,3.9101,3.9101,3.9101,3.9101,3.9101,3.9101,3.9101,3.9101,3.9101,3.9101,3.9101,3.9101,3.9101,3.9101,3.9101,3.9101,3.9101,3.9101,3.9101,3.9101,3.9101,3.9101,3.9101,3.9101,3.9101,3.9101,3.9101,3.9101,3.9101,3.9101,3.9101,3.9101,3.9101,3.9101,3.9101,3.9101,3.9101,3.9101,3.9101,3.9101,3.9101,3.9101,3.9101,3.9101,3.9101,3.9101,3.9101,3.9101,3.9101,3.9101,3.9101,3.9101,3.9101,3.9101,3.9101,3.9101,3.9101,3.9101,3.9101,3.9101,3.9101,3.9101,1.9034,2.2038,2.4726,2.5752,2.7979,3.0527,3.2866,3.3406,3.3571,3.4213,3.3251,3.2517,3.3223,3.2234,3.1554,3.2283,3.3276,3.3838,3.3547,3.4393,3.5199,3.5656,3.5704,3.6121,3.7184,3.7264,3.7255,3.7291,3.7264,3.7161,3.6962,3.7613,3.8046,3.8133,3.8774,3.9101,3.9101,3.9101,3.9101,3.9101,3.9101,3.9101,3.9101,3.9101,3.9101,3.9101,3.9101,3.9101,3.9101,3.9101,3.9101,3.9101,3.9101,3.9101,3.9101,3.9101,3.9101,3.9101,3.9101,3.9101,3.9101,3.9101,3.9101,3.9101,3.9101,3.9101,3.9101,3.9101,3.9101,3.9101,3.9101,3.9101,3.9101,3.9101,3.9101,3.9101,3.9101,3.9101,3.9101,3.9101,3.9101,3.9101,3.9101,3.9101,3.9101,3.9101,3.9101,3.9101,3.9101,3.9101,3.9101,3.9101,3.9101,3.9101,3.9101,3.9101,3.9101,3.9101,3.9101,3.9101,3.9101,3.9101,3.9101,3.9101,3.9101,3.9101,3.9101,3.9101,3.9101,3.9101,3.9101,3.9101,1.8286,2.0765,2.3337,2.547,2.8815,3.2047,3.3766,3.4126,3.407,3.4018,3.3556,3.3107,3.2955,3.2505,3.2195,3.2371,3.2606,3.2949,3.3432,3.3706,3.4119,3.4855,3.4934,3.5134,3.565,3.5465,3.542,3.5667,3.5447,3.5649,3.6497,3.6934,3.7568,3.846,3.8898,3.9101,3.9101,3.9101,3.9101,3.9101,3.9101,3.9101,3.9101,3.9101,3.9101,3.9101,3.9101,3.9101,3.9101,3.9101,3.9101,3.9101,3.9101,3.9101,3.9101,3.9101,3.9101,3.9101,3.9101,3.9101,3.9101,3.9101,3.9101,3.9101,3.9101,3.9101,3.9101,3.9101,3.9101,3.9101,3.9101,3.9101,3.9101,3.9101,3.9101,3.9101,3.9101,3.9101,3.9101,3.9101,3.9101,3.9101,3.9101,3.9101,3.9101,3.9101,3.9101,3.9101,3.9101,3.9101,3.9101,3.9101,3.9101,3.9101,3.9101,3.9101,3.9101,3.9101,3.9101,3.9101,3.9101,3.9101,3.9101,3.9101,3.9101,3.9101,3.9101,3.9101,3.9101,3.9101,3.9101,3.9101,1.8453,2.0952,2.366,2.695,2.995,3.2401,3.3556,3.4073,3.4215,3.3908,3.3585,3.3243,3.2866,3.2581,3.2406,3.2406,3.2406,3.2529,3.2924,3.2976,3.3257,3.4029,3.4135,3.4348,3.4916,3.4807,3.4771,3.496,3.4798,3.5011,3.5748,3.6489,3.7254,3.7995,3.8724,3.9101,3.9101,3.9101,3.9101,3.9101,3.9101,3.9101,3.9101,3.9101,3.9101,3.9101,3.9101,3.9101,3.9101,3.9101,3.9101,3.9101,3.9101,3.9101,3.9101,3.9101,3.9101,3.9101,3.9101,3.9101,3.9101,3.9101,3.9101,3.9101,3.9101,3.9101,3.9101,3.9101,3.9101,3.9101,3.9101,3.9101,3.9101,3.9101,3.9101,3.9101,3.9101,3.9101,3.9101,3.9101,3.9101,3.9101,3.9101,3.9101,3.9101,3.9101,3.9101,3.9101,3.9101,3.9101,3.9101,3.9101,3.9101,3.9101,3.9101,3.9101,3.9101,3.9101,3.9101,3.9101,3.9101,3.9101,3.9101,3.9101,3.9101,3.9101,3.9101,3.9101,3.9101,3.9101,3.9101,3.9101,1.8146,2.1065,2.4321,2.8636,3.069,3.1917,3.2966,3.3651,3.4012,3.3758,3.3487,3.3224,3.2947,3.2622,3.2414,3.2456,3.2431,3.2406,3.2406,3.2406,3.2634,3.3248,3.3354,3.3627,3.425,3.433,3.4339,3.4311,3.4293,3.4517,3.4969,3.5936,3.6724,3.7265,3.819,3.8692,3.8692,3.8822,3.8897,3.8897,3.9027,3.9101,3.9101,3.9101,3.9101,3.9101,3.9101,3.9101,3.9101,3.9101,3.9101,3.9101,3.9101,3.9101,3.9101,3.9101,3.9101,3.9101,3.9101,3.9101,3.9101,3.9101,3.9101,3.9101,3.9101,3.9101,3.9101,3.9101,3.9101,3.9101,3.9101,3.9101,3.9101,3.9101,3.9101,3.9101,3.9101,3.9101,3.9101,3.9101,3.9101,3.9101,3.9101,3.9101,3.9101,3.9101,3.9101,3.9101,3.9101,3.9101,3.9101,3.9101,3.9101,3.9101,3.9101,3.9101,3.9101,3.9101,3.9101,3.9101,3.9101,3.9101,3.9101,3.9101,3.9101,3.9101,3.9101,3.9101,3.9101,3.9101,3.9101,3.9101,1.5158,1.89,2.3637,2.8486,2.9771,3.0435,3.2694,3.3194,3.3216,3.3341,3.3335,3.3291,3.3236,3.2778,3.2473,3.2718,3.2557,3.2406,3.2406,3.2406,3.2441,3.2546,3.2756,3.284,3.2721,3.2915,3.2956,3.2713,3.2704,3.3259,3.4514,3.4725,3.5425,3.6744,3.6933,3.7027,3.7027,3.7714,3.8067,3.8061,3.8767,3.9101,3.9101,3.9101,3.9101,3.9101,3.9101,3.9101,3.9101,3.9101,3.9101,3.9101,3.9101,3.9101,3.9101,3.9101,3.9101,3.9101,3.9101,3.9101,3.9101,3.9101,3.9101,3.9101,3.9101,3.9101,3.9101,3.9101,3.9101,3.9101,3.9101,3.9101,3.9101,3.9101,3.9101,3.9101,3.9101,3.9101,3.9101,3.9101,3.9101,3.9101,3.9101,3.9101,3.9101,3.9101,3.9101,3.9101,3.9101,3.9101,3.9101,3.9101,3.9101,3.9101,3.9101,3.9101,3.9101,3.9101,3.9101,3.9101,3.9101,3.9101,3.9101,3.9101,3.9101,3.9101,3.9101,3.9101,3.9101,3.9101,3.9101,3.9101,1.6758,2.0236,2.3821,2.7353,2.8877,2.9892,3.1456,3.2421,3.3023,3.3108,3.3371,3.3465,3.3093,3.2807,3.2653,3.2789,3.2573,3.2406,3.2406,3.2406,3.2406,3.2406,3.2638,3.2694,3.2422,3.2646,3.2685,3.2414,3.254,3.2983,3.378,3.4422,3.5161,3.5993,3.6451,3.6693,3.6693,3.7046,3.7454,3.79,3.8265,3.8655,3.9101,3.9101,3.9101,3.9101,3.9101,3.9101,3.9101,3.9101,3.9101,3.9101,3.9101,3.9101,3.9101,3.9101,3.9101,3.9101,3.9101,3.9101,3.9101,3.9101,3.9101,3.9101,3.9101,3.9101,3.9101,3.9101,3.9101,3.9101,3.9101,3.9101,3.9101,3.9101,3.9101,3.9101,3.9101,3.9101,3.9101,3.9101,3.9101,3.9101,3.9101,3.9101,3.9101,3.9101,3.9101,3.9101,3.9101,3.9101,3.9101,3.9101,3.9101,3.9101,3.9101,3.9101,3.9101,3.9101,3.9101,3.9101,3.9101,3.9101,3.9101,3.9101,3.9101,3.9101,3.9101,3.9101,3.9101,3.9101,3.9101,3.9101,1.7573,2.0205,2.2357,2.5425,2.7241,2.8642,3.0061,3.1274,3.218,3.2499,3.2951,3.3111,3.2523,3.2699,3.2939,3.2939,3.2687,3.2473,3.2405,3.2456,3.2507,3.2507,3.275,3.2822,3.2523,3.2677,3.2685,3.2414,3.2654,3.2954,3.3291,3.4198,3.4849,3.5163,3.5745,3.6061,3.6061,3.6284,3.6897,3.79,3.79,3.8321,3.9101,3.9101,3.9101,3.9101,3.9101,3.9101,3.9101,3.9101,3.9101,3.9101,3.9101,3.9101,3.9101,3.9101,3.9101,3.9101,3.9101,3.9101,3.9101,3.9101,3.9101,3.9101,3.9101,3.9101,3.9101,3.9101,3.9101,3.9101,3.9101,3.9101,3.9101,3.9101,3.9101,3.9101,3.9101,3.9101,3.9101,3.9101,3.9101,3.9101,3.9101,3.9101,3.9101,3.9101,3.9101,3.9101,3.9101,3.9101,3.9101,3.9101,3.9101,3.9101,3.9101,3.9101,3.9101,3.9101,3.9101,3.9101,3.9101,3.9101,3.9101,3.9101,3.9101,3.9101,3.9101,3.9101,3.9101,3.9101,3.9101,3.9101,1.5156,1.6395,1.7635,2.2477,2.4277,2.5679,2.8833,2.957,2.9922,3.1134,3.1653,3.1796,3.1439,3.2422,3.3258,3.3258,3.3001,3.2685,3.244,3.2613,3.2789,3.2789,3.307,3.3139,3.2803,3.2787,3.2685,3.2414,3.2654,3.2954,3.3291,3.3661,3.3994,3.4265,3.4315,3.4333,3.4333,3.5151,3.634,3.79,3.79,3.8321,3.9101,3.9101,3.9101,3.9101,3.9101,3.9101,3.9101,3.9101,3.9101,3.9101,3.9101,3.9101,3.9101,3.9101,3.9101,3.9101,3.9101,3.9101,3.9101,3.9101,3.9101,3.9101,3.9101,3.9101,3.9101,3.9101,3.9101,3.9101,3.9101,3.9101,3.9101,3.9101,3.9101,3.9101,3.9101,3.9101,3.9101,3.9101,3.9101,3.9101,3.9101,3.9101,3.9101,3.9101,3.9101,3.9101,3.9101,3.9101,3.9101,3.9101,3.9101,3.9101,3.9101,3.9101,3.9101,3.9101,3.9101,3.9101,3.9101,3.9101,3.9101,3.9101,3.9101,3.9101,3.9101,3.9101,3.9101,3.9101,3.9101,3.9101,1.3954,1.5656,1.7675,2.1003,2.281,2.4346,2.6553,2.8261,2.9524,2.9996,3.1002,3.176,3.1643,3.2284,3.2851,3.2851,3.2811,3.2773,3.2661,3.2741,3.2795,3.2795,3.3288,3.3397,3.285,3.2983,3.2986,3.2669,3.2939,3.3266,3.3592,3.3908,3.4099,3.4197,3.4203,3.4203,3.4203,3.4519,3.5244,3.6358,3.6358,3.7046,3.8328,3.8328,3.8599,3.9101,3.9101,3.9101,3.9101,3.9101,3.9101,3.9101,3.9101,3.9101,3.9101,3.9101,3.9101,3.9101,3.9101,3.9101,3.9101,3.9101,3.9101,3.9101,3.9101,3.9101,3.9101,3.9101,3.9101,3.9101,3.9101,3.9101,3.9101,3.9101,3.9101,3.9101,3.9101,3.9101,3.9101,3.9101,3.9101,3.9101,3.9101,3.9101,3.9101,3.9101,3.9101,3.9101,3.9101,3.9101,3.9101,3.9101,3.9101,3.9101,3.9101,3.9101,3.9101,3.9101,3.9101,3.9101,3.9101,3.9101,3.9101,3.9101,3.9101,3.9101,3.9101,3.9101,3.9101,3.9101,3.9101,3.9101,1.2617,1.4377,1.6715,1.9423,2.0675,2.2033,2.5044,2.6563,2.7626,2.8746,2.9805,3.066,3.0939,3.1515,3.1974,3.213,3.2235,3.2358,3.2547,3.2667,3.2832,3.311,3.3536,3.3638,3.3191,3.3236,3.3206,3.2975,3.3273,3.3576,3.3793,3.4055,3.4203,3.4203,3.4203,3.4203,3.4203,3.4203,3.463,3.551,3.551,3.6191,3.751,3.751,3.7937,3.8692,3.8692,3.8841,3.9101,3.9101,3.9101,3.9101,3.9101,3.9101,3.9101,3.9101,3.9101,3.9101,3.9101,3.9101,3.9101,3.9101,3.9101,3.9101,3.9101,3.9101,3.9101,3.9101,3.9101,3.9101,3.9101,3.9101,3.9101,3.9101,3.9101,3.9101,3.9101,3.9101,3.9101,3.9101,3.9101,3.9101,3.9101,3.9101,3.9101,3.9101,3.9101,3.9101,3.9101,3.9101,3.9101,3.9101,3.9101,3.9101,3.9101,3.9101,3.9101,3.9101,3.9101,3.9101,3.9101,3.9101,3.9101,3.9101,3.9101,3.9101,3.9101,3.9101,3.9101,3.9101,3.9101,3.9101,0.0,0.0,0.0,1.7592,1.7788,1.8687,2.4333,2.4337,2.4042,2.731,2.7984,2.8263,2.916,2.9973,3.0683,3.1134,3.1261,3.1471,3.2006,3.2361,3.2864,3.3678,3.3777,3.3777,3.3807,3.3501,3.3302,3.3302,3.3625,3.3795,3.382,3.4061,3.4203,3.4203,3.4203,3.4203,3.4203,3.4203,3.4612,3.5448,3.5448,3.5875,3.6656,3.6656,3.7101,3.7863,3.7894,3.8339,3.9064,3.9082,3.9101,3.9101,3.9101,3.9101,3.9101,3.9101,3.9101,3.9101,3.9101,3.9101,3.9101,3.9101,3.9101,3.9101,3.9101,3.9101,3.9101,3.9101,3.9101,3.9101,3.9101,3.9101,3.9101,3.9101,3.9101,3.9101,3.9101,3.9101,3.9101,3.9101,3.9101,3.9101,3.9101,3.9101,3.9101,3.9101,3.9101,3.9101,3.9101,3.9101,3.9101,3.9101,3.9101,3.9138,3.9231,3.9157,3.9101,3.9138,3.912,3.9101,3.9101,3.9101,3.9101,3.9101,3.9101,3.9101,3.9101,3.9101,3.9101,3.9101,3.9101,3.9101,1.2359,0.0,0.0,0.0,0.0,0.0,2.0756,2.1425,2.2225,2.4946,2.5499,2.5926,2.7339,2.8244,2.8832,2.8963,3.028,3.134,3.1501,3.1595,3.1983,3.2821,3.3099,3.3364,3.3753,3.3714,3.3666,3.3666,3.3741,3.3875,3.408,3.4161,3.4203,3.4203,3.4203,3.4203,3.4203,3.4203,3.4315,3.4556,3.4556,3.5002,3.5819,3.5819,3.6265,3.7064,3.7659,3.803,3.8284,3.8859,3.9101,3.9101,3.9101,3.9101,3.9101,3.9101,3.9101,3.9101,3.9101,3.9101,3.9101,3.9101,3.9101,3.9101,3.9101,3.9101,3.9101,3.9101,3.9101,3.9101,3.9101,3.9101,3.9101,3.9101,3.9101,3.9101,3.9101,3.9101,3.9101,3.9101,3.9101,3.9101,3.9101,3.9101,3.9101,3.9101,3.9101,3.9101,3.9101,3.9101,3.9101,3.9101,3.9101,4.0067,4.2445,4.0476,3.9442,4.0285,3.9554,3.9101,3.9101,3.9101,3.9101,3.9101,3.9101,3.9101,3.9101,3.9101,3.9101,3.9101,3.9101,3.9101,0.0,0.0,0.0,1.6383,0.0,0.0,2.0084,2.0211,2.0655,2.383,2.45,2.4983,2.6595,2.7278,2.7594,2.7594,2.8926,3.021,3.0904,3.1015,3.131,3.217,3.2401,3.2751,3.3407,3.3468,3.3615,3.3947,3.3966,3.4036,3.4191,3.4203,3.4203,3.4203,3.4203,3.4203,3.4203,3.4203,3.4203,3.4203,3.4203,3.4463,3.4965,3.4965,3.5411,3.6247,3.7046,3.7584,3.7956,3.8767,3.9101,3.9101,3.9101,3.9101,3.9101,3.9101,3.9101,3.9101,3.9101,3.9101,3.9101,3.9101,3.9101,3.9101,3.9101,3.9101,3.9101,3.9101,3.9101,3.9101,3.9101,3.9101,3.9101,3.9101,3.9101,3.9101,3.9101,3.9101,3.9101,3.9101,3.9101,3.9101,3.9101,3.9101,3.9101,3.9101,3.9101,3.9101,3.9101,3.9101,3.9101,3.9101,3.9101,4.042,4.3726,4.224,4.0828,4.013,3.9814,3.9472,3.912,3.9101,3.9101,3.9101,3.9101,3.9101,3.9101,3.9101,3.9101,3.9101,3.9101,3.9825,1.5777,1.6511,0.0,1.8362,1.7518,0.0,2.0909,2.0002,1.9526,2.3306,2.3938,2.4328,2.6033,2.6423,2.6498,2.6498,2.7315,2.8523,3.0103,3.04,3.0772,3.1571,3.1663,3.1979,3.2791,3.2865,3.3163,3.3887,3.4017,3.411,3.4203,3.4203,3.4203,3.4203,3.4203,3.4203,3.4203,3.4203,3.4203,3.4203,3.4203,3.4203,3.4203,3.4203,3.4612,3.5398,3.621,3.7027,3.7826,3.8618,3.9027,3.9101,3.9101,3.9101,3.9101,3.9101,3.9101,3.9101,3.9101,3.9101,3.9101,3.9101,3.9101,3.9101,3.9101,3.9101,3.9101,3.9101,3.9101,3.9101,3.9101,3.9101,3.9101,3.9101,3.9101,3.9101,3.9101,3.9101,3.9101,3.9101,3.9101,3.9101,3.9101,3.9101,3.9101,3.9101,3.9417,3.964,3.964,3.9324,3.9101,3.9101,3.9435,4.0828,4.3745,4.4005,4.2742,3.9825,4.0148,4.0037,3.9138,3.9212,3.9231,3.9101,3.9101,3.9101,3.9101,3.9101,3.9101,3.9101,3.9472,4.1219,1.9088,1.9541,1.9998,1.8796,1.9275,0.0,1.9254,1.9275,1.9836,2.1239,2.0444,2.0218,2.2524,2.3485,2.3912,2.3912,2.5727,2.7464,2.8449,2.9192,2.9941,3.0734,3.0827,3.1143,3.1961,3.2029,3.2109,3.2258,3.2865,3.3516,3.4166,3.4203,3.4203,3.4203,3.4203,3.4203,3.4203,3.4203,3.4203,3.4203,3.4203,3.4203,3.4203,3.4203,3.4296,3.45,3.5355,3.6191,3.7009,3.7807,3.8525,3.9101,3.9101,3.9101,3.9101,3.9101,3.9101,3.9101,3.9101,3.9101,3.9101,3.9101,3.9101,3.9101,3.9101,3.9101,3.9101,3.9101,3.9101,3.9101,3.9101,3.9101,3.9101,3.9101,3.9101,3.9101,3.9101,3.9101,3.9101,3.9101,3.9101,3.9101,3.9101,3.9101,3.9101,3.9101,4.1349,4.3039,4.3039,4.0736,3.9101,3.9101,4.146,4.3299,4.3949,4.4005,4.3726,4.3076,4.1579,4.0223,3.9138,3.9981,4.0037,3.912,3.9101,3.9101,3.9101,3.9101,3.9101,3.9157,4.1813,4.3392,2.1362,2.1628,2.2048,2.1203,2.1306,0.0,0.0,2.0253,2.0108,2.1719,2.0719,2.0177,2.2219,2.2924,2.3203,2.3203,2.4947,2.6298,2.6298,2.7376,2.8305,2.8709,2.9118,2.9675,3.0511,3.0976,3.1366,3.1775,3.2165,3.2754,3.3553,3.3609,3.3794,3.4179,3.4203,3.4203,3.4203,3.4203,3.4203,3.4203,3.4203,3.4203,3.4203,3.4203,3.4203,3.4259,3.5113,3.5727,3.6154,3.6971,3.7789,3.8551,3.8934,3.9101,3.9101,3.9101,3.9101,3.9101,3.9101,3.9101,3.9101,3.9101,3.9101,3.9101,3.9101,3.9101,3.9101,3.9101,3.9101,3.9101,3.9101,3.9101,3.9101,3.9101,3.9101,3.9101,3.9101,3.9101,3.9101,3.9101,3.9101,3.9101,3.9101,3.9101,3.9101,3.9101,4.1906,4.4005,4.4005,4.2556,4.1534,4.1534,4.302,4.4005,4.4005,4.4005,4.4005,4.4005,4.2991,4.1393,3.9194,4.0446,4.0538,3.912,3.9101,3.99,4.1534,4.1534,4.1534,4.1571,4.3225,4.4005,2.3164,2.3359,2.3892,2.3573,2.3326,2.3154,0.0,0.0,0.0,2.2734,2.1872,2.1254,2.2718,2.2858,2.2739,2.2739,2.4125,2.4881,2.3919,2.5178,2.6312,2.6632,2.7371,2.8152,2.8844,2.9365,3.0196,3.1478,3.1273,3.1589,3.2698,3.2921,3.3293,3.3962,3.4129,3.4203,3.4203,3.4203,3.4203,3.4203,3.4203,3.4203,3.4203,3.4203,3.4203,3.424,3.4946,3.5343,3.5541,3.6191,3.7027,3.7956,3.8618,3.8952,3.9101,3.9101,3.9101,3.9101,3.9101,3.9101,3.9101,3.9101,3.9101,3.9101,3.9101,3.9101,3.9101,3.9101,3.9101,3.9101,3.9101,3.9101,3.9101,3.9101,3.9101,3.9101,3.9101,3.9101,3.9101,3.9101,3.9101,3.9101,3.9101,3.9101,3.9101,3.9101,4.1906,4.4005,4.4005,4.4005,4.4005,4.4005,4.4005,4.4005,4.4005,4.4005,4.4005,4.4005,4.4005,4.2816,4.0141,4.133,4.1423,4.0067,4.0048,4.1349,4.4005,4.4005,4.4005,4.4005,4.4005,4.4005,2.4689,2.5068,2.5358,2.3874,2.5087,2.5878,2.2982,0.0,2.3749,2.2503,0.0,2.1156,2.2062,0.0,0.0,2.1068,2.2427,2.2947,2.1424,2.2613,2.4176,2.5666,2.6558,2.7079,2.7167,2.6614,2.7506,3.0511,2.9359,2.9527,3.1807,3.2605,3.3033,3.3126,3.3832,3.4203,3.4203,3.4203,3.4203,3.4203,3.4203,3.4203,3.4203,3.4203,3.4203,3.4203,3.4296,3.4798,3.551,3.5603,3.6525,3.7919,3.7993,3.8469,3.9101,3.9101,3.9101,3.9101,3.9101,3.9101,3.9101,3.9101,3.9101,3.9101,3.9101,3.9101,3.9101,3.9101,3.9101,3.9101,3.9101,3.9101,3.9101,3.9101,3.9101,3.9101,3.9101,3.9101,3.9101,3.9101,3.9101,3.9101,3.9101,3.9101,3.9101,3.9101,4.1906,4.4005,4.4005,4.4005,4.4005,4.4005,4.4005,4.4005,4.4005,4.4005,4.4005,4.4005,4.4005,4.3838,4.3466,4.3633,4.3633,4.3448,4.3448,4.3633,4.4005,4.4005,4.4005,4.4005,4.4005,4.4005,2.5541,2.5714,2.594,2.571,2.6086,2.6138,2.4733,2.4166,2.3881,2.3659,0.0,0.0,0.0,0.0,0.0,0.0,2.2052,2.194,2.0329,2.109,2.2241,2.3401,2.4255,2.5132,2.6112,2.5908,2.6465,2.83,2.7376,2.7785,3.027,3.1162,3.2035,3.2977,3.3776,3.4203,3.4203,3.4203,3.4203,3.4203,3.4203,3.4203,3.4203,3.4203,3.4203,3.4203,3.4203,3.4408,3.4742,3.4742,3.5727,3.7194,3.7194,3.7968,3.9101,3.9101,3.9101,3.9101,3.9101,3.9101,3.9101,3.9101,3.9101,3.9101,3.9101,3.9101,3.9101,3.9101,3.9101,3.9101,3.9101,3.9101,3.9101,3.9101,3.9101,3.9101,3.9101,3.9101,3.9101,3.9101,4.0643,4.1943,4.1943,4.1943,4.1943,4.1943,4.3113,4.4005,4.4005,4.4005,4.4005,4.4005,4.4005,4.4005,4.4005,4.4005,4.4005,4.4005,4.4005,4.4005,4.4005,4.4005,4.4005,4.4005,4.4005,4.4005,4.4005,4.4005,4.4005,4.4005,4.4005,4.4005,2.6387,2.648,2.6683,2.6833,2.6593,2.6203,2.5748,2.4846,2.4222,2.4627,2.3864,0.0,0.0,0.0,2.2284,2.2061,0.0,2.1439,1.9828,2.0106,2.0682,2.1272,2.2256,2.343,2.4877,2.4621,2.4974,2.6465,2.5606,2.62,2.89,2.9824,3.1013,3.2624,3.3441,3.398,3.4203,3.4203,3.4203,3.4203,3.4203,3.4203,3.4203,3.4203,3.4203,3.4203,3.4203,3.4203,3.4203,3.4203,3.5188,3.6693,3.6693,3.7677,3.9101,3.9101,3.9101,3.9101,3.9101,3.9101,3.9101,3.9101,3.9101,3.9101,3.9101,3.9101,3.9101,3.9101,3.9101,3.9101,3.9101,3.9101,3.9101,3.9101,3.9101,3.9101,3.9101,3.9101,3.9101,3.9101,4.1757,4.4005,4.4005,4.4005,4.4005,4.4005,4.4005,4.4005,4.4005,4.4005,4.4005,4.4005,4.4005,4.4005,4.4005,4.4005,4.4005,4.4005,4.4005,4.4005,4.4005,4.4005,4.4005,4.4005,4.4005,4.4005,4.4005,4.4005,4.4005,4.4005,4.4005,4.4005,2.7369,2.7721,2.7965,2.6424,2.6593,2.6735,2.5116,2.535,2.5692,2.4872,2.5264,2.5554,2.4794,2.3889,2.2998,0.0,2.2039,0.0,0.0,1.9624,1.9642,1.9661,2.1068,2.2367,2.3203,2.1866,2.2286,2.5499,2.4218,2.4696,2.7966,2.8974,3.0182,3.1794,3.2624,3.3404,3.4179,3.4203,3.4203,3.4203,3.4203,3.4203,3.4203,3.4203,3.4203,3.4203,3.4203,3.4203,3.4203,3.4203,3.5188,3.6693,3.6693,3.7677,3.9101,3.9101,3.9101,3.9101,3.9101,3.9101,3.9101,3.9101,3.9101,3.9101,3.9101,3.9101,3.9101,3.9101,3.9101,3.9101,3.9101,3.9101,3.9101,3.9101,3.9101,3.9101,3.9101,3.9101,3.9101,3.9101,4.1757,4.4005,4.4005,4.4005,4.4005,4.4005,4.4005,4.4005,4.4005,4.4005,4.4005,4.4005,4.4005,4.4005,4.4005,4.4005,4.4005,4.4005,4.4005,4.4005,4.4005,4.4005,4.4005,4.4005,4.4005,4.4005,4.4005,4.4005,4.4005,4.4005,4.4005,4.4005,2.8078,2.8186,2.8261,2.7721,2.7388,2.6904,2.5804,2.579,2.5752,2.4876,2.5343,2.5652,2.4855,2.3973,0.0,0.0,0.0,2.0709,0.0,1.7882,1.7349,1.7878,1.9419,2.0515,2.0793,2.0812,2.148,2.3122,2.2724,2.3601,2.6349,2.7798,2.9304,3.0957,3.229,3.3386,3.4179,3.4203,3.4203,3.4203,3.4203,3.4203,3.4203,3.4203,3.4203,3.4203,3.4203,3.4203,3.4203,3.4203,3.5188,3.6693,3.6693,3.7677,3.9101,3.9101,3.9101,3.9101,3.9101,3.9101,3.9101,3.9101,3.9101,3.9101,3.9101,3.9101,3.9101,3.9101,3.9101,3.9101,3.9101,3.9101,3.9101,3.9101,3.9101,3.9101,3.9101,3.9684,4.0334,4.0687,4.25,4.4005,4.4005,4.4005,4.4005,4.4005,4.4005,4.4005,4.4005,4.4005,4.4005,4.4005,4.4005,4.4005,4.4005,4.4005,4.4005,4.4005,4.4005,4.4005,4.4005,4.4005,4.4005,4.4005,4.4005,4.4005,4.4005,4.4005,4.4005,4.4005,4.4005,4.4005,2.9687,2.9687,2.9612,2.9308,2.8821,2.8085,2.6706,2.6616,2.6503,2.5355,2.5553,2.5856,2.556,2.4617,2.3767,0.0,0.0,0.0,0.0,1.731,1.6889,1.7104,1.8312,1.9252,1.9568,1.9791,2.0493,2.1885,2.1736,2.2788,2.5555,2.6944,2.856,3.053,3.1881,3.3107,3.4179,3.4203,3.4203,3.4203,3.4203,3.4203,3.4203,3.4203,3.4203,3.4203,3.4203,3.4203,3.4216,3.4538,3.5466,3.673,3.7027,3.7937,3.9101,3.9101,3.9101,3.9101,3.9101,3.9101,3.9101,3.9101,3.9101,3.9101,3.9101,3.9101,3.9101,3.9101,3.9101,3.9101,3.9101,3.9101,3.9101,3.9101,3.9101,3.9101,3.9101,4.0007,4.1029,4.1739,4.302,4.4005,4.4005,4.4005,4.4005,4.4005,4.4005,4.4005,4.4005,4.4005,4.4005,4.4005,4.4005,4.4005,4.4005,4.4005,4.4005,4.4005,4.4005,4.4005,4.4005,4.4005,4.4005,4.4005,4.4005,4.4005,4.4005,4.4005,4.4005,4.4005,4.4005,4.4005]}]]